<?xml version="1.0" encoding="UTF-8" standalone="no" ?>
<gpx xmlns="http://www.topografix.com/GPX/1/1" xmlns:xsi="http://www.w3.org/2001/XMLSchema-instance" xsi:schemaLocation="http://www.topografix.com/GPX/1/1 http://www.topografix.com/GPX/1/1/gpx.xsd" version="1.1" creator="VisuGPX - https://www.visugpx.com">
  <metadata>
    <name>Rimbach - Auberge du Grand Ballon</name>
    <desc><![CDATA[Rimbach - Auberge du Grand Ballon 

En un matin]]></desc>
  </metadata>
  <trk>
    <name><![CDATA[Rimbach - Auberge du Grand Ballon_1]]></name>
    <trkseg>
      <trkpt lat="47.90468" lon="7.15708">
        <ele>556</ele>
        <time>2014-02-27T09:19:45Z</time>
      </trkpt>
      <trkpt lat="47.90468" lon="7.15708">
        <ele>556</ele>
        <time>2014-02-27T09:19:50Z</time>
      </trkpt>
      <trkpt lat="47.90469" lon="7.15707">
        <ele>556</ele>
        <time>2014-02-27T09:21:20Z</time>
      </trkpt>
      <trkpt lat="47.90477" lon="7.15701">
        <ele>554.65594</ele>
        <time>2014-02-27T09:21:25Z</time>
      </trkpt>
      <trkpt lat="47.90485" lon="7.15696">
        <ele>554.65594</ele>
        <time>2014-02-27T09:21:30Z</time>
      </trkpt>
      <trkpt lat="47.90483" lon="7.157">
        <ele>558.81244</ele>
        <time>2014-02-27T09:21:35Z</time>
      </trkpt>
      <trkpt lat="47.90481" lon="7.157">
        <ele>558.81244</ele>
        <time>2014-02-27T09:21:40Z</time>
      </trkpt>
      <trkpt lat="47.90481" lon="7.157">
        <ele>558.81244</ele>
        <time>2014-02-27T09:21:45Z</time>
      </trkpt>
      <trkpt lat="47.90481" lon="7.157">
        <ele>558.81244</ele>
        <time>2014-02-27T09:21:50Z</time>
      </trkpt>
      <trkpt lat="47.90481" lon="7.15701">
        <ele>558.81244</ele>
        <time>2014-02-27T09:21:55Z</time>
      </trkpt>
      <trkpt lat="47.90481" lon="7.15702">
        <ele>559.5241</ele>
        <time>2014-02-27T09:22:00Z</time>
      </trkpt>
      <trkpt lat="47.90481" lon="7.15703">
        <ele>560.2358</ele>
        <time>2014-02-27T09:22:05Z</time>
      </trkpt>
      <trkpt lat="47.90512" lon="7.15684">
        <ele>560.94745</ele>
        <time>2014-02-27T09:22:10Z</time>
      </trkpt>
      <trkpt lat="47.90529" lon="7.15685">
        <ele>564.2818</ele>
        <time>2014-02-27T09:22:15Z</time>
      </trkpt>
      <trkpt lat="47.90539" lon="7.15689">
        <ele>567.01733</ele>
        <time>2014-02-27T09:22:20Z</time>
      </trkpt>
      <trkpt lat="47.90547" lon="7.15692">
        <ele>567.01733</ele>
        <time>2014-02-27T09:22:25Z</time>
      </trkpt>
      <trkpt lat="47.90556" lon="7.15697">
        <ele>569.4894</ele>
        <time>2014-02-27T09:22:30Z</time>
      </trkpt>
      <trkpt lat="47.90565" lon="7.15706">
        <ele>571.4375</ele>
        <time>2014-02-27T09:22:35Z</time>
      </trkpt>
      <trkpt lat="47.90571" lon="7.15717">
        <ele>573.1999</ele>
        <time>2014-02-27T09:22:40Z</time>
      </trkpt>
      <trkpt lat="47.90577" lon="7.15722">
        <ele>573.1999</ele>
        <time>2014-02-27T09:22:45Z</time>
      </trkpt>
      <trkpt lat="47.90584" lon="7.15725">
        <ele>574.43567</ele>
        <time>2014-02-27T09:22:50Z</time>
      </trkpt>
      <trkpt lat="47.90588" lon="7.15736">
        <ele>574.43567</ele>
        <time>2014-02-27T09:22:55Z</time>
      </trkpt>
      <trkpt lat="47.90595" lon="7.15747">
        <ele>574.61414</ele>
        <time>2014-02-27T09:23:00Z</time>
      </trkpt>
      <trkpt lat="47.90598" lon="7.15754">
        <ele>574.61414</ele>
        <time>2014-02-27T09:23:05Z</time>
      </trkpt>
      <trkpt lat="47.906" lon="7.15753">
        <ele>574.61414</ele>
        <time>2014-02-27T09:23:10Z</time>
      </trkpt>
      <trkpt lat="47.90603" lon="7.15759">
        <ele>574.1621</ele>
        <time>2014-02-27T09:23:15Z</time>
      </trkpt>
      <trkpt lat="47.906" lon="7.15794">
        <ele>573.4944</ele>
        <time>2014-02-27T09:23:20Z</time>
      </trkpt>
      <trkpt lat="47.90602" lon="7.1581">
        <ele>572.7622</ele>
        <time>2014-02-27T09:23:25Z</time>
      </trkpt>
      <trkpt lat="47.90599" lon="7.15816">
        <ele>572.7622</ele>
        <time>2014-02-27T09:23:30Z</time>
      </trkpt>
      <trkpt lat="47.90602" lon="7.15829">
        <ele>572.0792</ele>
        <time>2014-02-27T09:23:35Z</time>
      </trkpt>
      <trkpt lat="47.90606" lon="7.15839">
        <ele>572.0792</ele>
        <time>2014-02-27T09:23:40Z</time>
      </trkpt>
      <trkpt lat="47.90614" lon="7.1584">
        <ele>570.2859</ele>
        <time>2014-02-27T09:23:45Z</time>
      </trkpt>
      <trkpt lat="47.90621" lon="7.15845">
        <ele>570.2859</ele>
        <time>2014-02-27T09:23:50Z</time>
      </trkpt>
      <trkpt lat="47.90628" lon="7.1585">
        <ele>569.11774</ele>
        <time>2014-02-27T09:23:55Z</time>
      </trkpt>
      <trkpt lat="47.90636" lon="7.15848">
        <ele>569.11774</ele>
        <time>2014-02-27T09:24:00Z</time>
      </trkpt>
      <trkpt lat="47.90642" lon="7.15848">
        <ele>567.64703</ele>
        <time>2014-02-27T09:24:05Z</time>
      </trkpt>
      <trkpt lat="47.90649" lon="7.15846">
        <ele>567.64703</ele>
        <time>2014-02-27T09:24:10Z</time>
      </trkpt>
      <trkpt lat="47.90656" lon="7.15848">
        <ele>565.8229</ele>
        <time>2014-02-27T09:24:15Z</time>
      </trkpt>
      <trkpt lat="47.90662" lon="7.15849">
        <ele>565.8229</ele>
        <time>2014-02-27T09:24:20Z</time>
      </trkpt>
      <trkpt lat="47.9067" lon="7.15848">
        <ele>564.18787</ele>
        <time>2014-02-27T09:24:25Z</time>
      </trkpt>
      <trkpt lat="47.90675" lon="7.15853">
        <ele>564.18787</ele>
        <time>2014-02-27T09:24:30Z</time>
      </trkpt>
      <trkpt lat="47.90686" lon="7.15838">
        <ele>562.9904</ele>
        <time>2014-02-27T09:24:35Z</time>
      </trkpt>
      <trkpt lat="47.90693" lon="7.15843">
        <ele>562.9904</ele>
        <time>2014-02-27T09:24:40Z</time>
      </trkpt>
      <trkpt lat="47.90699" lon="7.15845">
        <ele>562.5323</ele>
        <time>2014-02-27T09:24:45Z</time>
      </trkpt>
      <trkpt lat="47.90707" lon="7.15845">
        <ele>562.5323</ele>
        <time>2014-02-27T09:24:50Z</time>
      </trkpt>
      <trkpt lat="47.90713" lon="7.15847">
        <ele>563.22144</ele>
        <time>2014-02-27T09:24:55Z</time>
      </trkpt>
      <trkpt lat="47.9072" lon="7.15847">
        <ele>563.22144</ele>
        <time>2014-02-27T09:25:00Z</time>
      </trkpt>
      <trkpt lat="47.90726" lon="7.15846">
        <ele>563.90936</ele>
        <time>2014-02-27T09:25:05Z</time>
      </trkpt>
      <trkpt lat="47.90732" lon="7.15849">
        <ele>563.90936</ele>
        <time>2014-02-27T09:25:10Z</time>
      </trkpt>
      <trkpt lat="47.90739" lon="7.15851">
        <ele>564.98035</ele>
        <time>2014-02-27T09:25:15Z</time>
      </trkpt>
      <trkpt lat="47.90743" lon="7.15851">
        <ele>564.98035</ele>
        <time>2014-02-27T09:25:20Z</time>
      </trkpt>
      <trkpt lat="47.90749" lon="7.15855">
        <ele>565.54675</ele>
        <time>2014-02-27T09:25:25Z</time>
      </trkpt>
      <trkpt lat="47.90754" lon="7.15856">
        <ele>565.54675</ele>
        <time>2014-02-27T09:25:30Z</time>
      </trkpt>
      <trkpt lat="47.90761" lon="7.15853">
        <ele>566.03546</ele>
        <time>2014-02-27T09:25:35Z</time>
      </trkpt>
      <trkpt lat="47.90767" lon="7.15853">
        <ele>566.03546</ele>
        <time>2014-02-27T09:25:40Z</time>
      </trkpt>
      <trkpt lat="47.9077" lon="7.15857">
        <ele>566.43933</ele>
        <time>2014-02-27T09:25:45Z</time>
      </trkpt>
      <trkpt lat="47.90775" lon="7.15859">
        <ele>566.43933</ele>
        <time>2014-02-27T09:25:50Z</time>
      </trkpt>
      <trkpt lat="47.90777" lon="7.15864">
        <ele>566.43933</ele>
        <time>2014-02-27T09:25:55Z</time>
      </trkpt>
      <trkpt lat="47.9078" lon="7.15871">
        <ele>568.21936</ele>
        <time>2014-02-27T09:26:00Z</time>
      </trkpt>
      <trkpt lat="47.90784" lon="7.15874">
        <ele>568.21936</ele>
        <time>2014-02-27T09:26:05Z</time>
      </trkpt>
      <trkpt lat="47.90789" lon="7.15879">
        <ele>569.7481</ele>
        <time>2014-02-27T09:26:10Z</time>
      </trkpt>
      <trkpt lat="47.90793" lon="7.15883">
        <ele>569.7481</ele>
        <time>2014-02-27T09:26:15Z</time>
      </trkpt>
      <trkpt lat="47.90798" lon="7.15884">
        <ele>571.6318</ele>
        <time>2014-02-27T09:26:20Z</time>
      </trkpt>
      <trkpt lat="47.90804" lon="7.15887">
        <ele>571.6318</ele>
        <time>2014-02-27T09:26:25Z</time>
      </trkpt>
      <trkpt lat="47.90809" lon="7.15888">
        <ele>573.01984</ele>
        <time>2014-02-27T09:26:30Z</time>
      </trkpt>
      <trkpt lat="47.90814" lon="7.1589">
        <ele>573.01984</ele>
        <time>2014-02-27T09:26:35Z</time>
      </trkpt>
      <trkpt lat="47.90817" lon="7.15895">
        <ele>574.92035</ele>
        <time>2014-02-27T09:26:40Z</time>
      </trkpt>
      <trkpt lat="47.9082" lon="7.15898">
        <ele>574.92035</ele>
        <time>2014-02-27T09:26:45Z</time>
      </trkpt>
      <trkpt lat="47.90824" lon="7.15902">
        <ele>574.92035</ele>
        <time>2014-02-27T09:26:50Z</time>
      </trkpt>
      <trkpt lat="47.90828" lon="7.15907">
        <ele>576.7248</ele>
        <time>2014-02-27T09:26:55Z</time>
      </trkpt>
      <trkpt lat="47.90832" lon="7.15908">
        <ele>576.7248</ele>
        <time>2014-02-27T09:27:00Z</time>
      </trkpt>
      <trkpt lat="47.90834" lon="7.15911">
        <ele>576.7248</ele>
        <time>2014-02-27T09:27:05Z</time>
      </trkpt>
      <trkpt lat="47.90835" lon="7.15916">
        <ele>578.66016</ele>
        <time>2014-02-27T09:27:10Z</time>
      </trkpt>
      <trkpt lat="47.90838" lon="7.15918">
        <ele>578.66016</ele>
        <time>2014-02-27T09:27:15Z</time>
      </trkpt>
      <trkpt lat="47.9084" lon="7.1592">
        <ele>578.66016</ele>
        <time>2014-02-27T09:27:20Z</time>
      </trkpt>
      <trkpt lat="47.90841" lon="7.15925">
        <ele>578.66016</ele>
        <time>2014-02-27T09:27:25Z</time>
      </trkpt>
      <trkpt lat="47.90848" lon="7.15929">
        <ele>580.8687</ele>
        <time>2014-02-27T09:27:30Z</time>
      </trkpt>
      <trkpt lat="47.90851" lon="7.1593">
        <ele>580.8687</ele>
        <time>2014-02-27T09:27:35Z</time>
      </trkpt>
      <trkpt lat="47.90854" lon="7.15934">
        <ele>580.8687</ele>
        <time>2014-02-27T09:27:40Z</time>
      </trkpt>
      <trkpt lat="47.90858" lon="7.15938">
        <ele>582.5594</ele>
        <time>2014-02-27T09:27:45Z</time>
      </trkpt>
      <trkpt lat="47.90862" lon="7.15942">
        <ele>582.5594</ele>
        <time>2014-02-27T09:27:50Z</time>
      </trkpt>
      <trkpt lat="47.90865" lon="7.15945">
        <ele>582.5594</ele>
        <time>2014-02-27T09:27:55Z</time>
      </trkpt>
      <trkpt lat="47.90868" lon="7.15946">
        <ele>584.05615</ele>
        <time>2014-02-27T09:28:00Z</time>
      </trkpt>
      <trkpt lat="47.9087" lon="7.15948">
        <ele>584.05615</ele>
        <time>2014-02-27T09:28:05Z</time>
      </trkpt>
      <trkpt lat="47.90876" lon="7.15954">
        <ele>585.46716</ele>
        <time>2014-02-27T09:28:10Z</time>
      </trkpt>
      <trkpt lat="47.90884" lon="7.15949">
        <ele>585.46716</ele>
        <time>2014-02-27T09:28:15Z</time>
      </trkpt>
      <trkpt lat="47.90885" lon="7.1595">
        <ele>586.92395</ele>
        <time>2014-02-27T09:28:20Z</time>
      </trkpt>
      <trkpt lat="47.90885" lon="7.15951">
        <ele>586.92395</ele>
        <time>2014-02-27T09:28:25Z</time>
      </trkpt>
      <trkpt lat="47.90886" lon="7.1595">
        <ele>586.92395</ele>
        <time>2014-02-27T09:28:30Z</time>
      </trkpt>
      <trkpt lat="47.90887" lon="7.15945">
        <ele>586.92395</ele>
        <time>2014-02-27T09:28:35Z</time>
      </trkpt>
      <trkpt lat="47.90887" lon="7.15943">
        <ele>586.92395</ele>
        <time>2014-02-27T09:28:40Z</time>
      </trkpt>
      <trkpt lat="47.90885" lon="7.15934">
        <ele>588.78125</ele>
        <time>2014-02-27T09:28:45Z</time>
      </trkpt>
      <trkpt lat="47.90884" lon="7.15928">
        <ele>588.78125</ele>
        <time>2014-02-27T09:28:50Z</time>
      </trkpt>
      <trkpt lat="47.90882" lon="7.15924">
        <ele>588.78125</ele>
        <time>2014-02-27T09:28:55Z</time>
      </trkpt>
      <trkpt lat="47.90881" lon="7.15918">
        <ele>590.9555</ele>
        <time>2014-02-27T09:29:00Z</time>
      </trkpt>
      <trkpt lat="47.90883" lon="7.1591">
        <ele>590.9555</ele>
        <time>2014-02-27T09:29:05Z</time>
      </trkpt>
      <trkpt lat="47.90882" lon="7.15906">
        <ele>590.9555</ele>
        <time>2014-02-27T09:29:10Z</time>
      </trkpt>
      <trkpt lat="47.90882" lon="7.15901">
        <ele>593.04553</ele>
        <time>2014-02-27T09:29:15Z</time>
      </trkpt>
      <trkpt lat="47.90884" lon="7.15892">
        <ele>593.04553</ele>
        <time>2014-02-27T09:29:20Z</time>
      </trkpt>
      <trkpt lat="47.90878" lon="7.15893">
        <ele>595.27216</ele>
        <time>2014-02-27T09:29:25Z</time>
      </trkpt>
      <trkpt lat="47.90873" lon="7.1589">
        <ele>595.27216</ele>
        <time>2014-02-27T09:29:30Z</time>
      </trkpt>
      <trkpt lat="47.90869" lon="7.15885">
        <ele>597.44586</ele>
        <time>2014-02-27T09:29:35Z</time>
      </trkpt>
      <trkpt lat="47.9087" lon="7.15877">
        <ele>597.44586</ele>
        <time>2014-02-27T09:29:40Z</time>
      </trkpt>
      <trkpt lat="47.90868" lon="7.15871">
        <ele>599.7734</ele>
        <time>2014-02-27T09:29:45Z</time>
      </trkpt>
      <trkpt lat="47.90868" lon="7.15867">
        <ele>599.7734</ele>
        <time>2014-02-27T09:29:50Z</time>
      </trkpt>
      <trkpt lat="47.9087" lon="7.15865">
        <ele>599.7734</ele>
        <time>2014-02-27T09:29:55Z</time>
      </trkpt>
      <trkpt lat="47.90869" lon="7.15863">
        <ele>599.7734</ele>
        <time>2014-02-27T09:30:00Z</time>
      </trkpt>
      <trkpt lat="47.90871" lon="7.15864">
        <ele>599.7734</ele>
        <time>2014-02-27T09:30:05Z</time>
      </trkpt>
      <trkpt lat="47.90873" lon="7.15868">
        <ele>603.4474</ele>
        <time>2014-02-27T09:30:10Z</time>
      </trkpt>
      <trkpt lat="47.90874" lon="7.1587">
        <ele>603.4474</ele>
        <time>2014-02-27T09:30:15Z</time>
      </trkpt>
      <trkpt lat="47.90878" lon="7.15875">
        <ele>603.4474</ele>
        <time>2014-02-27T09:30:20Z</time>
      </trkpt>
      <trkpt lat="47.90883" lon="7.15873">
        <ele>606.20087</ele>
        <time>2014-02-27T09:30:25Z</time>
      </trkpt>
      <trkpt lat="47.90887" lon="7.15876">
        <ele>606.20087</ele>
        <time>2014-02-27T09:30:30Z</time>
      </trkpt>
      <trkpt lat="47.90888" lon="7.1588">
        <ele>606.20087</ele>
        <time>2014-02-27T09:30:35Z</time>
      </trkpt>
      <trkpt lat="47.90891" lon="7.15879">
        <ele>608.46484</ele>
        <time>2014-02-27T09:30:40Z</time>
      </trkpt>
      <trkpt lat="47.90897" lon="7.15882">
        <ele>608.46484</ele>
        <time>2014-02-27T09:30:45Z</time>
      </trkpt>
      <trkpt lat="47.90901" lon="7.15883">
        <ele>610.3752</ele>
        <time>2014-02-27T09:30:50Z</time>
      </trkpt>
      <trkpt lat="47.90904" lon="7.15886">
        <ele>610.3752</ele>
        <time>2014-02-27T09:30:55Z</time>
      </trkpt>
      <trkpt lat="47.90907" lon="7.15889">
        <ele>610.3752</ele>
        <time>2014-02-27T09:31:00Z</time>
      </trkpt>
      <trkpt lat="47.90904" lon="7.15899">
        <ele>612.3775</ele>
        <time>2014-02-27T09:31:05Z</time>
      </trkpt>
      <trkpt lat="47.9091" lon="7.15901">
        <ele>612.3775</ele>
        <time>2014-02-27T09:31:10Z</time>
      </trkpt>
      <trkpt lat="47.90912" lon="7.15905">
        <ele>612.3775</ele>
        <time>2014-02-27T09:31:15Z</time>
      </trkpt>
      <trkpt lat="47.90914" lon="7.15908">
        <ele>614.81067</ele>
        <time>2014-02-27T09:31:20Z</time>
      </trkpt>
      <trkpt lat="47.90916" lon="7.1591">
        <ele>614.81067</ele>
        <time>2014-02-27T09:31:25Z</time>
      </trkpt>
      <trkpt lat="47.90918" lon="7.15909">
        <ele>614.81067</ele>
        <time>2014-02-27T09:31:30Z</time>
      </trkpt>
      <trkpt lat="47.90921" lon="7.15916">
        <ele>616.5521</ele>
        <time>2014-02-27T09:31:35Z</time>
      </trkpt>
      <trkpt lat="47.90926" lon="7.15922">
        <ele>616.5521</ele>
        <time>2014-02-27T09:31:40Z</time>
      </trkpt>
      <trkpt lat="47.90929" lon="7.15931">
        <ele>618.5903</ele>
        <time>2014-02-27T09:31:45Z</time>
      </trkpt>
      <trkpt lat="47.90929" lon="7.15938">
        <ele>618.5903</ele>
        <time>2014-02-27T09:31:50Z</time>
      </trkpt>
      <trkpt lat="47.90933" lon="7.15941">
        <ele>620.7651</ele>
        <time>2014-02-27T09:31:55Z</time>
      </trkpt>
      <trkpt lat="47.90936" lon="7.15945">
        <ele>620.7651</ele>
        <time>2014-02-27T09:32:00Z</time>
      </trkpt>
      <trkpt lat="47.90939" lon="7.15945">
        <ele>620.7651</ele>
        <time>2014-02-27T09:32:05Z</time>
      </trkpt>
      <trkpt lat="47.90942" lon="7.15948">
        <ele>622.9584</ele>
        <time>2014-02-27T09:32:10Z</time>
      </trkpt>
      <trkpt lat="47.90941" lon="7.15956">
        <ele>622.9584</ele>
        <time>2014-02-27T09:32:15Z</time>
      </trkpt>
      <trkpt lat="47.90948" lon="7.15961">
        <ele>625.61865</ele>
        <time>2014-02-27T09:32:20Z</time>
      </trkpt>
      <trkpt lat="47.90952" lon="7.15965">
        <ele>625.61865</ele>
        <time>2014-02-27T09:32:25Z</time>
      </trkpt>
      <trkpt lat="47.90957" lon="7.15964">
        <ele>628.1341</ele>
        <time>2014-02-27T09:32:30Z</time>
      </trkpt>
      <trkpt lat="47.90959" lon="7.15968">
        <ele>628.1341</ele>
        <time>2014-02-27T09:32:35Z</time>
      </trkpt>
      <trkpt lat="47.90963" lon="7.1597">
        <ele>628.1341</ele>
        <time>2014-02-27T09:32:40Z</time>
      </trkpt>
      <trkpt lat="47.90966" lon="7.15974">
        <ele>630.0491</ele>
        <time>2014-02-27T09:32:45Z</time>
      </trkpt>
      <trkpt lat="47.90971" lon="7.15975">
        <ele>630.0491</ele>
        <time>2014-02-27T09:32:50Z</time>
      </trkpt>
      <trkpt lat="47.90974" lon="7.15974">
        <ele>630.0491</ele>
        <time>2014-02-27T09:32:55Z</time>
      </trkpt>
      <trkpt lat="47.90974" lon="7.15972">
        <ele>632.4145</ele>
        <time>2014-02-27T09:33:00Z</time>
      </trkpt>
      <trkpt lat="47.90974" lon="7.15968">
        <ele>632.4145</ele>
        <time>2014-02-27T09:33:05Z</time>
      </trkpt>
      <trkpt lat="47.90972" lon="7.15965">
        <ele>632.4145</ele>
        <time>2014-02-27T09:33:10Z</time>
      </trkpt>
      <trkpt lat="47.90971" lon="7.15959">
        <ele>634.8335</ele>
        <time>2014-02-27T09:33:15Z</time>
      </trkpt>
      <trkpt lat="47.90969" lon="7.15953">
        <ele>634.8335</ele>
        <time>2014-02-27T09:33:20Z</time>
      </trkpt>
      <trkpt lat="47.90967" lon="7.15954">
        <ele>634.8335</ele>
        <time>2014-02-27T09:33:25Z</time>
      </trkpt>
      <trkpt lat="47.9097" lon="7.15956">
        <ele>637.1508</ele>
        <time>2014-02-27T09:33:30Z</time>
      </trkpt>
      <trkpt lat="47.90973" lon="7.15959">
        <ele>637.1508</ele>
        <time>2014-02-27T09:33:35Z</time>
      </trkpt>
      <trkpt lat="47.90974" lon="7.15965">
        <ele>637.1508</ele>
        <time>2014-02-27T09:33:40Z</time>
      </trkpt>
      <trkpt lat="47.90976" lon="7.1597">
        <ele>639.31384</ele>
        <time>2014-02-27T09:33:45Z</time>
      </trkpt>
      <trkpt lat="47.90981" lon="7.15976">
        <ele>639.31384</ele>
        <time>2014-02-27T09:33:50Z</time>
      </trkpt>
      <trkpt lat="47.90985" lon="7.15979">
        <ele>641.34906</ele>
        <time>2014-02-27T09:33:55Z</time>
      </trkpt>
      <trkpt lat="47.90986" lon="7.15976">
        <ele>641.34906</ele>
        <time>2014-02-27T09:34:00Z</time>
      </trkpt>
      <trkpt lat="47.90984" lon="7.15973">
        <ele>641.34906</ele>
        <time>2014-02-27T09:34:05Z</time>
      </trkpt>
      <trkpt lat="47.90985" lon="7.15964">
        <ele>642.83765</ele>
        <time>2014-02-27T09:34:10Z</time>
      </trkpt>
      <trkpt lat="47.90988" lon="7.15952">
        <ele>642.83765</ele>
        <time>2014-02-27T09:34:15Z</time>
      </trkpt>
      <trkpt lat="47.90987" lon="7.15947">
        <ele>644.19354</ele>
        <time>2014-02-27T09:34:20Z</time>
      </trkpt>
      <trkpt lat="47.90989" lon="7.15943">
        <ele>644.19354</ele>
        <time>2014-02-27T09:34:25Z</time>
      </trkpt>
      <trkpt lat="47.90989" lon="7.1594">
        <ele>644.19354</ele>
        <time>2014-02-27T09:34:30Z</time>
      </trkpt>
      <trkpt lat="47.90989" lon="7.15934">
        <ele>645.79663</ele>
        <time>2014-02-27T09:34:35Z</time>
      </trkpt>
      <trkpt lat="47.90988" lon="7.15932">
        <ele>645.79663</ele>
        <time>2014-02-27T09:34:40Z</time>
      </trkpt>
      <trkpt lat="47.90985" lon="7.15927">
        <ele>645.79663</ele>
        <time>2014-02-27T09:34:45Z</time>
      </trkpt>
      <trkpt lat="47.90987" lon="7.15923">
        <ele>647.4808</ele>
        <time>2014-02-27T09:34:50Z</time>
      </trkpt>
      <trkpt lat="47.90988" lon="7.15922">
        <ele>647.4808</ele>
        <time>2014-02-27T09:34:55Z</time>
      </trkpt>
      <trkpt lat="47.90987" lon="7.15924">
        <ele>647.4808</ele>
        <time>2014-02-27T09:35:00Z</time>
      </trkpt>
      <trkpt lat="47.90992" lon="7.15912">
        <ele>649.5036</ele>
        <time>2014-02-27T09:35:05Z</time>
      </trkpt>
      <trkpt lat="47.90997" lon="7.15903">
        <ele>649.5036</ele>
        <time>2014-02-27T09:35:10Z</time>
      </trkpt>
      <trkpt lat="47.90998" lon="7.15892">
        <ele>652.1154</ele>
        <time>2014-02-27T09:35:15Z</time>
      </trkpt>
      <trkpt lat="47.91003" lon="7.15887">
        <ele>652.1154</ele>
        <time>2014-02-27T09:35:20Z</time>
      </trkpt>
      <trkpt lat="47.91007" lon="7.15887">
        <ele>654.9176</ele>
        <time>2014-02-27T09:35:25Z</time>
      </trkpt>
      <trkpt lat="47.91012" lon="7.15885">
        <ele>654.9176</ele>
        <time>2014-02-27T09:35:30Z</time>
      </trkpt>
      <trkpt lat="47.91017" lon="7.15883">
        <ele>657.77637</ele>
        <time>2014-02-27T09:35:35Z</time>
      </trkpt>
      <trkpt lat="47.91019" lon="7.15888">
        <ele>657.77637</ele>
        <time>2014-02-27T09:35:40Z</time>
      </trkpt>
      <trkpt lat="47.9102" lon="7.15886">
        <ele>657.77637</ele>
        <time>2014-02-27T09:35:45Z</time>
      </trkpt>
      <trkpt lat="47.91021" lon="7.15885">
        <ele>657.77637</ele>
        <time>2014-02-27T09:35:50Z</time>
      </trkpt>
      <trkpt lat="47.91022" lon="7.15883">
        <ele>657.77637</ele>
        <time>2014-02-27T09:35:55Z</time>
      </trkpt>
      <trkpt lat="47.91022" lon="7.15883">
        <ele>657.77637</ele>
        <time>2014-02-27T09:36:00Z</time>
      </trkpt>
      <trkpt lat="47.91023" lon="7.15883">
        <ele>661.194</ele>
        <time>2014-02-27T09:36:05Z</time>
      </trkpt>
      <trkpt lat="47.91025" lon="7.15883">
        <ele>661.194</ele>
        <time>2014-02-27T09:36:10Z</time>
      </trkpt>
      <trkpt lat="47.91028" lon="7.15879">
        <ele>661.194</ele>
        <time>2014-02-27T09:36:15Z</time>
      </trkpt>
      <trkpt lat="47.91029" lon="7.1588">
        <ele>661.194</ele>
        <time>2014-02-27T09:36:20Z</time>
      </trkpt>
      <trkpt lat="47.91029" lon="7.15871">
        <ele>664.33905</ele>
        <time>2014-02-27T09:36:25Z</time>
      </trkpt>
      <trkpt lat="47.91029" lon="7.15864">
        <ele>664.33905</ele>
        <time>2014-02-27T09:36:30Z</time>
      </trkpt>
      <trkpt lat="47.91029" lon="7.15864">
        <ele>664.33905</ele>
        <time>2014-02-27T09:36:35Z</time>
      </trkpt>
      <trkpt lat="47.91026" lon="7.15845">
        <ele>666.83813</ele>
        <time>2014-02-27T09:36:40Z</time>
      </trkpt>
      <trkpt lat="47.91022" lon="7.15834">
        <ele>666.83813</ele>
        <time>2014-02-27T09:36:45Z</time>
      </trkpt>
      <trkpt lat="47.91023" lon="7.15821">
        <ele>668.3775</ele>
        <time>2014-02-27T09:36:50Z</time>
      </trkpt>
      <trkpt lat="47.91025" lon="7.15809">
        <ele>668.3775</ele>
        <time>2014-02-27T09:36:55Z</time>
      </trkpt>
      <trkpt lat="47.91021" lon="7.15806">
        <ele>669.61053</ele>
        <time>2014-02-27T09:37:00Z</time>
      </trkpt>
      <trkpt lat="47.91018" lon="7.15802">
        <ele>669.61053</ele>
        <time>2014-02-27T09:37:05Z</time>
      </trkpt>
      <trkpt lat="47.91016" lon="7.15794">
        <ele>670.69275</ele>
        <time>2014-02-27T09:37:10Z</time>
      </trkpt>
      <trkpt lat="47.91014" lon="7.15788">
        <ele>670.69275</ele>
        <time>2014-02-27T09:37:15Z</time>
      </trkpt>
      <trkpt lat="47.9101" lon="7.15784">
        <ele>670.69275</ele>
        <time>2014-02-27T09:37:20Z</time>
      </trkpt>
      <trkpt lat="47.91009" lon="7.15774">
        <ele>670.66986</ele>
        <time>2014-02-27T09:37:25Z</time>
      </trkpt>
      <trkpt lat="47.91008" lon="7.15768">
        <ele>670.66986</ele>
        <time>2014-02-27T09:37:30Z</time>
      </trkpt>
      <trkpt lat="47.91006" lon="7.15762">
        <ele>670.66986</ele>
        <time>2014-02-27T09:37:35Z</time>
      </trkpt>
      <trkpt lat="47.91002" lon="7.1576">
        <ele>671.0314</ele>
        <time>2014-02-27T09:37:40Z</time>
      </trkpt>
      <trkpt lat="47.90999" lon="7.15758">
        <ele>671.0314</ele>
        <time>2014-02-27T09:37:45Z</time>
      </trkpt>
      <trkpt lat="47.90998" lon="7.15752">
        <ele>671.0314</ele>
        <time>2014-02-27T09:37:50Z</time>
      </trkpt>
      <trkpt lat="47.90999" lon="7.15746">
        <ele>672.5325</ele>
        <time>2014-02-27T09:37:55Z</time>
      </trkpt>
      <trkpt lat="47.90999" lon="7.15742">
        <ele>672.5325</ele>
        <time>2014-02-27T09:38:00Z</time>
      </trkpt>
      <trkpt lat="47.90997" lon="7.15742">
        <ele>672.5325</ele>
        <time>2014-02-27T09:38:05Z</time>
      </trkpt>
      <trkpt lat="47.90997" lon="7.15741">
        <ele>672.5325</ele>
        <time>2014-02-27T09:38:10Z</time>
      </trkpt>
      <trkpt lat="47.90993" lon="7.15735">
        <ele>674.3104</ele>
        <time>2014-02-27T09:38:15Z</time>
      </trkpt>
      <trkpt lat="47.90988" lon="7.15731">
        <ele>674.3104</ele>
        <time>2014-02-27T09:38:20Z</time>
      </trkpt>
      <trkpt lat="47.90985" lon="7.15727">
        <ele>676.38873</ele>
        <time>2014-02-27T09:38:25Z</time>
      </trkpt>
      <trkpt lat="47.90983" lon="7.15719">
        <ele>676.38873</ele>
        <time>2014-02-27T09:38:30Z</time>
      </trkpt>
      <trkpt lat="47.90983" lon="7.15712">
        <ele>678.18274</ele>
        <time>2014-02-27T09:38:35Z</time>
      </trkpt>
      <trkpt lat="47.90982" lon="7.15709">
        <ele>678.18274</ele>
        <time>2014-02-27T09:38:40Z</time>
      </trkpt>
      <trkpt lat="47.90981" lon="7.157">
        <ele>678.18274</ele>
        <time>2014-02-27T09:38:45Z</time>
      </trkpt>
      <trkpt lat="47.90978" lon="7.15697">
        <ele>679.61334</ele>
        <time>2014-02-27T09:38:50Z</time>
      </trkpt>
      <trkpt lat="47.90977" lon="7.15691">
        <ele>679.61334</ele>
        <time>2014-02-27T09:38:55Z</time>
      </trkpt>
      <trkpt lat="47.90977" lon="7.15686">
        <ele>679.61334</ele>
        <time>2014-02-27T09:39:00Z</time>
      </trkpt>
      <trkpt lat="47.90978" lon="7.15677">
        <ele>681.08405</ele>
        <time>2014-02-27T09:39:06Z</time>
      </trkpt>
      <trkpt lat="47.90978" lon="7.15669">
        <ele>681.08405</ele>
        <time>2014-02-27T09:39:10Z</time>
      </trkpt>
      <trkpt lat="47.90975" lon="7.15664">
        <ele>682.9541</ele>
        <time>2014-02-27T09:39:15Z</time>
      </trkpt>
      <trkpt lat="47.90974" lon="7.15659">
        <ele>682.9541</ele>
        <time>2014-02-27T09:39:20Z</time>
      </trkpt>
      <trkpt lat="47.90975" lon="7.15652">
        <ele>682.9541</ele>
        <time>2014-02-27T09:39:25Z</time>
      </trkpt>
      <trkpt lat="47.90973" lon="7.15646">
        <ele>684.87744</ele>
        <time>2014-02-27T09:39:30Z</time>
      </trkpt>
      <trkpt lat="47.90971" lon="7.15643">
        <ele>684.87744</ele>
        <time>2014-02-27T09:39:35Z</time>
      </trkpt>
      <trkpt lat="47.90967" lon="7.15641">
        <ele>684.87744</ele>
        <time>2014-02-27T09:39:40Z</time>
      </trkpt>
      <trkpt lat="47.90965" lon="7.15633">
        <ele>686.8939</ele>
        <time>2014-02-27T09:39:45Z</time>
      </trkpt>
      <trkpt lat="47.90965" lon="7.15624">
        <ele>686.8939</ele>
        <time>2014-02-27T09:39:50Z</time>
      </trkpt>
      <trkpt lat="47.90965" lon="7.15624">
        <ele>686.8939</ele>
        <time>2014-02-27T09:39:55Z</time>
      </trkpt>
      <trkpt lat="47.90965" lon="7.15618">
        <ele>690.8711</ele>
        <time>2014-02-27T09:40:00Z</time>
      </trkpt>
      <trkpt lat="47.90963" lon="7.15613">
        <ele>690.8711</ele>
        <time>2014-02-27T09:40:05Z</time>
      </trkpt>
      <trkpt lat="47.90962" lon="7.15612">
        <ele>690.8711</ele>
        <time>2014-02-27T09:40:10Z</time>
      </trkpt>
      <trkpt lat="47.90961" lon="7.15608">
        <ele>690.8711</ele>
        <time>2014-02-27T09:40:15Z</time>
      </trkpt>
      <trkpt lat="47.90957" lon="7.15602">
        <ele>694.56903</ele>
        <time>2014-02-27T09:40:20Z</time>
      </trkpt>
      <trkpt lat="47.90954" lon="7.15596">
        <ele>694.56903</ele>
        <time>2014-02-27T09:40:25Z</time>
      </trkpt>
      <trkpt lat="47.90952" lon="7.15591">
        <ele>694.56903</ele>
        <time>2014-02-27T09:40:30Z</time>
      </trkpt>
      <trkpt lat="47.90954" lon="7.15584">
        <ele>697.7153</ele>
        <time>2014-02-27T09:40:35Z</time>
      </trkpt>
      <trkpt lat="47.90953" lon="7.15574">
        <ele>697.7153</ele>
        <time>2014-02-27T09:40:40Z</time>
      </trkpt>
      <trkpt lat="47.90952" lon="7.15572">
        <ele>697.7153</ele>
        <time>2014-02-27T09:40:45Z</time>
      </trkpt>
      <trkpt lat="47.90952" lon="7.15571">
        <ele>700.44824</ele>
        <time>2014-02-27T09:40:50Z</time>
      </trkpt>
      <trkpt lat="47.90952" lon="7.15567">
        <ele>700.44824</ele>
        <time>2014-02-27T09:40:55Z</time>
      </trkpt>
      <trkpt lat="47.9095" lon="7.15562">
        <ele>700.44824</ele>
        <time>2014-02-27T09:41:00Z</time>
      </trkpt>
      <trkpt lat="47.90946" lon="7.15558">
        <ele>702.9982</ele>
        <time>2014-02-27T09:41:05Z</time>
      </trkpt>
      <trkpt lat="47.90943" lon="7.1555">
        <ele>702.9982</ele>
        <time>2014-02-27T09:41:10Z</time>
      </trkpt>
      <trkpt lat="47.90945" lon="7.15543">
        <ele>705.3918</ele>
        <time>2014-02-27T09:41:15Z</time>
      </trkpt>
      <trkpt lat="47.90942" lon="7.15541">
        <ele>705.3918</ele>
        <time>2014-02-27T09:41:20Z</time>
      </trkpt>
      <trkpt lat="47.90941" lon="7.15533">
        <ele>705.3918</ele>
        <time>2014-02-27T09:41:25Z</time>
      </trkpt>
      <trkpt lat="47.90939" lon="7.15531">
        <ele>708.5338</ele>
        <time>2014-02-27T09:41:30Z</time>
      </trkpt>
      <trkpt lat="47.90939" lon="7.1553">
        <ele>708.5338</ele>
        <time>2014-02-27T09:41:35Z</time>
      </trkpt>
      <trkpt lat="47.90939" lon="7.15529">
        <ele>708.5338</ele>
        <time>2014-02-27T09:41:40Z</time>
      </trkpt>
      <trkpt lat="47.90938" lon="7.15525">
        <ele>708.5338</ele>
        <time>2014-02-27T09:41:45Z</time>
      </trkpt>
      <trkpt lat="47.90936" lon="7.15521">
        <ele>708.5338</ele>
        <time>2014-02-27T09:41:50Z</time>
      </trkpt>
      <trkpt lat="47.90937" lon="7.15516">
        <ele>711.602</ele>
        <time>2014-02-27T09:41:55Z</time>
      </trkpt>
      <trkpt lat="47.90934" lon="7.15514">
        <ele>711.602</ele>
        <time>2014-02-27T09:42:00Z</time>
      </trkpt>
      <trkpt lat="47.90931" lon="7.15515">
        <ele>711.602</ele>
        <time>2014-02-27T09:42:05Z</time>
      </trkpt>
      <trkpt lat="47.90931" lon="7.1551">
        <ele>714.61346</ele>
        <time>2014-02-27T09:42:10Z</time>
      </trkpt>
      <trkpt lat="47.90931" lon="7.15504">
        <ele>714.61346</ele>
        <time>2014-02-27T09:42:15Z</time>
      </trkpt>
      <trkpt lat="47.90932" lon="7.15501">
        <ele>714.61346</ele>
        <time>2014-02-27T09:42:20Z</time>
      </trkpt>
      <trkpt lat="47.90932" lon="7.15496">
        <ele>717.48334</ele>
        <time>2014-02-27T09:42:25Z</time>
      </trkpt>
      <trkpt lat="47.90932" lon="7.15489">
        <ele>717.48334</ele>
        <time>2014-02-27T09:42:30Z</time>
      </trkpt>
      <trkpt lat="47.90933" lon="7.15485">
        <ele>717.48334</ele>
        <time>2014-02-27T09:42:35Z</time>
      </trkpt>
      <trkpt lat="47.90934" lon="7.15479">
        <ele>720.5951</ele>
        <time>2014-02-27T09:42:40Z</time>
      </trkpt>
      <trkpt lat="47.90935" lon="7.15475">
        <ele>720.5951</ele>
        <time>2014-02-27T09:42:45Z</time>
      </trkpt>
      <trkpt lat="47.90935" lon="7.15471">
        <ele>720.5951</ele>
        <time>2014-02-27T09:42:50Z</time>
      </trkpt>
      <trkpt lat="47.90934" lon="7.15466">
        <ele>720.5951</ele>
        <time>2014-02-27T09:42:55Z</time>
      </trkpt>
      <trkpt lat="47.90933" lon="7.15464">
        <ele>724.70715</ele>
        <time>2014-02-27T09:43:00Z</time>
      </trkpt>
      <trkpt lat="47.90933" lon="7.15462">
        <ele>724.70715</ele>
        <time>2014-02-27T09:43:05Z</time>
      </trkpt>
      <trkpt lat="47.90933" lon="7.15459">
        <ele>724.70715</ele>
        <time>2014-02-27T09:43:10Z</time>
      </trkpt>
      <trkpt lat="47.90933" lon="7.15458">
        <ele>724.70715</ele>
        <time>2014-02-27T09:43:15Z</time>
      </trkpt>
      <trkpt lat="47.90933" lon="7.15455">
        <ele>724.70715</ele>
        <time>2014-02-27T09:43:20Z</time>
      </trkpt>
      <trkpt lat="47.90934" lon="7.15451">
        <ele>724.70715</ele>
        <time>2014-02-27T09:43:25Z</time>
      </trkpt>
      <trkpt lat="47.90934" lon="7.15448">
        <ele>729.3078</ele>
        <time>2014-02-27T09:43:30Z</time>
      </trkpt>
      <trkpt lat="47.90931" lon="7.15444">
        <ele>729.3078</ele>
        <time>2014-02-27T09:43:35Z</time>
      </trkpt>
      <trkpt lat="47.9093" lon="7.15439">
        <ele>729.3078</ele>
        <time>2014-02-27T09:43:40Z</time>
      </trkpt>
      <trkpt lat="47.9093" lon="7.15432">
        <ele>732.34937</ele>
        <time>2014-02-27T09:43:45Z</time>
      </trkpt>
      <trkpt lat="47.90928" lon="7.15433">
        <ele>732.34937</ele>
        <time>2014-02-27T09:43:50Z</time>
      </trkpt>
      <trkpt lat="47.90929" lon="7.15423">
        <ele>732.34937</ele>
        <time>2014-02-27T09:43:55Z</time>
      </trkpt>
      <trkpt lat="47.90929" lon="7.15413">
        <ele>734.8819</ele>
        <time>2014-02-27T09:44:00Z</time>
      </trkpt>
      <trkpt lat="47.90927" lon="7.15411">
        <ele>734.8819</ele>
        <time>2014-02-27T09:44:05Z</time>
      </trkpt>
      <trkpt lat="47.90927" lon="7.15404">
        <ele>734.8819</ele>
        <time>2014-02-27T09:44:10Z</time>
      </trkpt>
      <trkpt lat="47.90928" lon="7.15396">
        <ele>737.5767</ele>
        <time>2014-02-27T09:44:15Z</time>
      </trkpt>
      <trkpt lat="47.90933" lon="7.15382">
        <ele>739.9303</ele>
        <time>2014-02-27T09:44:20Z</time>
      </trkpt>
      <trkpt lat="47.90932" lon="7.15381">
        <ele>739.9303</ele>
        <time>2014-02-27T09:44:25Z</time>
      </trkpt>
      <trkpt lat="47.90932" lon="7.15379">
        <ele>739.9303</ele>
        <time>2014-02-27T09:44:30Z</time>
      </trkpt>
      <trkpt lat="47.90927" lon="7.15384">
        <ele>739.9303</ele>
        <time>2014-02-27T09:44:35Z</time>
      </trkpt>
      <trkpt lat="47.90925" lon="7.15378">
        <ele>742.3283</ele>
        <time>2014-02-27T09:44:40Z</time>
      </trkpt>
      <trkpt lat="47.90921" lon="7.15376">
        <ele>742.3283</ele>
        <time>2014-02-27T09:44:45Z</time>
      </trkpt>
      <trkpt lat="47.9092" lon="7.15364">
        <ele>744.9547</ele>
        <time>2014-02-27T09:44:50Z</time>
      </trkpt>
      <trkpt lat="47.90923" lon="7.15358">
        <ele>744.9547</ele>
        <time>2014-02-27T09:44:55Z</time>
      </trkpt>
      <trkpt lat="47.90924" lon="7.15357">
        <ele>744.9547</ele>
        <time>2014-02-27T09:45:00Z</time>
      </trkpt>
      <trkpt lat="47.90924" lon="7.15357">
        <ele>744.9547</ele>
        <time>2014-02-27T09:45:05Z</time>
      </trkpt>
      <trkpt lat="47.90924" lon="7.15357">
        <ele>744.9547</ele>
        <time>2014-02-27T09:45:10Z</time>
      </trkpt>
      <trkpt lat="47.90923" lon="7.15359">
        <ele>744.9547</ele>
        <time>2014-02-27T09:45:15Z</time>
      </trkpt>
      <trkpt lat="47.90924" lon="7.15358">
        <ele>744.9547</ele>
        <time>2014-02-27T09:45:20Z</time>
      </trkpt>
      <trkpt lat="47.90924" lon="7.15356">
        <ele>747.3882</ele>
        <time>2014-02-27T09:45:25Z</time>
      </trkpt>
      <trkpt lat="47.90924" lon="7.15342">
        <ele>749.6429</ele>
        <time>2014-02-27T09:45:30Z</time>
      </trkpt>
      <trkpt lat="47.90925" lon="7.15332">
        <ele>749.6429</ele>
        <time>2014-02-27T09:45:35Z</time>
      </trkpt>
      <trkpt lat="47.90924" lon="7.15329">
        <ele>752.03503</ele>
        <time>2014-02-27T09:45:40Z</time>
      </trkpt>
      <trkpt lat="47.90924" lon="7.15326">
        <ele>752.03503</ele>
        <time>2014-02-27T09:45:45Z</time>
      </trkpt>
      <trkpt lat="47.90918" lon="7.15312">
        <ele>754.51154</ele>
        <time>2014-02-27T09:45:50Z</time>
      </trkpt>
      <trkpt lat="47.90917" lon="7.15303">
        <ele>754.51154</ele>
        <time>2014-02-27T09:45:55Z</time>
      </trkpt>
      <trkpt lat="47.90916" lon="7.15303">
        <ele>754.51154</ele>
        <time>2014-02-27T09:46:00Z</time>
      </trkpt>
      <trkpt lat="47.90915" lon="7.15302">
        <ele>754.51154</ele>
        <time>2014-02-27T09:46:05Z</time>
      </trkpt>
      <trkpt lat="47.90915" lon="7.15302">
        <ele>754.51154</ele>
        <time>2014-02-27T09:46:10Z</time>
      </trkpt>
      <trkpt lat="47.90915" lon="7.15302">
        <ele>754.51154</ele>
        <time>2014-02-27T09:46:15Z</time>
      </trkpt>
      <trkpt lat="47.90915" lon="7.15302">
        <ele>754.51154</ele>
        <time>2014-02-27T09:46:20Z</time>
      </trkpt>
      <trkpt lat="47.90915" lon="7.15302">
        <ele>754.51154</ele>
        <time>2014-02-27T09:46:25Z</time>
      </trkpt>
      <trkpt lat="47.90915" lon="7.15302">
        <ele>754.51154</ele>
        <time>2014-02-27T09:46:30Z</time>
      </trkpt>
      <trkpt lat="47.90915" lon="7.15301">
        <ele>754.51154</ele>
        <time>2014-02-27T09:46:35Z</time>
      </trkpt>
      <trkpt lat="47.90914" lon="7.15301">
        <ele>757.3543</ele>
        <time>2014-02-27T09:46:40Z</time>
      </trkpt>
      <trkpt lat="47.90901" lon="7.15298">
        <ele>760.0451</ele>
        <time>2014-02-27T09:46:45Z</time>
      </trkpt>
      <trkpt lat="47.90892" lon="7.15283">
        <ele>763.14246</ele>
        <time>2014-02-27T09:46:50Z</time>
      </trkpt>
      <trkpt lat="47.90889" lon="7.15277">
        <ele>763.14246</ele>
        <time>2014-02-27T09:46:55Z</time>
      </trkpt>
      <trkpt lat="47.90884" lon="7.15278">
        <ele>766.21094</ele>
        <time>2014-02-27T09:47:00Z</time>
      </trkpt>
      <trkpt lat="47.90884" lon="7.15274">
        <ele>766.21094</ele>
        <time>2014-02-27T09:47:05Z</time>
      </trkpt>
      <trkpt lat="47.90883" lon="7.15271">
        <ele>766.21094</ele>
        <time>2014-02-27T09:47:10Z</time>
      </trkpt>
      <trkpt lat="47.90883" lon="7.15271">
        <ele>766.21094</ele>
        <time>2014-02-27T09:47:15Z</time>
      </trkpt>
      <trkpt lat="47.90877" lon="7.15262">
        <ele>768.4583</ele>
        <time>2014-02-27T09:47:20Z</time>
      </trkpt>
      <trkpt lat="47.90876" lon="7.15252">
        <ele>768.4583</ele>
        <time>2014-02-27T09:47:25Z</time>
      </trkpt>
      <trkpt lat="47.9087" lon="7.1526">
        <ele>771.45935</ele>
        <time>2014-02-27T09:47:30Z</time>
      </trkpt>
      <trkpt lat="47.90868" lon="7.15256">
        <ele>771.45935</ele>
        <time>2014-02-27T09:47:35Z</time>
      </trkpt>
      <trkpt lat="47.90868" lon="7.15252">
        <ele>771.45935</ele>
        <time>2014-02-27T09:47:40Z</time>
      </trkpt>
      <trkpt lat="47.90865" lon="7.15245">
        <ele>773.2401</ele>
        <time>2014-02-27T09:47:45Z</time>
      </trkpt>
      <trkpt lat="47.90863" lon="7.1524">
        <ele>773.2401</ele>
        <time>2014-02-27T09:47:50Z</time>
      </trkpt>
      <trkpt lat="47.90863" lon="7.15233">
        <ele>773.2401</ele>
        <time>2014-02-27T09:47:55Z</time>
      </trkpt>
      <trkpt lat="47.90859" lon="7.15232">
        <ele>773.8638</ele>
        <time>2014-02-27T09:48:00Z</time>
      </trkpt>
      <trkpt lat="47.90854" lon="7.15232">
        <ele>773.8638</ele>
        <time>2014-02-27T09:48:05Z</time>
      </trkpt>
      <trkpt lat="47.9085" lon="7.15229">
        <ele>774.5882</ele>
        <time>2014-02-27T09:48:10Z</time>
      </trkpt>
      <trkpt lat="47.90844" lon="7.15232">
        <ele>774.5882</ele>
        <time>2014-02-27T09:48:15Z</time>
      </trkpt>
      <trkpt lat="47.90841" lon="7.15228">
        <ele>776.4922</ele>
        <time>2014-02-27T09:48:20Z</time>
      </trkpt>
      <trkpt lat="47.90837" lon="7.15227">
        <ele>776.4922</ele>
        <time>2014-02-27T09:48:25Z</time>
      </trkpt>
      <trkpt lat="47.90835" lon="7.15226">
        <ele>776.4922</ele>
        <time>2014-02-27T09:48:30Z</time>
      </trkpt>
      <trkpt lat="47.9083" lon="7.15222">
        <ele>778.2513</ele>
        <time>2014-02-27T09:48:35Z</time>
      </trkpt>
      <trkpt lat="47.90829" lon="7.15216">
        <ele>778.2513</ele>
        <time>2014-02-27T09:48:40Z</time>
      </trkpt>
      <trkpt lat="47.90827" lon="7.15213">
        <ele>778.2513</ele>
        <time>2014-02-27T09:48:45Z</time>
      </trkpt>
      <trkpt lat="47.90823" lon="7.15214">
        <ele>779.69104</ele>
        <time>2014-02-27T09:48:50Z</time>
      </trkpt>
      <trkpt lat="47.9082" lon="7.15213">
        <ele>779.69104</ele>
        <time>2014-02-27T09:48:55Z</time>
      </trkpt>
      <trkpt lat="47.90818" lon="7.15209">
        <ele>779.69104</ele>
        <time>2014-02-27T09:49:00Z</time>
      </trkpt>
      <trkpt lat="47.90815" lon="7.15207">
        <ele>781.58746</ele>
        <time>2014-02-27T09:49:05Z</time>
      </trkpt>
      <trkpt lat="47.90811" lon="7.15206">
        <ele>781.58746</ele>
        <time>2014-02-27T09:49:10Z</time>
      </trkpt>
      <trkpt lat="47.90807" lon="7.15205">
        <ele>781.58746</ele>
        <time>2014-02-27T09:49:15Z</time>
      </trkpt>
      <trkpt lat="47.90806" lon="7.15196">
        <ele>783.08734</ele>
        <time>2014-02-27T09:49:20Z</time>
      </trkpt>
      <trkpt lat="47.90803" lon="7.15201">
        <ele>783.08734</ele>
        <time>2014-02-27T09:49:25Z</time>
      </trkpt>
      <trkpt lat="47.90802" lon="7.152">
        <ele>783.08734</ele>
        <time>2014-02-27T09:49:30Z</time>
      </trkpt>
      <trkpt lat="47.90801" lon="7.15186">
        <ele>785.0441</ele>
        <time>2014-02-27T09:49:35Z</time>
      </trkpt>
      <trkpt lat="47.90798" lon="7.15178">
        <ele>785.0441</ele>
        <time>2014-02-27T09:49:40Z</time>
      </trkpt>
      <trkpt lat="47.90798" lon="7.15169">
        <ele>787.0656</ele>
        <time>2014-02-27T09:49:45Z</time>
      </trkpt>
      <trkpt lat="47.90799" lon="7.15166">
        <ele>787.0656</ele>
        <time>2014-02-27T09:49:50Z</time>
      </trkpt>
      <trkpt lat="47.90798" lon="7.15161">
        <ele>787.0656</ele>
        <time>2014-02-27T09:49:55Z</time>
      </trkpt>
      <trkpt lat="47.90803" lon="7.15147">
        <ele>789.5519</ele>
        <time>2014-02-27T09:50:00Z</time>
      </trkpt>
      <trkpt lat="47.9081" lon="7.15128">
        <ele>791.1862</ele>
        <time>2014-02-27T09:50:05Z</time>
      </trkpt>
      <trkpt lat="47.90804" lon="7.15126">
        <ele>791.1862</ele>
        <time>2014-02-27T09:50:10Z</time>
      </trkpt>
      <trkpt lat="47.90802" lon="7.1512">
        <ele>791.7886</ele>
        <time>2014-02-27T09:50:15Z</time>
      </trkpt>
      <trkpt lat="47.90797" lon="7.15119">
        <ele>791.7886</ele>
        <time>2014-02-27T09:50:20Z</time>
      </trkpt>
      <trkpt lat="47.90797" lon="7.15111">
        <ele>794.01965</ele>
        <time>2014-02-27T09:50:25Z</time>
      </trkpt>
      <trkpt lat="47.90796" lon="7.15104">
        <ele>794.01965</ele>
        <time>2014-02-27T09:50:30Z</time>
      </trkpt>
      <trkpt lat="47.90796" lon="7.15098">
        <ele>794.01965</ele>
        <time>2014-02-27T09:50:35Z</time>
      </trkpt>
      <trkpt lat="47.90791" lon="7.15089">
        <ele>796.694</ele>
        <time>2014-02-27T09:50:40Z</time>
      </trkpt>
      <trkpt lat="47.90789" lon="7.15082">
        <ele>796.694</ele>
        <time>2014-02-27T09:50:45Z</time>
      </trkpt>
      <trkpt lat="47.90785" lon="7.15077">
        <ele>799.47565</ele>
        <time>2014-02-27T09:50:50Z</time>
      </trkpt>
      <trkpt lat="47.90782" lon="7.1507">
        <ele>799.47565</ele>
        <time>2014-02-27T09:50:55Z</time>
      </trkpt>
      <trkpt lat="47.90779" lon="7.15061">
        <ele>802.38464</ele>
        <time>2014-02-27T09:51:00Z</time>
      </trkpt>
      <trkpt lat="47.90781" lon="7.15053">
        <ele>802.38464</ele>
        <time>2014-02-27T09:51:05Z</time>
      </trkpt>
      <trkpt lat="47.90781" lon="7.15037">
        <ele>804.87695</ele>
        <time>2014-02-27T09:51:10Z</time>
      </trkpt>
      <trkpt lat="47.90782" lon="7.15028">
        <ele>804.87695</ele>
        <time>2014-02-27T09:51:15Z</time>
      </trkpt>
      <trkpt lat="47.90783" lon="7.15025">
        <ele>804.87695</ele>
        <time>2014-02-27T09:51:20Z</time>
      </trkpt>
      <trkpt lat="47.90783" lon="7.15023">
        <ele>806.91077</ele>
        <time>2014-02-27T09:51:25Z</time>
      </trkpt>
      <trkpt lat="47.90783" lon="7.15023">
        <ele>806.91077</ele>
        <time>2014-02-27T09:51:30Z</time>
      </trkpt>
      <trkpt lat="47.90783" lon="7.15023">
        <ele>806.91077</ele>
        <time>2014-02-27T09:51:35Z</time>
      </trkpt>
      <trkpt lat="47.90783" lon="7.15008">
        <ele>808.5065</ele>
        <time>2014-02-27T09:51:40Z</time>
      </trkpt>
      <trkpt lat="47.90784" lon="7.15">
        <ele>808.5065</ele>
        <time>2014-02-27T09:51:45Z</time>
      </trkpt>
      <trkpt lat="47.90778" lon="7.14992">
        <ele>809.90015</ele>
        <time>2014-02-27T09:51:50Z</time>
      </trkpt>
      <trkpt lat="47.90777" lon="7.14972">
        <ele>810.82104</ele>
        <time>2014-02-27T09:51:55Z</time>
      </trkpt>
      <trkpt lat="47.9078" lon="7.14957">
        <ele>812.1006</ele>
        <time>2014-02-27T09:52:00Z</time>
      </trkpt>
      <trkpt lat="47.90785" lon="7.1494">
        <ele>812.67773</ele>
        <time>2014-02-27T09:52:05Z</time>
      </trkpt>
      <trkpt lat="47.90783" lon="7.14932">
        <ele>812.67773</ele>
        <time>2014-02-27T09:52:10Z</time>
      </trkpt>
      <trkpt lat="47.90782" lon="7.14929">
        <ele>812.67773</ele>
        <time>2014-02-27T09:52:15Z</time>
      </trkpt>
      <trkpt lat="47.9078" lon="7.14931">
        <ele>814.468</ele>
        <time>2014-02-27T09:52:20Z</time>
      </trkpt>
      <trkpt lat="47.9078" lon="7.14919">
        <ele>814.468</ele>
        <time>2014-02-27T09:52:25Z</time>
      </trkpt>
      <trkpt lat="47.90781" lon="7.14911">
        <ele>815.25085</ele>
        <time>2014-02-27T09:52:30Z</time>
      </trkpt>
      <trkpt lat="47.90783" lon="7.14902">
        <ele>815.25085</ele>
        <time>2014-02-27T09:52:35Z</time>
      </trkpt>
      <trkpt lat="47.90783" lon="7.14893">
        <ele>815.8249</ele>
        <time>2014-02-27T09:52:40Z</time>
      </trkpt>
      <trkpt lat="47.90784" lon="7.1489">
        <ele>815.8249</ele>
        <time>2014-02-27T09:52:45Z</time>
      </trkpt>
      <trkpt lat="47.90784" lon="7.14888">
        <ele>815.8249</ele>
        <time>2014-02-27T09:52:50Z</time>
      </trkpt>
      <trkpt lat="47.90784" lon="7.14888">
        <ele>815.8249</ele>
        <time>2014-02-27T09:52:55Z</time>
      </trkpt>
      <trkpt lat="47.90785" lon="7.14888">
        <ele>815.8249</ele>
        <time>2014-02-27T09:53:00Z</time>
      </trkpt>
      <trkpt lat="47.9079" lon="7.14863">
        <ele>815.8067</ele>
        <time>2014-02-27T09:53:05Z</time>
      </trkpt>
      <trkpt lat="47.90795" lon="7.14849">
        <ele>815.79364</ele>
        <time>2014-02-27T09:53:10Z</time>
      </trkpt>
      <trkpt lat="47.90796" lon="7.14838">
        <ele>815.79364</ele>
        <time>2014-02-27T09:53:15Z</time>
      </trkpt>
      <trkpt lat="47.908" lon="7.14829">
        <ele>816.0221</ele>
        <time>2014-02-27T09:53:20Z</time>
      </trkpt>
      <trkpt lat="47.90802" lon="7.14822">
        <ele>816.0221</ele>
        <time>2014-02-27T09:53:25Z</time>
      </trkpt>
      <trkpt lat="47.90804" lon="7.14818">
        <ele>816.0221</ele>
        <time>2014-02-27T09:53:30Z</time>
      </trkpt>
      <trkpt lat="47.90805" lon="7.14815">
        <ele>815.7446</ele>
        <time>2014-02-27T09:53:35Z</time>
      </trkpt>
      <trkpt lat="47.90805" lon="7.14814">
        <ele>815.7446</ele>
        <time>2014-02-27T09:53:40Z</time>
      </trkpt>
      <trkpt lat="47.90806" lon="7.14814">
        <ele>815.7446</ele>
        <time>2014-02-27T09:53:45Z</time>
      </trkpt>
      <trkpt lat="47.90808" lon="7.14807">
        <ele>815.7446</ele>
        <time>2014-02-27T09:53:50Z</time>
      </trkpt>
      <trkpt lat="47.90811" lon="7.14801">
        <ele>815.81213</ele>
        <time>2014-02-27T09:53:55Z</time>
      </trkpt>
      <trkpt lat="47.90812" lon="7.14796">
        <ele>815.81213</ele>
        <time>2014-02-27T09:54:00Z</time>
      </trkpt>
      <trkpt lat="47.90813" lon="7.14795">
        <ele>815.81213</ele>
        <time>2014-02-27T09:54:05Z</time>
      </trkpt>
      <trkpt lat="47.90815" lon="7.14789">
        <ele>815.9743</ele>
        <time>2014-02-27T09:54:10Z</time>
      </trkpt>
      <trkpt lat="47.90816" lon="7.14787">
        <ele>815.9743</ele>
        <time>2014-02-27T09:54:15Z</time>
      </trkpt>
      <trkpt lat="47.90819" lon="7.14782">
        <ele>815.9743</ele>
        <time>2014-02-27T09:54:20Z</time>
      </trkpt>
      <trkpt lat="47.90824" lon="7.14778">
        <ele>816.08527</ele>
        <time>2014-02-27T09:54:25Z</time>
      </trkpt>
      <trkpt lat="47.90828" lon="7.14773">
        <ele>816.08527</ele>
        <time>2014-02-27T09:54:30Z</time>
      </trkpt>
      <trkpt lat="47.90831" lon="7.1477">
        <ele>816.34125</ele>
        <time>2014-02-27T09:54:35Z</time>
      </trkpt>
      <trkpt lat="47.90831" lon="7.14777">
        <ele>816.34125</ele>
        <time>2014-02-27T09:54:40Z</time>
      </trkpt>
      <trkpt lat="47.90837" lon="7.1477">
        <ele>817.70184</ele>
        <time>2014-02-27T09:54:45Z</time>
      </trkpt>
      <trkpt lat="47.90842" lon="7.14765">
        <ele>817.70184</ele>
        <time>2014-02-27T09:54:50Z</time>
      </trkpt>
      <trkpt lat="47.90846" lon="7.1476">
        <ele>818.21387</ele>
        <time>2014-02-27T09:54:55Z</time>
      </trkpt>
      <trkpt lat="47.9085" lon="7.14756">
        <ele>818.21387</ele>
        <time>2014-02-27T09:55:00Z</time>
      </trkpt>
      <trkpt lat="47.90855" lon="7.14749">
        <ele>818.51965</ele>
        <time>2014-02-27T09:55:05Z</time>
      </trkpt>
      <trkpt lat="47.90861" lon="7.14746">
        <ele>818.51965</ele>
        <time>2014-02-27T09:55:10Z</time>
      </trkpt>
      <trkpt lat="47.90864" lon="7.14741">
        <ele>818.73944</ele>
        <time>2014-02-27T09:55:15Z</time>
      </trkpt>
      <trkpt lat="47.90866" lon="7.14743">
        <ele>818.73944</ele>
        <time>2014-02-27T09:55:20Z</time>
      </trkpt>
      <trkpt lat="47.90867" lon="7.14741">
        <ele>818.73944</ele>
        <time>2014-02-27T09:55:25Z</time>
      </trkpt>
      <trkpt lat="47.90869" lon="7.14736">
        <ele>818.73944</ele>
        <time>2014-02-27T09:55:30Z</time>
      </trkpt>
      <trkpt lat="47.90872" lon="7.1473">
        <ele>818.6387</ele>
        <time>2014-02-27T09:55:35Z</time>
      </trkpt>
      <trkpt lat="47.90877" lon="7.14728">
        <ele>818.6387</ele>
        <time>2014-02-27T09:55:40Z</time>
      </trkpt>
      <trkpt lat="47.90881" lon="7.14728">
        <ele>818.8943</ele>
        <time>2014-02-27T09:55:45Z</time>
      </trkpt>
      <trkpt lat="47.90888" lon="7.14723">
        <ele>818.8943</ele>
        <time>2014-02-27T09:55:50Z</time>
      </trkpt>
      <trkpt lat="47.90893" lon="7.14723">
        <ele>819.05164</ele>
        <time>2014-02-27T09:55:55Z</time>
      </trkpt>
      <trkpt lat="47.90898" lon="7.14722">
        <ele>819.05164</ele>
        <time>2014-02-27T09:56:00Z</time>
      </trkpt>
      <trkpt lat="47.90902" lon="7.14724">
        <ele>819.42444</ele>
        <time>2014-02-27T09:56:05Z</time>
      </trkpt>
      <trkpt lat="47.90908" lon="7.14724">
        <ele>819.42444</ele>
        <time>2014-02-27T09:56:10Z</time>
      </trkpt>
      <trkpt lat="47.90908" lon="7.14722">
        <ele>819.42444</ele>
        <time>2014-02-27T09:56:15Z</time>
      </trkpt>
      <trkpt lat="47.90906" lon="7.14725">
        <ele>819.9857</ele>
        <time>2014-02-27T09:56:20Z</time>
      </trkpt>
      <trkpt lat="47.90902" lon="7.14723">
        <ele>819.9857</ele>
        <time>2014-02-27T09:56:25Z</time>
      </trkpt>
      <trkpt lat="47.90904" lon="7.14718">
        <ele>819.9857</ele>
        <time>2014-02-27T09:56:30Z</time>
      </trkpt>
      <trkpt lat="47.90903" lon="7.14713">
        <ele>821.6319</ele>
        <time>2014-02-27T09:56:35Z</time>
      </trkpt>
      <trkpt lat="47.90903" lon="7.14708">
        <ele>821.6319</ele>
        <time>2014-02-27T09:56:40Z</time>
      </trkpt>
      <trkpt lat="47.90903" lon="7.14705">
        <ele>821.6319</ele>
        <time>2014-02-27T09:56:45Z</time>
      </trkpt>
      <trkpt lat="47.90903" lon="7.147">
        <ele>821.6319</ele>
        <time>2014-02-27T09:56:50Z</time>
      </trkpt>
      <trkpt lat="47.90898" lon="7.14698">
        <ele>823.7207</ele>
        <time>2014-02-27T09:56:55Z</time>
      </trkpt>
      <trkpt lat="47.90896" lon="7.14693">
        <ele>823.7207</ele>
        <time>2014-02-27T09:57:00Z</time>
      </trkpt>
      <trkpt lat="47.90897" lon="7.14689">
        <ele>823.7207</ele>
        <time>2014-02-27T09:57:05Z</time>
      </trkpt>
      <trkpt lat="47.90898" lon="7.14681">
        <ele>825.9869</ele>
        <time>2014-02-27T09:57:10Z</time>
      </trkpt>
      <trkpt lat="47.90894" lon="7.14682">
        <ele>825.9869</ele>
        <time>2014-02-27T09:57:15Z</time>
      </trkpt>
      <trkpt lat="47.90895" lon="7.14673">
        <ele>828.2418</ele>
        <time>2014-02-27T09:57:20Z</time>
      </trkpt>
      <trkpt lat="47.90895" lon="7.14669">
        <ele>828.2418</ele>
        <time>2014-02-27T09:57:25Z</time>
      </trkpt>
      <trkpt lat="47.90895" lon="7.14669">
        <ele>828.2418</ele>
        <time>2014-02-27T09:57:30Z</time>
      </trkpt>
      <trkpt lat="47.90898" lon="7.14661">
        <ele>830.0946</ele>
        <time>2014-02-27T09:57:35Z</time>
      </trkpt>
      <trkpt lat="47.90901" lon="7.14648">
        <ele>830.0946</ele>
        <time>2014-02-27T09:57:40Z</time>
      </trkpt>
      <trkpt lat="47.90902" lon="7.14636">
        <ele>831.573</ele>
        <time>2014-02-27T09:57:45Z</time>
      </trkpt>
      <trkpt lat="47.90903" lon="7.14627">
        <ele>831.573</ele>
        <time>2014-02-27T09:57:50Z</time>
      </trkpt>
      <trkpt lat="47.90904" lon="7.1462">
        <ele>833.13617</ele>
        <time>2014-02-27T09:57:55Z</time>
      </trkpt>
      <trkpt lat="47.90905" lon="7.14614">
        <ele>833.13617</ele>
        <time>2014-02-27T09:58:00Z</time>
      </trkpt>
      <trkpt lat="47.90906" lon="7.14608">
        <ele>833.13617</ele>
        <time>2014-02-27T09:58:05Z</time>
      </trkpt>
      <trkpt lat="47.90907" lon="7.14602">
        <ele>834.99304</ele>
        <time>2014-02-27T09:58:10Z</time>
      </trkpt>
      <trkpt lat="47.90906" lon="7.14594">
        <ele>834.99304</ele>
        <time>2014-02-27T09:58:15Z</time>
      </trkpt>
      <trkpt lat="47.90905" lon="7.14587">
        <ele>836.7167</ele>
        <time>2014-02-27T09:58:20Z</time>
      </trkpt>
      <trkpt lat="47.90903" lon="7.14579">
        <ele>836.7167</ele>
        <time>2014-02-27T09:58:25Z</time>
      </trkpt>
      <trkpt lat="47.90903" lon="7.14572">
        <ele>838.4306</ele>
        <time>2014-02-27T09:58:30Z</time>
      </trkpt>
      <trkpt lat="47.90904" lon="7.14565">
        <ele>838.4306</ele>
        <time>2014-02-27T09:58:35Z</time>
      </trkpt>
      <trkpt lat="47.90903" lon="7.14557">
        <ele>840.1051</ele>
        <time>2014-02-27T09:58:40Z</time>
      </trkpt>
      <trkpt lat="47.90902" lon="7.1455">
        <ele>840.1051</ele>
        <time>2014-02-27T09:58:45Z</time>
      </trkpt>
      <trkpt lat="47.90901" lon="7.14543">
        <ele>841.77045</ele>
        <time>2014-02-27T09:58:50Z</time>
      </trkpt>
      <trkpt lat="47.909" lon="7.14538">
        <ele>841.77045</ele>
        <time>2014-02-27T09:58:55Z</time>
      </trkpt>
      <trkpt lat="47.90897" lon="7.14532">
        <ele>841.77045</ele>
        <time>2014-02-27T09:59:00Z</time>
      </trkpt>
      <trkpt lat="47.90895" lon="7.14526">
        <ele>843.0079</ele>
        <time>2014-02-27T09:59:05Z</time>
      </trkpt>
      <trkpt lat="47.90897" lon="7.14518">
        <ele>843.0079</ele>
        <time>2014-02-27T09:59:10Z</time>
      </trkpt>
      <trkpt lat="47.90897" lon="7.14511">
        <ele>844.1656</ele>
        <time>2014-02-27T09:59:15Z</time>
      </trkpt>
      <trkpt lat="47.90896" lon="7.14505">
        <ele>844.1656</ele>
        <time>2014-02-27T09:59:20Z</time>
      </trkpt>
      <trkpt lat="47.90893" lon="7.14499">
        <ele>844.1656</ele>
        <time>2014-02-27T09:59:25Z</time>
      </trkpt>
      <trkpt lat="47.90891" lon="7.14494">
        <ele>845.4367</ele>
        <time>2014-02-27T09:59:30Z</time>
      </trkpt>
      <trkpt lat="47.90889" lon="7.14488">
        <ele>845.4367</ele>
        <time>2014-02-27T09:59:35Z</time>
      </trkpt>
      <trkpt lat="47.90888" lon="7.14484">
        <ele>845.4367</ele>
        <time>2014-02-27T09:59:40Z</time>
      </trkpt>
      <trkpt lat="47.90888" lon="7.14477">
        <ele>847.0719</ele>
        <time>2014-02-27T09:59:45Z</time>
      </trkpt>
      <trkpt lat="47.90887" lon="7.14471">
        <ele>847.0719</ele>
        <time>2014-02-27T09:59:50Z</time>
      </trkpt>
      <trkpt lat="47.90884" lon="7.14466">
        <ele>848.5385</ele>
        <time>2014-02-27T09:59:57Z</time>
      </trkpt>
      <trkpt lat="47.9088" lon="7.14459">
        <ele>848.5385</ele>
        <time>2014-02-27T10:00:00Z</time>
      </trkpt>
      <trkpt lat="47.90877" lon="7.14451">
        <ele>849.6895</ele>
        <time>2014-02-27T10:00:05Z</time>
      </trkpt>
      <trkpt lat="47.9087" lon="7.14445">
        <ele>849.6895</ele>
        <time>2014-02-27T10:00:10Z</time>
      </trkpt>
      <trkpt lat="47.90868" lon="7.14437">
        <ele>850.5335</ele>
        <time>2014-02-27T10:00:15Z</time>
      </trkpt>
      <trkpt lat="47.90866" lon="7.14435">
        <ele>850.5335</ele>
        <time>2014-02-27T10:00:20Z</time>
      </trkpt>
      <trkpt lat="47.90864" lon="7.14428">
        <ele>850.5335</ele>
        <time>2014-02-27T10:00:25Z</time>
      </trkpt>
      <trkpt lat="47.90864" lon="7.1442">
        <ele>852.0161</ele>
        <time>2014-02-27T10:00:30Z</time>
      </trkpt>
      <trkpt lat="47.90862" lon="7.14415">
        <ele>852.0161</ele>
        <time>2014-02-27T10:00:35Z</time>
      </trkpt>
      <trkpt lat="47.90859" lon="7.14408">
        <ele>853.4842</ele>
        <time>2014-02-27T10:00:40Z</time>
      </trkpt>
      <trkpt lat="47.90859" lon="7.14402">
        <ele>853.4842</ele>
        <time>2014-02-27T10:00:45Z</time>
      </trkpt>
      <trkpt lat="47.90858" lon="7.14396">
        <ele>853.4842</ele>
        <time>2014-02-27T10:00:50Z</time>
      </trkpt>
      <trkpt lat="47.90855" lon="7.14391">
        <ele>854.77924</ele>
        <time>2014-02-27T10:00:55Z</time>
      </trkpt>
      <trkpt lat="47.90853" lon="7.14384">
        <ele>854.77924</ele>
        <time>2014-02-27T10:01:00Z</time>
      </trkpt>
      <trkpt lat="47.90853" lon="7.14379">
        <ele>854.77924</ele>
        <time>2014-02-27T10:01:05Z</time>
      </trkpt>
      <trkpt lat="47.90853" lon="7.14374">
        <ele>855.9711</ele>
        <time>2014-02-27T10:01:10Z</time>
      </trkpt>
      <trkpt lat="47.90853" lon="7.14373">
        <ele>855.9711</ele>
        <time>2014-02-27T10:01:15Z</time>
      </trkpt>
      <trkpt lat="47.90853" lon="7.14369">
        <ele>855.9711</ele>
        <time>2014-02-27T10:01:20Z</time>
      </trkpt>
      <trkpt lat="47.90849" lon="7.14362">
        <ele>857.2689</ele>
        <time>2014-02-27T10:01:25Z</time>
      </trkpt>
      <trkpt lat="47.90844" lon="7.14358">
        <ele>857.2689</ele>
        <time>2014-02-27T10:01:30Z</time>
      </trkpt>
      <trkpt lat="47.9084" lon="7.14353">
        <ele>858.07355</ele>
        <time>2014-02-27T10:01:35Z</time>
      </trkpt>
      <trkpt lat="47.90839" lon="7.14348">
        <ele>858.07355</ele>
        <time>2014-02-27T10:01:40Z</time>
      </trkpt>
      <trkpt lat="47.90837" lon="7.14344">
        <ele>858.07355</ele>
        <time>2014-02-27T10:01:45Z</time>
      </trkpt>
      <trkpt lat="47.90835" lon="7.14339">
        <ele>858.92645</ele>
        <time>2014-02-27T10:01:50Z</time>
      </trkpt>
      <trkpt lat="47.90832" lon="7.14333">
        <ele>858.92645</ele>
        <time>2014-02-27T10:01:55Z</time>
      </trkpt>
      <trkpt lat="47.90831" lon="7.14328">
        <ele>858.92645</ele>
        <time>2014-02-27T10:02:00Z</time>
      </trkpt>
      <trkpt lat="47.90832" lon="7.14325">
        <ele>859.8249</ele>
        <time>2014-02-27T10:02:05Z</time>
      </trkpt>
      <trkpt lat="47.90827" lon="7.14321">
        <ele>859.8249</ele>
        <time>2014-02-27T10:02:10Z</time>
      </trkpt>
      <trkpt lat="47.90829" lon="7.14313">
        <ele>860.91016</ele>
        <time>2014-02-27T10:02:15Z</time>
      </trkpt>
      <trkpt lat="47.90827" lon="7.14311">
        <ele>860.91016</ele>
        <time>2014-02-27T10:02:20Z</time>
      </trkpt>
      <trkpt lat="47.90826" lon="7.14308">
        <ele>860.91016</ele>
        <time>2014-02-27T10:02:25Z</time>
      </trkpt>
      <trkpt lat="47.90828" lon="7.14305">
        <ele>860.91016</ele>
        <time>2014-02-27T10:02:30Z</time>
      </trkpt>
      <trkpt lat="47.90827" lon="7.14303">
        <ele>862.78845</ele>
        <time>2014-02-27T10:02:35Z</time>
      </trkpt>
      <trkpt lat="47.90826" lon="7.14299">
        <ele>862.78845</ele>
        <time>2014-02-27T10:02:40Z</time>
      </trkpt>
      <trkpt lat="47.90827" lon="7.14294">
        <ele>862.78845</ele>
        <time>2014-02-27T10:02:45Z</time>
      </trkpt>
      <trkpt lat="47.90827" lon="7.14291">
        <ele>862.78845</ele>
        <time>2014-02-27T10:02:50Z</time>
      </trkpt>
      <trkpt lat="47.90829" lon="7.14288">
        <ele>864.7075</ele>
        <time>2014-02-27T10:02:55Z</time>
      </trkpt>
      <trkpt lat="47.90829" lon="7.14288">
        <ele>864.7075</ele>
        <time>2014-02-27T10:03:00Z</time>
      </trkpt>
      <trkpt lat="47.90831" lon="7.1428">
        <ele>864.7075</ele>
        <time>2014-02-27T10:03:05Z</time>
      </trkpt>
      <trkpt lat="47.90832" lon="7.14276">
        <ele>864.7075</ele>
        <time>2014-02-27T10:03:10Z</time>
      </trkpt>
      <trkpt lat="47.90833" lon="7.14271">
        <ele>865.7831</ele>
        <time>2014-02-27T10:03:15Z</time>
      </trkpt>
      <trkpt lat="47.90836" lon="7.14263">
        <ele>865.7831</ele>
        <time>2014-02-27T10:03:20Z</time>
      </trkpt>
      <trkpt lat="47.90837" lon="7.14261">
        <ele>865.7831</ele>
        <time>2014-02-27T10:03:25Z</time>
      </trkpt>
      <trkpt lat="47.90838" lon="7.14261">
        <ele>865.7831</ele>
        <time>2014-02-27T10:03:30Z</time>
      </trkpt>
      <trkpt lat="47.90841" lon="7.14256">
        <ele>867.1149</ele>
        <time>2014-02-27T10:03:35Z</time>
      </trkpt>
      <trkpt lat="47.90844" lon="7.1425">
        <ele>867.1149</ele>
        <time>2014-02-27T10:03:40Z</time>
      </trkpt>
      <trkpt lat="47.90846" lon="7.14243">
        <ele>868.56824</ele>
        <time>2014-02-27T10:03:45Z</time>
      </trkpt>
      <trkpt lat="47.90848" lon="7.14235">
        <ele>868.56824</ele>
        <time>2014-02-27T10:03:50Z</time>
      </trkpt>
      <trkpt lat="47.9085" lon="7.14229">
        <ele>869.8451</ele>
        <time>2014-02-27T10:03:55Z</time>
      </trkpt>
      <trkpt lat="47.90851" lon="7.14224">
        <ele>869.8451</ele>
        <time>2014-02-27T10:04:00Z</time>
      </trkpt>
      <trkpt lat="47.90852" lon="7.1422">
        <ele>869.8451</ele>
        <time>2014-02-27T10:04:05Z</time>
      </trkpt>
      <trkpt lat="47.90851" lon="7.14216">
        <ele>870.3095</ele>
        <time>2014-02-27T10:04:10Z</time>
      </trkpt>
      <trkpt lat="47.90849" lon="7.1421">
        <ele>870.3095</ele>
        <time>2014-02-27T10:04:15Z</time>
      </trkpt>
      <trkpt lat="47.90846" lon="7.14204">
        <ele>870.0662</ele>
        <time>2014-02-27T10:04:20Z</time>
      </trkpt>
      <trkpt lat="47.90846" lon="7.14199">
        <ele>870.0662</ele>
        <time>2014-02-27T10:04:25Z</time>
      </trkpt>
      <trkpt lat="47.90848" lon="7.14196">
        <ele>870.0662</ele>
        <time>2014-02-27T10:04:30Z</time>
      </trkpt>
      <trkpt lat="47.90851" lon="7.14195">
        <ele>870.0662</ele>
        <time>2014-02-27T10:04:35Z</time>
      </trkpt>
      <trkpt lat="47.9085" lon="7.14191">
        <ele>870.8717</ele>
        <time>2014-02-27T10:04:40Z</time>
      </trkpt>
      <trkpt lat="47.90849" lon="7.14186">
        <ele>870.8717</ele>
        <time>2014-02-27T10:04:45Z</time>
      </trkpt>
      <trkpt lat="47.90853" lon="7.14188">
        <ele>870.8717</ele>
        <time>2014-02-27T10:04:50Z</time>
      </trkpt>
      <trkpt lat="47.90853" lon="7.14187">
        <ele>870.8717</ele>
        <time>2014-02-27T10:04:55Z</time>
      </trkpt>
      <trkpt lat="47.90855" lon="7.14184">
        <ele>872.4625</ele>
        <time>2014-02-27T10:05:00Z</time>
      </trkpt>
      <trkpt lat="47.90856" lon="7.14178">
        <ele>872.4625</ele>
        <time>2014-02-27T10:05:05Z</time>
      </trkpt>
      <trkpt lat="47.90857" lon="7.14176">
        <ele>872.4625</ele>
        <time>2014-02-27T10:05:10Z</time>
      </trkpt>
      <trkpt lat="47.90858" lon="7.14174">
        <ele>872.4625</ele>
        <time>2014-02-27T10:05:15Z</time>
      </trkpt>
      <trkpt lat="47.90861" lon="7.14169">
        <ele>875.0246</ele>
        <time>2014-02-27T10:05:20Z</time>
      </trkpt>
      <trkpt lat="47.90861" lon="7.14166">
        <ele>875.0246</ele>
        <time>2014-02-27T10:05:25Z</time>
      </trkpt>
      <trkpt lat="47.90861" lon="7.14165">
        <ele>875.0246</ele>
        <time>2014-02-27T10:05:30Z</time>
      </trkpt>
      <trkpt lat="47.90859" lon="7.14162">
        <ele>875.0246</ele>
        <time>2014-02-27T10:05:35Z</time>
      </trkpt>
      <trkpt lat="47.90858" lon="7.14157">
        <ele>877.47394</ele>
        <time>2014-02-27T10:05:40Z</time>
      </trkpt>
      <trkpt lat="47.90858" lon="7.14154">
        <ele>877.47394</ele>
        <time>2014-02-27T10:05:45Z</time>
      </trkpt>
      <trkpt lat="47.90857" lon="7.14151">
        <ele>877.47394</ele>
        <time>2014-02-27T10:05:50Z</time>
      </trkpt>
      <trkpt lat="47.90859" lon="7.1415">
        <ele>877.47394</ele>
        <time>2014-02-27T10:05:55Z</time>
      </trkpt>
      <trkpt lat="47.90859" lon="7.14146">
        <ele>877.47394</ele>
        <time>2014-02-27T10:06:00Z</time>
      </trkpt>
      <trkpt lat="47.90859" lon="7.14142">
        <ele>879.90155</ele>
        <time>2014-02-27T10:06:05Z</time>
      </trkpt>
      <trkpt lat="47.90859" lon="7.14137">
        <ele>879.90155</ele>
        <time>2014-02-27T10:06:10Z</time>
      </trkpt>
      <trkpt lat="47.90859" lon="7.14132">
        <ele>879.90155</ele>
        <time>2014-02-27T10:06:15Z</time>
      </trkpt>
      <trkpt lat="47.90859" lon="7.14127">
        <ele>881.7579</ele>
        <time>2014-02-27T10:06:20Z</time>
      </trkpt>
      <trkpt lat="47.90859" lon="7.14127">
        <ele>881.7579</ele>
        <time>2014-02-27T10:06:25Z</time>
      </trkpt>
      <trkpt lat="47.90859" lon="7.14127">
        <ele>881.7579</ele>
        <time>2014-02-27T10:06:30Z</time>
      </trkpt>
      <trkpt lat="47.90859" lon="7.14127">
        <ele>881.7579</ele>
        <time>2014-02-27T10:06:35Z</time>
      </trkpt>
      <trkpt lat="47.90859" lon="7.14127">
        <ele>881.7579</ele>
        <time>2014-02-27T10:06:40Z</time>
      </trkpt>
      <trkpt lat="47.90859" lon="7.14127">
        <ele>881.7579</ele>
        <time>2014-02-27T10:06:45Z</time>
      </trkpt>
      <trkpt lat="47.90859" lon="7.14127">
        <ele>881.7579</ele>
        <time>2014-02-27T10:06:50Z</time>
      </trkpt>
      <trkpt lat="47.90858" lon="7.14126">
        <ele>881.7579</ele>
        <time>2014-02-27T10:06:55Z</time>
      </trkpt>
      <trkpt lat="47.90858" lon="7.14125">
        <ele>881.7579</ele>
        <time>2014-02-27T10:07:00Z</time>
      </trkpt>
      <trkpt lat="47.90858" lon="7.14125">
        <ele>881.7579</ele>
        <time>2014-02-27T10:07:05Z</time>
      </trkpt>
      <trkpt lat="47.90858" lon="7.14125">
        <ele>881.7579</ele>
        <time>2014-02-27T10:07:10Z</time>
      </trkpt>
      <trkpt lat="47.90858" lon="7.14125">
        <ele>881.7579</ele>
        <time>2014-02-27T10:07:15Z</time>
      </trkpt>
      <trkpt lat="47.90858" lon="7.14125">
        <ele>881.7579</ele>
        <time>2014-02-27T10:07:20Z</time>
      </trkpt>
      <trkpt lat="47.90856" lon="7.14124">
        <ele>881.7579</ele>
        <time>2014-02-27T10:07:25Z</time>
      </trkpt>
      <trkpt lat="47.90855" lon="7.1412">
        <ele>881.7579</ele>
        <time>2014-02-27T10:07:30Z</time>
      </trkpt>
      <trkpt lat="47.90853" lon="7.14117">
        <ele>884.7978</ele>
        <time>2014-02-27T10:07:35Z</time>
      </trkpt>
      <trkpt lat="47.90851" lon="7.14116">
        <ele>884.7978</ele>
        <time>2014-02-27T10:07:40Z</time>
      </trkpt>
      <trkpt lat="47.90849" lon="7.14114">
        <ele>884.7978</ele>
        <time>2014-02-27T10:07:45Z</time>
      </trkpt>
      <trkpt lat="47.90846" lon="7.14111">
        <ele>884.7978</ele>
        <time>2014-02-27T10:07:50Z</time>
      </trkpt>
      <trkpt lat="47.90845" lon="7.14107">
        <ele>888.4968</ele>
        <time>2014-02-27T10:07:55Z</time>
      </trkpt>
      <trkpt lat="47.90842" lon="7.14104">
        <ele>888.4968</ele>
        <time>2014-02-27T10:08:00Z</time>
      </trkpt>
      <trkpt lat="47.90839" lon="7.14103">
        <ele>888.4968</ele>
        <time>2014-02-27T10:08:05Z</time>
      </trkpt>
      <trkpt lat="47.90838" lon="7.14102">
        <ele>888.4968</ele>
        <time>2014-02-27T10:08:10Z</time>
      </trkpt>
      <trkpt lat="47.90835" lon="7.14097">
        <ele>892.4825</ele>
        <time>2014-02-27T10:08:15Z</time>
      </trkpt>
      <trkpt lat="47.90828" lon="7.14093">
        <ele>892.4825</ele>
        <time>2014-02-27T10:08:20Z</time>
      </trkpt>
      <trkpt lat="47.90827" lon="7.1409">
        <ele>896.7691</ele>
        <time>2014-02-27T10:08:25Z</time>
      </trkpt>
      <trkpt lat="47.9082" lon="7.14087">
        <ele>896.7691</ele>
        <time>2014-02-27T10:08:30Z</time>
      </trkpt>
      <trkpt lat="47.9082" lon="7.14087">
        <ele>896.7691</ele>
        <time>2014-02-27T10:08:35Z</time>
      </trkpt>
      <trkpt lat="47.90819" lon="7.14084">
        <ele>901.254</ele>
        <time>2014-02-27T10:08:40Z</time>
      </trkpt>
      <trkpt lat="47.90815" lon="7.14083">
        <ele>901.254</ele>
        <time>2014-02-27T10:08:45Z</time>
      </trkpt>
      <trkpt lat="47.90811" lon="7.14081">
        <ele>901.254</ele>
        <time>2014-02-27T10:08:50Z</time>
      </trkpt>
      <trkpt lat="47.90807" lon="7.14078">
        <ele>905.4669</ele>
        <time>2014-02-27T10:08:55Z</time>
      </trkpt>
      <trkpt lat="47.90803" lon="7.14074">
        <ele>905.4669</ele>
        <time>2014-02-27T10:09:00Z</time>
      </trkpt>
      <trkpt lat="47.90798" lon="7.14072">
        <ele>909.16034</ele>
        <time>2014-02-27T10:09:05Z</time>
      </trkpt>
      <trkpt lat="47.90793" lon="7.14071">
        <ele>909.16034</ele>
        <time>2014-02-27T10:09:11Z</time>
      </trkpt>
      <trkpt lat="47.90786" lon="7.1407">
        <ele>912.3802</ele>
        <time>2014-02-27T10:09:15Z</time>
      </trkpt>
      <trkpt lat="47.90781" lon="7.14065">
        <ele>912.3802</ele>
        <time>2014-02-27T10:09:20Z</time>
      </trkpt>
      <trkpt lat="47.90779" lon="7.14063">
        <ele>912.3802</ele>
        <time>2014-02-27T10:09:25Z</time>
      </trkpt>
      <trkpt lat="47.90775" lon="7.1406">
        <ele>915.4446</ele>
        <time>2014-02-27T10:09:30Z</time>
      </trkpt>
      <trkpt lat="47.90774" lon="7.14061">
        <ele>915.4446</ele>
        <time>2014-02-27T10:09:35Z</time>
      </trkpt>
      <trkpt lat="47.90775" lon="7.14062">
        <ele>915.4446</ele>
        <time>2014-02-27T10:09:40Z</time>
      </trkpt>
      <trkpt lat="47.90775" lon="7.14061">
        <ele>915.4446</ele>
        <time>2014-02-27T10:09:45Z</time>
      </trkpt>
      <trkpt lat="47.90765" lon="7.14059">
        <ele>916.65985</ele>
        <time>2014-02-27T10:09:50Z</time>
      </trkpt>
      <trkpt lat="47.90757" lon="7.14057">
        <ele>916.65985</ele>
        <time>2014-02-27T10:09:55Z</time>
      </trkpt>
      <trkpt lat="47.90754" lon="7.14055">
        <ele>917.4453</ele>
        <time>2014-02-27T10:10:00Z</time>
      </trkpt>
      <trkpt lat="47.90748" lon="7.14054">
        <ele>917.4453</ele>
        <time>2014-02-27T10:10:05Z</time>
      </trkpt>
      <trkpt lat="47.90744" lon="7.14052">
        <ele>917.8636</ele>
        <time>2014-02-27T10:10:10Z</time>
      </trkpt>
      <trkpt lat="47.9074" lon="7.14049">
        <ele>917.8636</ele>
        <time>2014-02-27T10:10:15Z</time>
      </trkpt>
      <trkpt lat="47.90736" lon="7.14045">
        <ele>918.1899</ele>
        <time>2014-02-27T10:10:20Z</time>
      </trkpt>
      <trkpt lat="47.90736" lon="7.14039">
        <ele>918.1899</ele>
        <time>2014-02-27T10:10:25Z</time>
      </trkpt>
      <trkpt lat="47.90736" lon="7.14032">
        <ele>918.1899</ele>
        <time>2014-02-27T10:10:30Z</time>
      </trkpt>
      <trkpt lat="47.90736" lon="7.14023">
        <ele>918.75183</ele>
        <time>2014-02-27T10:10:35Z</time>
      </trkpt>
      <trkpt lat="47.90738" lon="7.14016">
        <ele>918.75183</ele>
        <time>2014-02-27T10:10:40Z</time>
      </trkpt>
      <trkpt lat="47.90733" lon="7.14008">
        <ele>919.1749</ele>
        <time>2014-02-27T10:10:45Z</time>
      </trkpt>
      <trkpt lat="47.90732" lon="7.13999">
        <ele>919.1749</ele>
        <time>2014-02-27T10:10:50Z</time>
      </trkpt>
      <trkpt lat="47.9073" lon="7.1399">
        <ele>919.1414</ele>
        <time>2014-02-27T10:10:55Z</time>
      </trkpt>
      <trkpt lat="47.9073" lon="7.13984">
        <ele>919.1414</ele>
        <time>2014-02-27T10:11:00Z</time>
      </trkpt>
      <trkpt lat="47.9073" lon="7.13975">
        <ele>918.9493</ele>
        <time>2014-02-27T10:11:05Z</time>
      </trkpt>
      <trkpt lat="47.9073" lon="7.13965">
        <ele>918.9493</ele>
        <time>2014-02-27T10:11:10Z</time>
      </trkpt>
      <trkpt lat="47.9073" lon="7.13952">
        <ele>919.22076</ele>
        <time>2014-02-27T10:11:15Z</time>
      </trkpt>
      <trkpt lat="47.90731" lon="7.13947">
        <ele>919.22076</ele>
        <time>2014-02-27T10:11:20Z</time>
      </trkpt>
      <trkpt lat="47.90731" lon="7.1394">
        <ele>919.22076</ele>
        <time>2014-02-27T10:11:25Z</time>
      </trkpt>
      <trkpt lat="47.90731" lon="7.13929">
        <ele>919.34955</ele>
        <time>2014-02-27T10:11:30Z</time>
      </trkpt>
      <trkpt lat="47.9073" lon="7.1392">
        <ele>919.34955</ele>
        <time>2014-02-27T10:11:35Z</time>
      </trkpt>
      <trkpt lat="47.90729" lon="7.13905">
        <ele>919.06226</ele>
        <time>2014-02-27T10:11:40Z</time>
      </trkpt>
      <trkpt lat="47.90731" lon="7.13897">
        <ele>919.06226</ele>
        <time>2014-02-27T10:11:45Z</time>
      </trkpt>
      <trkpt lat="47.90726" lon="7.1389">
        <ele>919.1302</ele>
        <time>2014-02-27T10:11:50Z</time>
      </trkpt>
      <trkpt lat="47.90724" lon="7.13884">
        <ele>919.1302</ele>
        <time>2014-02-27T10:11:55Z</time>
      </trkpt>
      <trkpt lat="47.9072" lon="7.13879">
        <ele>918.73926</ele>
        <time>2014-02-27T10:12:00Z</time>
      </trkpt>
      <trkpt lat="47.90718" lon="7.13872">
        <ele>918.73926</ele>
        <time>2014-02-27T10:12:05Z</time>
      </trkpt>
      <trkpt lat="47.90718" lon="7.13865">
        <ele>917.87134</ele>
        <time>2014-02-27T10:12:10Z</time>
      </trkpt>
      <trkpt lat="47.9072" lon="7.13858">
        <ele>917.87134</ele>
        <time>2014-02-27T10:12:15Z</time>
      </trkpt>
      <trkpt lat="47.9072" lon="7.1385">
        <ele>917.2749</ele>
        <time>2014-02-27T10:12:20Z</time>
      </trkpt>
      <trkpt lat="47.90717" lon="7.1384">
        <ele>917.2749</ele>
        <time>2014-02-27T10:12:25Z</time>
      </trkpt>
      <trkpt lat="47.90712" lon="7.13831">
        <ele>916.0427</ele>
        <time>2014-02-27T10:12:30Z</time>
      </trkpt>
      <trkpt lat="47.90712" lon="7.13821">
        <ele>916.0427</ele>
        <time>2014-02-27T10:12:35Z</time>
      </trkpt>
      <trkpt lat="47.90717" lon="7.13813">
        <ele>915.0942</ele>
        <time>2014-02-27T10:12:40Z</time>
      </trkpt>
      <trkpt lat="47.90717" lon="7.13808">
        <ele>915.0942</ele>
        <time>2014-02-27T10:12:45Z</time>
      </trkpt>
      <trkpt lat="47.90715" lon="7.13802">
        <ele>915.0942</ele>
        <time>2014-02-27T10:12:50Z</time>
      </trkpt>
      <trkpt lat="47.90715" lon="7.13793">
        <ele>914.5886</ele>
        <time>2014-02-27T10:12:55Z</time>
      </trkpt>
      <trkpt lat="47.90712" lon="7.13785">
        <ele>914.5886</ele>
        <time>2014-02-27T10:13:00Z</time>
      </trkpt>
      <trkpt lat="47.9071" lon="7.13776">
        <ele>913.59125</ele>
        <time>2014-02-27T10:13:05Z</time>
      </trkpt>
      <trkpt lat="47.90709" lon="7.1377">
        <ele>913.59125</ele>
        <time>2014-02-27T10:13:10Z</time>
      </trkpt>
      <trkpt lat="47.90706" lon="7.13762">
        <ele>912.9522</ele>
        <time>2014-02-27T10:13:15Z</time>
      </trkpt>
      <trkpt lat="47.90705" lon="7.13754">
        <ele>912.9522</ele>
        <time>2014-02-27T10:13:20Z</time>
      </trkpt>
      <trkpt lat="47.90705" lon="7.13739">
        <ele>912.4782</ele>
        <time>2014-02-27T10:13:25Z</time>
      </trkpt>
      <trkpt lat="47.90706" lon="7.13731">
        <ele>912.4782</ele>
        <time>2014-02-27T10:13:30Z</time>
      </trkpt>
      <trkpt lat="47.90698" lon="7.13724">
        <ele>913.68994</ele>
        <time>2014-02-27T10:13:35Z</time>
      </trkpt>
      <trkpt lat="47.90692" lon="7.13714">
        <ele>913.68994</ele>
        <time>2014-02-27T10:13:40Z</time>
      </trkpt>
      <trkpt lat="47.9069" lon="7.13707">
        <ele>914.95074</ele>
        <time>2014-02-27T10:13:45Z</time>
      </trkpt>
      <trkpt lat="47.90689" lon="7.13704">
        <ele>914.95074</ele>
        <time>2014-02-27T10:13:50Z</time>
      </trkpt>
      <trkpt lat="47.90686" lon="7.13699">
        <ele>914.95074</ele>
        <time>2014-02-27T10:13:55Z</time>
      </trkpt>
      <trkpt lat="47.90688" lon="7.13695">
        <ele>917.266</ele>
        <time>2014-02-27T10:14:00Z</time>
      </trkpt>
      <trkpt lat="47.90686" lon="7.13689">
        <ele>917.266</ele>
        <time>2014-02-27T10:14:05Z</time>
      </trkpt>
      <trkpt lat="47.90685" lon="7.13683">
        <ele>919.66174</ele>
        <time>2014-02-27T10:14:10Z</time>
      </trkpt>
      <trkpt lat="47.9068" lon="7.13678">
        <ele>919.66174</ele>
        <time>2014-02-27T10:14:15Z</time>
      </trkpt>
      <trkpt lat="47.90675" lon="7.13673">
        <ele>921.7253</ele>
        <time>2014-02-27T10:14:20Z</time>
      </trkpt>
      <trkpt lat="47.9067" lon="7.13667">
        <ele>921.7253</ele>
        <time>2014-02-27T10:14:25Z</time>
      </trkpt>
      <trkpt lat="47.90667" lon="7.13663">
        <ele>923.30566</ele>
        <time>2014-02-27T10:14:30Z</time>
      </trkpt>
      <trkpt lat="47.90663" lon="7.13659">
        <ele>923.30566</ele>
        <time>2014-02-27T10:14:35Z</time>
      </trkpt>
      <trkpt lat="47.90659" lon="7.13654">
        <ele>924.81177</ele>
        <time>2014-02-27T10:14:40Z</time>
      </trkpt>
      <trkpt lat="47.90656" lon="7.1365">
        <ele>924.81177</ele>
        <time>2014-02-27T10:14:45Z</time>
      </trkpt>
      <trkpt lat="47.90655" lon="7.13649">
        <ele>924.81177</ele>
        <time>2014-02-27T10:14:50Z</time>
      </trkpt>
      <trkpt lat="47.90659" lon="7.13648">
        <ele>925.9022</ele>
        <time>2014-02-27T10:14:55Z</time>
      </trkpt>
      <trkpt lat="47.90658" lon="7.13649">
        <ele>925.9022</ele>
        <time>2014-02-27T10:15:00Z</time>
      </trkpt>
      <trkpt lat="47.90658" lon="7.13648">
        <ele>925.9022</ele>
        <time>2014-02-27T10:15:05Z</time>
      </trkpt>
      <trkpt lat="47.90658" lon="7.13648">
        <ele>925.9022</ele>
        <time>2014-02-27T10:15:10Z</time>
      </trkpt>
      <trkpt lat="47.90658" lon="7.13643">
        <ele>925.9022</ele>
        <time>2014-02-27T10:15:15Z</time>
      </trkpt>
      <trkpt lat="47.90657" lon="7.13634">
        <ele>926.8958</ele>
        <time>2014-02-27T10:15:20Z</time>
      </trkpt>
      <trkpt lat="47.90663" lon="7.13624">
        <ele>926.8958</ele>
        <time>2014-02-27T10:15:25Z</time>
      </trkpt>
      <trkpt lat="47.90665" lon="7.13615">
        <ele>928.3764</ele>
        <time>2014-02-27T10:15:30Z</time>
      </trkpt>
      <trkpt lat="47.90666" lon="7.1361">
        <ele>928.3764</ele>
        <time>2014-02-27T10:15:35Z</time>
      </trkpt>
      <trkpt lat="47.90666" lon="7.13604">
        <ele>928.3764</ele>
        <time>2014-02-27T10:15:40Z</time>
      </trkpt>
      <trkpt lat="47.90666" lon="7.136">
        <ele>929.5288</ele>
        <time>2014-02-27T10:15:45Z</time>
      </trkpt>
      <trkpt lat="47.90667" lon="7.13594">
        <ele>929.5288</ele>
        <time>2014-02-27T10:15:50Z</time>
      </trkpt>
      <trkpt lat="47.90668" lon="7.13589">
        <ele>929.5288</ele>
        <time>2014-02-27T10:15:55Z</time>
      </trkpt>
      <trkpt lat="47.9067" lon="7.13584">
        <ele>931.16956</ele>
        <time>2014-02-27T10:16:00Z</time>
      </trkpt>
      <trkpt lat="47.90669" lon="7.13583">
        <ele>931.16956</ele>
        <time>2014-02-27T10:16:05Z</time>
      </trkpt>
      <trkpt lat="47.90668" lon="7.13583">
        <ele>931.16956</ele>
        <time>2014-02-27T10:16:10Z</time>
      </trkpt>
      <trkpt lat="47.90669" lon="7.13578">
        <ele>931.16956</ele>
        <time>2014-02-27T10:16:15Z</time>
      </trkpt>
      <trkpt lat="47.90668" lon="7.13573">
        <ele>931.16956</ele>
        <time>2014-02-27T10:16:20Z</time>
      </trkpt>
      <trkpt lat="47.9067" lon="7.13571">
        <ele>933.27545</ele>
        <time>2014-02-27T10:16:25Z</time>
      </trkpt>
      <trkpt lat="47.9067" lon="7.13564">
        <ele>933.27545</ele>
        <time>2014-02-27T10:16:30Z</time>
      </trkpt>
      <trkpt lat="47.90671" lon="7.1356">
        <ele>933.27545</ele>
        <time>2014-02-27T10:16:35Z</time>
      </trkpt>
      <trkpt lat="47.90673" lon="7.13554">
        <ele>934.85815</ele>
        <time>2014-02-27T10:16:40Z</time>
      </trkpt>
      <trkpt lat="47.90676" lon="7.13551">
        <ele>934.85815</ele>
        <time>2014-02-27T10:16:45Z</time>
      </trkpt>
      <trkpt lat="47.90678" lon="7.13548">
        <ele>934.85815</ele>
        <time>2014-02-27T10:16:50Z</time>
      </trkpt>
      <trkpt lat="47.90678" lon="7.13546">
        <ele>934.85815</ele>
        <time>2014-02-27T10:16:55Z</time>
      </trkpt>
      <trkpt lat="47.90677" lon="7.13539">
        <ele>936.77606</ele>
        <time>2014-02-27T10:17:00Z</time>
      </trkpt>
      <trkpt lat="47.90678" lon="7.13538">
        <ele>936.77606</ele>
        <time>2014-02-27T10:17:05Z</time>
      </trkpt>
      <trkpt lat="47.90678" lon="7.13533">
        <ele>936.77606</ele>
        <time>2014-02-27T10:17:10Z</time>
      </trkpt>
      <trkpt lat="47.90679" lon="7.13531">
        <ele>936.77606</ele>
        <time>2014-02-27T10:17:15Z</time>
      </trkpt>
      <trkpt lat="47.90682" lon="7.13524">
        <ele>938.9443</ele>
        <time>2014-02-27T10:17:20Z</time>
      </trkpt>
      <trkpt lat="47.90683" lon="7.1352">
        <ele>938.9443</ele>
        <time>2014-02-27T10:17:25Z</time>
      </trkpt>
      <trkpt lat="47.90683" lon="7.13515">
        <ele>938.9443</ele>
        <time>2014-02-27T10:17:30Z</time>
      </trkpt>
      <trkpt lat="47.90686" lon="7.13513">
        <ele>941.11066</ele>
        <time>2014-02-27T10:17:35Z</time>
      </trkpt>
      <trkpt lat="47.90685" lon="7.13507">
        <ele>941.11066</ele>
        <time>2014-02-27T10:17:40Z</time>
      </trkpt>
      <trkpt lat="47.90686" lon="7.13505">
        <ele>941.11066</ele>
        <time>2014-02-27T10:17:45Z</time>
      </trkpt>
      <trkpt lat="47.90687" lon="7.13501">
        <ele>941.11066</ele>
        <time>2014-02-27T10:17:50Z</time>
      </trkpt>
      <trkpt lat="47.90688" lon="7.135">
        <ele>943.3586</ele>
        <time>2014-02-27T10:17:55Z</time>
      </trkpt>
      <trkpt lat="47.9069" lon="7.13493">
        <ele>943.3586</ele>
        <time>2014-02-27T10:18:00Z</time>
      </trkpt>
      <trkpt lat="47.90691" lon="7.13492">
        <ele>943.3586</ele>
        <time>2014-02-27T10:18:05Z</time>
      </trkpt>
      <trkpt lat="47.90692" lon="7.1349">
        <ele>943.3586</ele>
        <time>2014-02-27T10:18:10Z</time>
      </trkpt>
      <trkpt lat="47.90694" lon="7.13487">
        <ele>945.4192</ele>
        <time>2014-02-27T10:18:15Z</time>
      </trkpt>
      <trkpt lat="47.90696" lon="7.13484">
        <ele>945.4192</ele>
        <time>2014-02-27T10:18:20Z</time>
      </trkpt>
      <trkpt lat="47.90696" lon="7.13477">
        <ele>945.4192</ele>
        <time>2014-02-27T10:18:25Z</time>
      </trkpt>
      <trkpt lat="47.90696" lon="7.13475">
        <ele>945.4192</ele>
        <time>2014-02-27T10:18:30Z</time>
      </trkpt>
      <trkpt lat="47.90692" lon="7.13475">
        <ele>947.0728</ele>
        <time>2014-02-27T10:18:35Z</time>
      </trkpt>
      <trkpt lat="47.90689" lon="7.13471">
        <ele>947.0728</ele>
        <time>2014-02-27T10:18:40Z</time>
      </trkpt>
      <trkpt lat="47.9069" lon="7.13469">
        <ele>947.0728</ele>
        <time>2014-02-27T10:18:45Z</time>
      </trkpt>
      <trkpt lat="47.9069" lon="7.13467">
        <ele>947.0728</ele>
        <time>2014-02-27T10:18:50Z</time>
      </trkpt>
      <trkpt lat="47.9069" lon="7.13458">
        <ele>948.70795</ele>
        <time>2014-02-27T10:18:55Z</time>
      </trkpt>
      <trkpt lat="47.90692" lon="7.13453">
        <ele>948.70795</ele>
        <time>2014-02-27T10:19:00Z</time>
      </trkpt>
      <trkpt lat="47.90694" lon="7.13449">
        <ele>948.70795</ele>
        <time>2014-02-27T10:19:05Z</time>
      </trkpt>
      <trkpt lat="47.90696" lon="7.13441">
        <ele>950.6989</ele>
        <time>2014-02-27T10:19:10Z</time>
      </trkpt>
      <trkpt lat="47.90696" lon="7.13438">
        <ele>950.6989</ele>
        <time>2014-02-27T10:19:15Z</time>
      </trkpt>
      <trkpt lat="47.90697" lon="7.13435">
        <ele>950.6989</ele>
        <time>2014-02-27T10:19:20Z</time>
      </trkpt>
      <trkpt lat="47.90697" lon="7.13434">
        <ele>950.6989</ele>
        <time>2014-02-27T10:19:25Z</time>
      </trkpt>
      <trkpt lat="47.90697" lon="7.13429">
        <ele>950.6989</ele>
        <time>2014-02-27T10:19:30Z</time>
      </trkpt>
      <trkpt lat="47.90699" lon="7.13422">
        <ele>952.54144</ele>
        <time>2014-02-27T10:19:35Z</time>
      </trkpt>
      <trkpt lat="47.90701" lon="7.13414">
        <ele>952.54144</ele>
        <time>2014-02-27T10:19:40Z</time>
      </trkpt>
      <trkpt lat="47.90701" lon="7.13408">
        <ele>954.0858</ele>
        <time>2014-02-27T10:19:45Z</time>
      </trkpt>
      <trkpt lat="47.90705" lon="7.13401">
        <ele>954.0858</ele>
        <time>2014-02-27T10:19:50Z</time>
      </trkpt>
      <trkpt lat="47.90705" lon="7.13393">
        <ele>955.0212</ele>
        <time>2014-02-27T10:19:55Z</time>
      </trkpt>
      <trkpt lat="47.90704" lon="7.13384">
        <ele>955.0212</ele>
        <time>2014-02-27T10:20:00Z</time>
      </trkpt>
      <trkpt lat="47.90708" lon="7.13377">
        <ele>956.44476</ele>
        <time>2014-02-27T10:20:05Z</time>
      </trkpt>
      <trkpt lat="47.90711" lon="7.13372">
        <ele>956.44476</ele>
        <time>2014-02-27T10:20:10Z</time>
      </trkpt>
      <trkpt lat="47.90714" lon="7.13368">
        <ele>956.44476</ele>
        <time>2014-02-27T10:20:15Z</time>
      </trkpt>
      <trkpt lat="47.90716" lon="7.13364">
        <ele>958.47845</ele>
        <time>2014-02-27T10:20:20Z</time>
      </trkpt>
      <trkpt lat="47.90721" lon="7.13354">
        <ele>958.47845</ele>
        <time>2014-02-27T10:20:25Z</time>
      </trkpt>
      <trkpt lat="47.90721" lon="7.13343">
        <ele>960.4984</ele>
        <time>2014-02-27T10:20:30Z</time>
      </trkpt>
      <trkpt lat="47.90725" lon="7.13336">
        <ele>960.4984</ele>
        <time>2014-02-27T10:20:35Z</time>
      </trkpt>
      <trkpt lat="47.90726" lon="7.13324">
        <ele>962.47437</ele>
        <time>2014-02-27T10:20:40Z</time>
      </trkpt>
      <trkpt lat="47.90728" lon="7.13318">
        <ele>962.47437</ele>
        <time>2014-02-27T10:20:45Z</time>
      </trkpt>
      <trkpt lat="47.90729" lon="7.1331">
        <ele>964.2345</ele>
        <time>2014-02-27T10:20:50Z</time>
      </trkpt>
      <trkpt lat="47.90731" lon="7.13301">
        <ele>964.2345</ele>
        <time>2014-02-27T10:20:55Z</time>
      </trkpt>
      <trkpt lat="47.90734" lon="7.13296">
        <ele>965.9226</ele>
        <time>2014-02-27T10:21:00Z</time>
      </trkpt>
      <trkpt lat="47.90733" lon="7.13288">
        <ele>965.9226</ele>
        <time>2014-02-27T10:21:05Z</time>
      </trkpt>
      <trkpt lat="47.90735" lon="7.13284">
        <ele>965.9226</ele>
        <time>2014-02-27T10:21:10Z</time>
      </trkpt>
      <trkpt lat="47.90735" lon="7.13278">
        <ele>967.1104</ele>
        <time>2014-02-27T10:21:15Z</time>
      </trkpt>
      <trkpt lat="47.90736" lon="7.13273">
        <ele>967.1104</ele>
        <time>2014-02-27T10:21:20Z</time>
      </trkpt>
      <trkpt lat="47.90735" lon="7.13268">
        <ele>967.1104</ele>
        <time>2014-02-27T10:21:25Z</time>
      </trkpt>
      <trkpt lat="47.90736" lon="7.13264">
        <ele>967.6186</ele>
        <time>2014-02-27T10:21:30Z</time>
      </trkpt>
      <trkpt lat="47.90738" lon="7.1326">
        <ele>967.6186</ele>
        <time>2014-02-27T10:21:35Z</time>
      </trkpt>
      <trkpt lat="47.9074" lon="7.13253">
        <ele>967.6186</ele>
        <time>2014-02-27T10:21:40Z</time>
      </trkpt>
      <trkpt lat="47.90741" lon="7.13247">
        <ele>967.4702</ele>
        <time>2014-02-27T10:21:45Z</time>
      </trkpt>
      <trkpt lat="47.90744" lon="7.13247">
        <ele>967.4702</ele>
        <time>2014-02-27T10:21:50Z</time>
      </trkpt>
      <trkpt lat="47.90745" lon="7.13241">
        <ele>967.4702</ele>
        <time>2014-02-27T10:21:55Z</time>
      </trkpt>
      <trkpt lat="47.90749" lon="7.13235">
        <ele>967.4237</ele>
        <time>2014-02-27T10:22:00Z</time>
      </trkpt>
      <trkpt lat="47.90752" lon="7.13227">
        <ele>967.4237</ele>
        <time>2014-02-27T10:22:05Z</time>
      </trkpt>
      <trkpt lat="47.90754" lon="7.13224">
        <ele>967.41754</ele>
        <time>2014-02-27T10:22:10Z</time>
      </trkpt>
      <trkpt lat="47.90756" lon="7.13219">
        <ele>967.41754</ele>
        <time>2014-02-27T10:22:15Z</time>
      </trkpt>
      <trkpt lat="47.90758" lon="7.13215">
        <ele>967.41754</ele>
        <time>2014-02-27T10:22:20Z</time>
      </trkpt>
      <trkpt lat="47.90762" lon="7.13212">
        <ele>966.9191</ele>
        <time>2014-02-27T10:22:25Z</time>
      </trkpt>
      <trkpt lat="47.90765" lon="7.13208">
        <ele>966.9191</ele>
        <time>2014-02-27T10:22:30Z</time>
      </trkpt>
      <trkpt lat="47.90767" lon="7.13201">
        <ele>966.09924</ele>
        <time>2014-02-27T10:22:35Z</time>
      </trkpt>
      <trkpt lat="47.90768" lon="7.13191">
        <ele>966.09924</ele>
        <time>2014-02-27T10:22:40Z</time>
      </trkpt>
      <trkpt lat="47.90772" lon="7.13182">
        <ele>964.9297</ele>
        <time>2014-02-27T10:22:45Z</time>
      </trkpt>
      <trkpt lat="47.90773" lon="7.13176">
        <ele>964.9297</ele>
        <time>2014-02-27T10:22:50Z</time>
      </trkpt>
      <trkpt lat="47.90775" lon="7.13168">
        <ele>963.6303</ele>
        <time>2014-02-27T10:22:55Z</time>
      </trkpt>
      <trkpt lat="47.90778" lon="7.13161">
        <ele>963.6303</ele>
        <time>2014-02-27T10:23:00Z</time>
      </trkpt>
      <trkpt lat="47.90781" lon="7.13158">
        <ele>962.405</ele>
        <time>2014-02-27T10:23:05Z</time>
      </trkpt>
      <trkpt lat="47.90782" lon="7.1315">
        <ele>962.405</ele>
        <time>2014-02-27T10:23:10Z</time>
      </trkpt>
      <trkpt lat="47.90784" lon="7.13142">
        <ele>961.4426</ele>
        <time>2014-02-27T10:23:15Z</time>
      </trkpt>
      <trkpt lat="47.90786" lon="7.13134">
        <ele>961.4426</ele>
        <time>2014-02-27T10:23:20Z</time>
      </trkpt>
      <trkpt lat="47.90782" lon="7.13128">
        <ele>960.70087</ele>
        <time>2014-02-27T10:23:25Z</time>
      </trkpt>
      <trkpt lat="47.90781" lon="7.13127">
        <ele>960.70087</ele>
        <time>2014-02-27T10:23:30Z</time>
      </trkpt>
      <trkpt lat="47.90783" lon="7.13129">
        <ele>960.70087</ele>
        <time>2014-02-27T10:23:35Z</time>
      </trkpt>
      <trkpt lat="47.9078" lon="7.13123">
        <ele>960.70087</ele>
        <time>2014-02-27T10:23:40Z</time>
      </trkpt>
      <trkpt lat="47.90781" lon="7.13116">
        <ele>959.44836</ele>
        <time>2014-02-27T10:23:45Z</time>
      </trkpt>
      <trkpt lat="47.90785" lon="7.13105">
        <ele>959.44836</ele>
        <time>2014-02-27T10:23:50Z</time>
      </trkpt>
      <trkpt lat="47.90786" lon="7.13102">
        <ele>958.5362</ele>
        <time>2014-02-27T10:23:55Z</time>
      </trkpt>
      <trkpt lat="47.90786" lon="7.131">
        <ele>958.5362</ele>
        <time>2014-02-27T10:24:00Z</time>
      </trkpt>
      <trkpt lat="47.90788" lon="7.13092">
        <ele>958.5362</ele>
        <time>2014-02-27T10:24:05Z</time>
      </trkpt>
      <trkpt lat="47.9079" lon="7.13084">
        <ele>958.08905</ele>
        <time>2014-02-27T10:24:10Z</time>
      </trkpt>
      <trkpt lat="47.90792" lon="7.13077">
        <ele>958.08905</ele>
        <time>2014-02-27T10:24:15Z</time>
      </trkpt>
      <trkpt lat="47.90793" lon="7.13073">
        <ele>958.08905</ele>
        <time>2014-02-27T10:24:20Z</time>
      </trkpt>
      <trkpt lat="47.90793" lon="7.13069">
        <ele>958.293</ele>
        <time>2014-02-27T10:24:25Z</time>
      </trkpt>
      <trkpt lat="47.90794" lon="7.13062">
        <ele>958.293</ele>
        <time>2014-02-27T10:24:30Z</time>
      </trkpt>
      <trkpt lat="47.90797" lon="7.13059">
        <ele>958.293</ele>
        <time>2014-02-27T10:24:35Z</time>
      </trkpt>
      <trkpt lat="47.90798" lon="7.13055">
        <ele>959.04486</ele>
        <time>2014-02-27T10:24:40Z</time>
      </trkpt>
      <trkpt lat="47.90801" lon="7.13054">
        <ele>959.04486</ele>
        <time>2014-02-27T10:24:45Z</time>
      </trkpt>
      <trkpt lat="47.90803" lon="7.13049">
        <ele>959.04486</ele>
        <time>2014-02-27T10:24:50Z</time>
      </trkpt>
      <trkpt lat="47.90805" lon="7.13044">
        <ele>961.19824</ele>
        <time>2014-02-27T10:24:55Z</time>
      </trkpt>
      <trkpt lat="47.90807" lon="7.13039">
        <ele>961.19824</ele>
        <time>2014-02-27T10:25:00Z</time>
      </trkpt>
      <trkpt lat="47.90809" lon="7.13032">
        <ele>961.19824</ele>
        <time>2014-02-27T10:25:05Z</time>
      </trkpt>
      <trkpt lat="47.90811" lon="7.13028">
        <ele>963.62354</ele>
        <time>2014-02-27T10:25:10Z</time>
      </trkpt>
      <trkpt lat="47.90811" lon="7.1302">
        <ele>963.62354</ele>
        <time>2014-02-27T10:25:15Z</time>
      </trkpt>
      <trkpt lat="47.90811" lon="7.13013">
        <ele>965.7632</ele>
        <time>2014-02-27T10:25:20Z</time>
      </trkpt>
      <trkpt lat="47.90814" lon="7.13002">
        <ele>965.7632</ele>
        <time>2014-02-27T10:25:25Z</time>
      </trkpt>
      <trkpt lat="47.90817" lon="7.12991">
        <ele>967.82184</ele>
        <time>2014-02-27T10:25:30Z</time>
      </trkpt>
      <trkpt lat="47.90818" lon="7.12983">
        <ele>967.82184</ele>
        <time>2014-02-27T10:25:35Z</time>
      </trkpt>
      <trkpt lat="47.90819" lon="7.12976">
        <ele>970.32074</ele>
        <time>2014-02-27T10:25:40Z</time>
      </trkpt>
      <trkpt lat="47.90819" lon="7.12966">
        <ele>970.32074</ele>
        <time>2014-02-27T10:25:45Z</time>
      </trkpt>
      <trkpt lat="47.90823" lon="7.1296">
        <ele>972.459</ele>
        <time>2014-02-27T10:25:50Z</time>
      </trkpt>
      <trkpt lat="47.90822" lon="7.12952">
        <ele>972.459</ele>
        <time>2014-02-27T10:25:55Z</time>
      </trkpt>
      <trkpt lat="47.90823" lon="7.1294">
        <ele>973.91345</ele>
        <time>2014-02-27T10:26:00Z</time>
      </trkpt>
      <trkpt lat="47.90828" lon="7.12931">
        <ele>973.91345</ele>
        <time>2014-02-27T10:26:05Z</time>
      </trkpt>
      <trkpt lat="47.9083" lon="7.12922">
        <ele>975.698</ele>
        <time>2014-02-27T10:26:10Z</time>
      </trkpt>
      <trkpt lat="47.90829" lon="7.12911">
        <ele>975.698</ele>
        <time>2014-02-27T10:26:15Z</time>
      </trkpt>
      <trkpt lat="47.90828" lon="7.12901">
        <ele>977.45404</ele>
        <time>2014-02-27T10:26:20Z</time>
      </trkpt>
      <trkpt lat="47.90826" lon="7.12894">
        <ele>977.45404</ele>
        <time>2014-02-27T10:26:25Z</time>
      </trkpt>
      <trkpt lat="47.90824" lon="7.12885">
        <ele>979.6422</ele>
        <time>2014-02-27T10:26:30Z</time>
      </trkpt>
      <trkpt lat="47.90824" lon="7.12878">
        <ele>979.6422</ele>
        <time>2014-02-27T10:26:35Z</time>
      </trkpt>
      <trkpt lat="47.90823" lon="7.12872">
        <ele>981.18915</ele>
        <time>2014-02-27T10:26:40Z</time>
      </trkpt>
      <trkpt lat="47.90823" lon="7.12865">
        <ele>981.18915</ele>
        <time>2014-02-27T10:26:45Z</time>
      </trkpt>
      <trkpt lat="47.90825" lon="7.12859">
        <ele>981.18915</ele>
        <time>2014-02-27T10:26:50Z</time>
      </trkpt>
      <trkpt lat="47.90827" lon="7.12853">
        <ele>982.2119</ele>
        <time>2014-02-27T10:26:55Z</time>
      </trkpt>
      <trkpt lat="47.9083" lon="7.12849">
        <ele>982.2119</ele>
        <time>2014-02-27T10:27:00Z</time>
      </trkpt>
      <trkpt lat="47.90833" lon="7.12842">
        <ele>983.1519</ele>
        <time>2014-02-27T10:27:05Z</time>
      </trkpt>
      <trkpt lat="47.90835" lon="7.12836">
        <ele>983.1519</ele>
        <time>2014-02-27T10:27:10Z</time>
      </trkpt>
      <trkpt lat="47.90837" lon="7.12831">
        <ele>983.1519</ele>
        <time>2014-02-27T10:27:15Z</time>
      </trkpt>
      <trkpt lat="47.9084" lon="7.12826">
        <ele>984.23096</ele>
        <time>2014-02-27T10:27:20Z</time>
      </trkpt>
      <trkpt lat="47.90845" lon="7.12821">
        <ele>984.23096</ele>
        <time>2014-02-27T10:27:25Z</time>
      </trkpt>
      <trkpt lat="47.90846" lon="7.12816">
        <ele>985.62555</ele>
        <time>2014-02-27T10:27:30Z</time>
      </trkpt>
      <trkpt lat="47.90846" lon="7.12814">
        <ele>985.62555</ele>
        <time>2014-02-27T10:27:35Z</time>
      </trkpt>
      <trkpt lat="47.90845" lon="7.12815">
        <ele>985.62555</ele>
        <time>2014-02-27T10:27:40Z</time>
      </trkpt>
      <trkpt lat="47.90845" lon="7.12816">
        <ele>985.62555</ele>
        <time>2014-02-27T10:27:45Z</time>
      </trkpt>
      <trkpt lat="47.90845" lon="7.12817">
        <ele>985.62555</ele>
        <time>2014-02-27T10:27:50Z</time>
      </trkpt>
      <trkpt lat="47.90845" lon="7.12821">
        <ele>985.62555</ele>
        <time>2014-02-27T10:27:55Z</time>
      </trkpt>
      <trkpt lat="47.90844" lon="7.12822">
        <ele>985.62555</ele>
        <time>2014-02-27T10:28:00Z</time>
      </trkpt>
      <trkpt lat="47.90839" lon="7.12819">
        <ele>987.0226</ele>
        <time>2014-02-27T10:28:05Z</time>
      </trkpt>
      <trkpt lat="47.90838" lon="7.12818">
        <ele>987.0226</ele>
        <time>2014-02-27T10:28:10Z</time>
      </trkpt>
      <trkpt lat="47.90838" lon="7.12817">
        <ele>987.0226</ele>
        <time>2014-02-27T10:28:15Z</time>
      </trkpt>
      <trkpt lat="47.90838" lon="7.12817">
        <ele>987.0226</ele>
        <time>2014-02-27T10:28:20Z</time>
      </trkpt>
      <trkpt lat="47.90838" lon="7.12817">
        <ele>987.0226</ele>
        <time>2014-02-27T10:28:25Z</time>
      </trkpt>
      <trkpt lat="47.90838" lon="7.12817">
        <ele>987.0226</ele>
        <time>2014-02-27T10:28:30Z</time>
      </trkpt>
      <trkpt lat="47.90838" lon="7.12817">
        <ele>987.0226</ele>
        <time>2014-02-27T10:28:35Z</time>
      </trkpt>
      <trkpt lat="47.90838" lon="7.12817">
        <ele>987.0226</ele>
        <time>2014-02-27T10:28:40Z</time>
      </trkpt>
      <trkpt lat="47.90838" lon="7.12817">
        <ele>987.0226</ele>
        <time>2014-02-27T10:28:45Z</time>
      </trkpt>
      <trkpt lat="47.90838" lon="7.12817">
        <ele>987.0226</ele>
        <time>2014-02-27T10:28:50Z</time>
      </trkpt>
      <trkpt lat="47.90838" lon="7.12817">
        <ele>987.0226</ele>
        <time>2014-02-27T10:28:55Z</time>
      </trkpt>
      <trkpt lat="47.90838" lon="7.12817">
        <ele>987.0226</ele>
        <time>2014-02-27T10:29:00Z</time>
      </trkpt>
      <trkpt lat="47.90838" lon="7.12817">
        <ele>987.0226</ele>
        <time>2014-02-27T10:29:05Z</time>
      </trkpt>
      <trkpt lat="47.90838" lon="7.12817">
        <ele>987.0226</ele>
        <time>2014-02-27T10:29:10Z</time>
      </trkpt>
      <trkpt lat="47.90838" lon="7.12817">
        <ele>987.0226</ele>
        <time>2014-02-27T10:29:15Z</time>
      </trkpt>
      <trkpt lat="47.90838" lon="7.12817">
        <ele>987.0226</ele>
        <time>2014-02-27T10:29:20Z</time>
      </trkpt>
      <trkpt lat="47.90836" lon="7.12817">
        <ele>987.0226</ele>
        <time>2014-02-27T10:41:29Z</time>
      </trkpt>
      <trkpt lat="47.90836" lon="7.12817">
        <ele>987.0226</ele>
        <time>2014-02-27T10:41:34Z</time>
      </trkpt>
      <trkpt lat="47.90836" lon="7.12817">
        <ele>987.0226</ele>
        <time>2014-02-27T10:41:39Z</time>
      </trkpt>
      <trkpt lat="47.90836" lon="7.12817">
        <ele>987.0226</ele>
        <time>2014-02-27T10:41:44Z</time>
      </trkpt>
      <trkpt lat="47.90836" lon="7.12817">
        <ele>987.0226</ele>
        <time>2014-02-27T10:41:49Z</time>
      </trkpt>
      <trkpt lat="47.90836" lon="7.12817">
        <ele>987.0226</ele>
        <time>2014-02-27T10:41:54Z</time>
      </trkpt>
      <trkpt lat="47.90836" lon="7.12821">
        <ele>987.0226</ele>
        <time>2014-02-27T10:41:59Z</time>
      </trkpt>
      <trkpt lat="47.90837" lon="7.12822">
        <ele>987.0226</ele>
        <time>2014-02-27T10:42:04Z</time>
      </trkpt>
      <trkpt lat="47.90837" lon="7.12822">
        <ele>987.0226</ele>
        <time>2014-02-27T10:42:09Z</time>
      </trkpt>
      <trkpt lat="47.90838" lon="7.12814">
        <ele>987.354</ele>
        <time>2014-02-27T10:42:14Z</time>
      </trkpt>
      <trkpt lat="47.90837" lon="7.12814">
        <ele>987.354</ele>
        <time>2014-02-27T10:42:19Z</time>
      </trkpt>
      <trkpt lat="47.90835" lon="7.12815">
        <ele>987.354</ele>
        <time>2014-02-27T10:42:24Z</time>
      </trkpt>
      <trkpt lat="47.90839" lon="7.1282">
        <ele>987.354</ele>
        <time>2014-02-27T10:42:29Z</time>
      </trkpt>
      <trkpt lat="47.90842" lon="7.1282">
        <ele>987.7082</ele>
        <time>2014-02-27T10:42:34Z</time>
      </trkpt>
      <trkpt lat="47.90847" lon="7.12819">
        <ele>987.7082</ele>
        <time>2014-02-27T10:42:39Z</time>
      </trkpt>
      <trkpt lat="47.90853" lon="7.12818">
        <ele>988.11383</ele>
        <time>2014-02-27T10:42:44Z</time>
      </trkpt>
      <trkpt lat="47.90855" lon="7.12819">
        <ele>988.11383</ele>
        <time>2014-02-27T10:42:49Z</time>
      </trkpt>
      <trkpt lat="47.90862" lon="7.12818">
        <ele>988.11383</ele>
        <time>2014-02-27T10:42:54Z</time>
      </trkpt>
      <trkpt lat="47.90868" lon="7.12813">
        <ele>988.97186</ele>
        <time>2014-02-27T10:42:59Z</time>
      </trkpt>
      <trkpt lat="47.90872" lon="7.12809">
        <ele>988.97186</ele>
        <time>2014-02-27T10:43:04Z</time>
      </trkpt>
      <trkpt lat="47.90877" lon="7.12803">
        <ele>989.7735</ele>
        <time>2014-02-27T10:43:09Z</time>
      </trkpt>
      <trkpt lat="47.90882" lon="7.128">
        <ele>989.7735</ele>
        <time>2014-02-27T10:43:14Z</time>
      </trkpt>
      <trkpt lat="47.90885" lon="7.12796">
        <ele>990.30695</ele>
        <time>2014-02-27T10:43:19Z</time>
      </trkpt>
      <trkpt lat="47.90887" lon="7.12795">
        <ele>990.30695</ele>
        <time>2014-02-27T10:43:24Z</time>
      </trkpt>
      <trkpt lat="47.90887" lon="7.12795">
        <ele>990.30695</ele>
        <time>2014-02-27T10:43:29Z</time>
      </trkpt>
      <trkpt lat="47.90887" lon="7.12795">
        <ele>990.30695</ele>
        <time>2014-02-27T10:43:34Z</time>
      </trkpt>
      <trkpt lat="47.90887" lon="7.12795">
        <ele>990.30695</ele>
        <time>2014-02-27T10:43:39Z</time>
      </trkpt>
      <trkpt lat="47.90888" lon="7.12795">
        <ele>990.30695</ele>
        <time>2014-02-27T10:43:44Z</time>
      </trkpt>
      <trkpt lat="47.90903" lon="7.12791">
        <ele>991.6737</ele>
        <time>2014-02-27T10:43:49Z</time>
      </trkpt>
      <trkpt lat="47.90908" lon="7.1279">
        <ele>991.6737</ele>
        <time>2014-02-27T10:43:54Z</time>
      </trkpt>
      <trkpt lat="47.90911" lon="7.12789">
        <ele>991.6737</ele>
        <time>2014-02-27T10:43:59Z</time>
      </trkpt>
      <trkpt lat="47.90911" lon="7.12789">
        <ele>991.6737</ele>
        <time>2014-02-27T10:44:04Z</time>
      </trkpt>
      <trkpt lat="47.90912" lon="7.12789">
        <ele>991.6737</ele>
        <time>2014-02-27T10:44:09Z</time>
      </trkpt>
      <trkpt lat="47.90921" lon="7.12783">
        <ele>993.49414</ele>
        <time>2014-02-27T10:44:14Z</time>
      </trkpt>
      <trkpt lat="47.90928" lon="7.12779">
        <ele>993.49414</ele>
        <time>2014-02-27T10:44:19Z</time>
      </trkpt>
      <trkpt lat="47.9093" lon="7.12779">
        <ele>995.2279</ele>
        <time>2014-02-27T10:44:24Z</time>
      </trkpt>
      <trkpt lat="47.90935" lon="7.12777">
        <ele>995.2279</ele>
        <time>2014-02-27T10:44:29Z</time>
      </trkpt>
      <trkpt lat="47.90945" lon="7.1277">
        <ele>997.4411</ele>
        <time>2014-02-27T10:44:34Z</time>
      </trkpt>
      <trkpt lat="47.90952" lon="7.12769">
        <ele>997.4411</ele>
        <time>2014-02-27T10:44:39Z</time>
      </trkpt>
      <trkpt lat="47.90957" lon="7.12763">
        <ele>1000.1524</ele>
        <time>2014-02-27T10:44:44Z</time>
      </trkpt>
      <trkpt lat="47.90961" lon="7.12755">
        <ele>1000.1524</ele>
        <time>2014-02-27T10:44:49Z</time>
      </trkpt>
      <trkpt lat="47.90965" lon="7.12753">
        <ele>1002.6428</ele>
        <time>2014-02-27T10:44:54Z</time>
      </trkpt>
      <trkpt lat="47.90973" lon="7.12753">
        <ele>1002.6428</ele>
        <time>2014-02-27T10:44:59Z</time>
      </trkpt>
      <trkpt lat="47.90975" lon="7.12753">
        <ele>1005.1837</ele>
        <time>2014-02-27T10:45:04Z</time>
      </trkpt>
      <trkpt lat="47.90978" lon="7.12752">
        <ele>1005.1837</ele>
        <time>2014-02-27T10:45:09Z</time>
      </trkpt>
      <trkpt lat="47.90981" lon="7.12747">
        <ele>1005.1837</ele>
        <time>2014-02-27T10:45:14Z</time>
      </trkpt>
      <trkpt lat="47.90985" lon="7.12745">
        <ele>1007.39215</ele>
        <time>2014-02-27T10:45:19Z</time>
      </trkpt>
      <trkpt lat="47.90988" lon="7.12745">
        <ele>1007.39215</ele>
        <time>2014-02-27T10:45:24Z</time>
      </trkpt>
      <trkpt lat="47.90992" lon="7.12743">
        <ele>1007.39215</ele>
        <time>2014-02-27T10:45:29Z</time>
      </trkpt>
      <trkpt lat="47.90994" lon="7.12743">
        <ele>1009.64935</ele>
        <time>2014-02-27T10:45:34Z</time>
      </trkpt>
      <trkpt lat="47.90995" lon="7.12742">
        <ele>1009.64935</ele>
        <time>2014-02-27T10:45:39Z</time>
      </trkpt>
      <trkpt lat="47.90995" lon="7.12742">
        <ele>1009.64935</ele>
        <time>2014-02-27T10:45:44Z</time>
      </trkpt>
      <trkpt lat="47.90995" lon="7.12742">
        <ele>1009.64935</ele>
        <time>2014-02-27T10:45:49Z</time>
      </trkpt>
      <trkpt lat="47.90995" lon="7.12742">
        <ele>1009.64935</ele>
        <time>2014-02-27T10:45:54Z</time>
      </trkpt>
      <trkpt lat="47.91007" lon="7.12736">
        <ele>1011.66</ele>
        <time>2014-02-27T10:45:59Z</time>
      </trkpt>
      <trkpt lat="47.91022" lon="7.12728">
        <ele>1013.4106</ele>
        <time>2014-02-27T10:46:04Z</time>
      </trkpt>
      <trkpt lat="47.91034" lon="7.12726">
        <ele>1014.803</ele>
        <time>2014-02-27T10:46:09Z</time>
      </trkpt>
      <trkpt lat="47.9104" lon="7.12725">
        <ele>1014.803</ele>
        <time>2014-02-27T10:46:14Z</time>
      </trkpt>
      <trkpt lat="47.9104" lon="7.1272">
        <ele>1016.0356</ele>
        <time>2014-02-27T10:46:19Z</time>
      </trkpt>
      <trkpt lat="47.91042" lon="7.1272">
        <ele>1016.0356</ele>
        <time>2014-02-27T10:46:24Z</time>
      </trkpt>
      <trkpt lat="47.91047" lon="7.12717">
        <ele>1016.0356</ele>
        <time>2014-02-27T10:46:29Z</time>
      </trkpt>
      <trkpt lat="47.91049" lon="7.12716">
        <ele>1017.6384</ele>
        <time>2014-02-27T10:46:34Z</time>
      </trkpt>
      <trkpt lat="47.91052" lon="7.12717">
        <ele>1017.6384</ele>
        <time>2014-02-27T10:46:39Z</time>
      </trkpt>
      <trkpt lat="47.91052" lon="7.12716">
        <ele>1017.6384</ele>
        <time>2014-02-27T10:46:44Z</time>
      </trkpt>
      <trkpt lat="47.91055" lon="7.12714">
        <ele>1017.6384</ele>
        <time>2014-02-27T10:46:49Z</time>
      </trkpt>
      <trkpt lat="47.91055" lon="7.12712">
        <ele>1017.6384</ele>
        <time>2014-02-27T10:46:54Z</time>
      </trkpt>
      <trkpt lat="47.91057" lon="7.12711">
        <ele>1019.4246</ele>
        <time>2014-02-27T10:46:59Z</time>
      </trkpt>
      <trkpt lat="47.9106" lon="7.12711">
        <ele>1019.4246</ele>
        <time>2014-02-27T10:47:04Z</time>
      </trkpt>
      <trkpt lat="47.91066" lon="7.1271">
        <ele>1022.14264</ele>
        <time>2014-02-27T10:47:09Z</time>
      </trkpt>
      <trkpt lat="47.91073" lon="7.12706">
        <ele>1022.14264</ele>
        <time>2014-02-27T10:47:14Z</time>
      </trkpt>
      <trkpt lat="47.9108" lon="7.12704">
        <ele>1024.8982</ele>
        <time>2014-02-27T10:47:19Z</time>
      </trkpt>
      <trkpt lat="47.91082" lon="7.12704">
        <ele>1024.8982</ele>
        <time>2014-02-27T10:47:24Z</time>
      </trkpt>
      <trkpt lat="47.91083" lon="7.12704">
        <ele>1024.8982</ele>
        <time>2014-02-27T10:47:29Z</time>
      </trkpt>
      <trkpt lat="47.91087" lon="7.127">
        <ele>1024.8982</ele>
        <time>2014-02-27T10:47:34Z</time>
      </trkpt>
      <trkpt lat="47.91095" lon="7.12694">
        <ele>1027.7421</ele>
        <time>2014-02-27T10:47:39Z</time>
      </trkpt>
      <trkpt lat="47.91101" lon="7.12685">
        <ele>1027.7421</ele>
        <time>2014-02-27T10:47:44Z</time>
      </trkpt>
      <trkpt lat="47.91104" lon="7.12682">
        <ele>1029.9281</ele>
        <time>2014-02-27T10:47:49Z</time>
      </trkpt>
      <trkpt lat="47.91107" lon="7.12676">
        <ele>1029.9281</ele>
        <time>2014-02-27T10:47:54Z</time>
      </trkpt>
      <trkpt lat="47.91107" lon="7.1268">
        <ele>1029.9281</ele>
        <time>2014-02-27T10:47:59Z</time>
      </trkpt>
      <trkpt lat="47.91109" lon="7.12677">
        <ele>1032.3091</ele>
        <time>2014-02-27T10:48:04Z</time>
      </trkpt>
      <trkpt lat="47.91115" lon="7.12673">
        <ele>1032.3091</ele>
        <time>2014-02-27T10:48:09Z</time>
      </trkpt>
      <trkpt lat="47.91121" lon="7.12673">
        <ele>1034.421</ele>
        <time>2014-02-27T10:48:14Z</time>
      </trkpt>
      <trkpt lat="47.91124" lon="7.12672">
        <ele>1034.421</ele>
        <time>2014-02-27T10:48:19Z</time>
      </trkpt>
      <trkpt lat="47.91124" lon="7.12672">
        <ele>1034.421</ele>
        <time>2014-02-27T10:48:24Z</time>
      </trkpt>
      <trkpt lat="47.91127" lon="7.12674">
        <ele>1034.421</ele>
        <time>2014-02-27T10:48:29Z</time>
      </trkpt>
      <trkpt lat="47.91127" lon="7.12675">
        <ele>1034.421</ele>
        <time>2014-02-27T10:48:34Z</time>
      </trkpt>
      <trkpt lat="47.91129" lon="7.12674">
        <ele>1036.5408</ele>
        <time>2014-02-27T10:48:39Z</time>
      </trkpt>
      <trkpt lat="47.91133" lon="7.12672">
        <ele>1036.5408</ele>
        <time>2014-02-27T10:48:44Z</time>
      </trkpt>
      <trkpt lat="47.91135" lon="7.12672">
        <ele>1036.5408</ele>
        <time>2014-02-27T10:48:49Z</time>
      </trkpt>
      <trkpt lat="47.91138" lon="7.1267">
        <ele>1036.5408</ele>
        <time>2014-02-27T10:48:54Z</time>
      </trkpt>
      <trkpt lat="47.91141" lon="7.12669">
        <ele>1038.7666</ele>
        <time>2014-02-27T10:48:59Z</time>
      </trkpt>
      <trkpt lat="47.91144" lon="7.12669">
        <ele>1038.7666</ele>
        <time>2014-02-27T10:49:04Z</time>
      </trkpt>
      <trkpt lat="47.91152" lon="7.12666">
        <ele>1040.4543</ele>
        <time>2014-02-27T10:49:09Z</time>
      </trkpt>
      <trkpt lat="47.91158" lon="7.12663">
        <ele>1040.4543</ele>
        <time>2014-02-27T10:49:14Z</time>
      </trkpt>
      <trkpt lat="47.91162" lon="7.12662">
        <ele>1041.7148</ele>
        <time>2014-02-27T10:49:19Z</time>
      </trkpt>
      <trkpt lat="47.91163" lon="7.12662">
        <ele>1041.7148</ele>
        <time>2014-02-27T10:49:24Z</time>
      </trkpt>
      <trkpt lat="47.91165" lon="7.1266">
        <ele>1041.7148</ele>
        <time>2014-02-27T10:49:29Z</time>
      </trkpt>
      <trkpt lat="47.91171" lon="7.12659">
        <ele>1043.1276</ele>
        <time>2014-02-27T10:49:34Z</time>
      </trkpt>
      <trkpt lat="47.91173" lon="7.12654">
        <ele>1043.1276</ele>
        <time>2014-02-27T10:49:39Z</time>
      </trkpt>
      <trkpt lat="47.9118" lon="7.1265">
        <ele>1044.307</ele>
        <time>2014-02-27T10:49:44Z</time>
      </trkpt>
      <trkpt lat="47.91184" lon="7.12645">
        <ele>1044.307</ele>
        <time>2014-02-27T10:49:49Z</time>
      </trkpt>
      <trkpt lat="47.91188" lon="7.1264">
        <ele>1044.9398</ele>
        <time>2014-02-27T10:49:54Z</time>
      </trkpt>
      <trkpt lat="47.91192" lon="7.12638">
        <ele>1044.9398</ele>
        <time>2014-02-27T10:49:59Z</time>
      </trkpt>
      <trkpt lat="47.91196" lon="7.12634">
        <ele>1044.9398</ele>
        <time>2014-02-27T10:50:04Z</time>
      </trkpt>
      <trkpt lat="47.91199" lon="7.12633">
        <ele>1045.6594</ele>
        <time>2014-02-27T10:50:09Z</time>
      </trkpt>
      <trkpt lat="47.912" lon="7.12626">
        <ele>1045.6594</ele>
        <time>2014-02-27T10:50:14Z</time>
      </trkpt>
      <trkpt lat="47.91203" lon="7.1262">
        <ele>1046.1593</ele>
        <time>2014-02-27T10:50:19Z</time>
      </trkpt>
      <trkpt lat="47.91206" lon="7.12617">
        <ele>1046.1593</ele>
        <time>2014-02-27T10:50:24Z</time>
      </trkpt>
      <trkpt lat="47.91209" lon="7.12612">
        <ele>1046.1593</ele>
        <time>2014-02-27T10:50:29Z</time>
      </trkpt>
      <trkpt lat="47.91213" lon="7.12609">
        <ele>1047.0349</ele>
        <time>2014-02-27T10:50:34Z</time>
      </trkpt>
      <trkpt lat="47.91217" lon="7.12606">
        <ele>1047.0349</ele>
        <time>2014-02-27T10:50:39Z</time>
      </trkpt>
      <trkpt lat="47.91221" lon="7.12604">
        <ele>1048.0302</ele>
        <time>2014-02-27T10:50:44Z</time>
      </trkpt>
      <trkpt lat="47.91225" lon="7.126">
        <ele>1048.0302</ele>
        <time>2014-02-27T10:50:49Z</time>
      </trkpt>
      <trkpt lat="47.9123" lon="7.12596">
        <ele>1048.7198</ele>
        <time>2014-02-27T10:50:54Z</time>
      </trkpt>
      <trkpt lat="47.91234" lon="7.1259">
        <ele>1048.7198</ele>
        <time>2014-02-27T10:50:59Z</time>
      </trkpt>
      <trkpt lat="47.91236" lon="7.12581">
        <ele>1049.3885</ele>
        <time>2014-02-27T10:51:04Z</time>
      </trkpt>
      <trkpt lat="47.91239" lon="7.12574">
        <ele>1049.3885</ele>
        <time>2014-02-27T10:51:09Z</time>
      </trkpt>
      <trkpt lat="47.91245" lon="7.1257">
        <ele>1049.954</ele>
        <time>2014-02-27T10:51:14Z</time>
      </trkpt>
      <trkpt lat="47.91249" lon="7.12567">
        <ele>1049.954</ele>
        <time>2014-02-27T10:51:19Z</time>
      </trkpt>
      <trkpt lat="47.91253" lon="7.12563">
        <ele>1051.1326</ele>
        <time>2014-02-27T10:51:24Z</time>
      </trkpt>
      <trkpt lat="47.91258" lon="7.12559">
        <ele>1051.1326</ele>
        <time>2014-02-27T10:51:29Z</time>
      </trkpt>
      <trkpt lat="47.91261" lon="7.12555">
        <ele>1052.7941</ele>
        <time>2014-02-27T10:51:34Z</time>
      </trkpt>
      <trkpt lat="47.91263" lon="7.12551">
        <ele>1052.7941</ele>
        <time>2014-02-27T10:51:39Z</time>
      </trkpt>
      <trkpt lat="47.91266" lon="7.12547">
        <ele>1052.7941</ele>
        <time>2014-02-27T10:51:44Z</time>
      </trkpt>
      <trkpt lat="47.91269" lon="7.12544">
        <ele>1055.0757</ele>
        <time>2014-02-27T10:51:49Z</time>
      </trkpt>
      <trkpt lat="47.91271" lon="7.12539">
        <ele>1055.0757</ele>
        <time>2014-02-27T10:51:54Z</time>
      </trkpt>
      <trkpt lat="47.91275" lon="7.12534">
        <ele>1057.3391</ele>
        <time>2014-02-27T10:51:59Z</time>
      </trkpt>
      <trkpt lat="47.91277" lon="7.12531">
        <ele>1057.3391</ele>
        <time>2014-02-27T10:52:04Z</time>
      </trkpt>
      <trkpt lat="47.9128" lon="7.12531">
        <ele>1057.3391</ele>
        <time>2014-02-27T10:52:09Z</time>
      </trkpt>
      <trkpt lat="47.91287" lon="7.12529">
        <ele>1059.8143</ele>
        <time>2014-02-27T10:52:14Z</time>
      </trkpt>
      <trkpt lat="47.9129" lon="7.12528">
        <ele>1059.8143</ele>
        <time>2014-02-27T10:52:19Z</time>
      </trkpt>
      <trkpt lat="47.91294" lon="7.12529">
        <ele>1059.8143</ele>
        <time>2014-02-27T10:52:24Z</time>
      </trkpt>
      <trkpt lat="47.91294" lon="7.12527">
        <ele>1059.8143</ele>
        <time>2014-02-27T10:52:29Z</time>
      </trkpt>
      <trkpt lat="47.91296" lon="7.12525">
        <ele>1063.031</ele>
        <time>2014-02-27T10:52:34Z</time>
      </trkpt>
      <trkpt lat="47.91302" lon="7.12522">
        <ele>1063.031</ele>
        <time>2014-02-27T10:52:39Z</time>
      </trkpt>
      <trkpt lat="47.91306" lon="7.12512">
        <ele>1066.4977</ele>
        <time>2014-02-27T10:52:44Z</time>
      </trkpt>
      <trkpt lat="47.91309" lon="7.12504">
        <ele>1066.4977</ele>
        <time>2014-02-27T10:52:49Z</time>
      </trkpt>
      <trkpt lat="47.9131" lon="7.12497">
        <ele>1069.5133</ele>
        <time>2014-02-27T10:52:54Z</time>
      </trkpt>
      <trkpt lat="47.91312" lon="7.12492">
        <ele>1069.5133</ele>
        <time>2014-02-27T10:52:59Z</time>
      </trkpt>
      <trkpt lat="47.91313" lon="7.12489">
        <ele>1069.5133</ele>
        <time>2014-02-27T10:53:04Z</time>
      </trkpt>
      <trkpt lat="47.91317" lon="7.12485">
        <ele>1072.0785</ele>
        <time>2014-02-27T10:53:09Z</time>
      </trkpt>
      <trkpt lat="47.9132" lon="7.12477">
        <ele>1072.0785</ele>
        <time>2014-02-27T10:53:14Z</time>
      </trkpt>
      <trkpt lat="47.91324" lon="7.1247">
        <ele>1074.2668</ele>
        <time>2014-02-27T10:53:19Z</time>
      </trkpt>
      <trkpt lat="47.91324" lon="7.12463">
        <ele>1074.2668</ele>
        <time>2014-02-27T10:53:24Z</time>
      </trkpt>
      <trkpt lat="47.91327" lon="7.1246">
        <ele>1074.2668</ele>
        <time>2014-02-27T10:53:29Z</time>
      </trkpt>
      <trkpt lat="47.91329" lon="7.12456">
        <ele>1076.0468</ele>
        <time>2014-02-27T10:53:34Z</time>
      </trkpt>
      <trkpt lat="47.91332" lon="7.12451">
        <ele>1076.0468</ele>
        <time>2014-02-27T10:53:39Z</time>
      </trkpt>
      <trkpt lat="47.91333" lon="7.12446">
        <ele>1076.0468</ele>
        <time>2014-02-27T10:53:44Z</time>
      </trkpt>
      <trkpt lat="47.91334" lon="7.12441">
        <ele>1077.5632</ele>
        <time>2014-02-27T10:53:49Z</time>
      </trkpt>
      <trkpt lat="47.91336" lon="7.12436">
        <ele>1077.5632</ele>
        <time>2014-02-27T10:53:54Z</time>
      </trkpt>
      <trkpt lat="47.9134" lon="7.12425">
        <ele>1079.5277</ele>
        <time>2014-02-27T10:53:59Z</time>
      </trkpt>
      <trkpt lat="47.91342" lon="7.12423">
        <ele>1079.5277</ele>
        <time>2014-02-27T10:54:04Z</time>
      </trkpt>
      <trkpt lat="47.91345" lon="7.12417">
        <ele>1079.5277</ele>
        <time>2014-02-27T10:54:09Z</time>
      </trkpt>
      <trkpt lat="47.91348" lon="7.12417">
        <ele>1081.7194</ele>
        <time>2014-02-27T10:54:14Z</time>
      </trkpt>
      <trkpt lat="47.91352" lon="7.12414">
        <ele>1081.7194</ele>
        <time>2014-02-27T10:54:19Z</time>
      </trkpt>
      <trkpt lat="47.91352" lon="7.12405">
        <ele>1083.6876</ele>
        <time>2014-02-27T10:54:24Z</time>
      </trkpt>
      <trkpt lat="47.91353" lon="7.12401">
        <ele>1083.6876</ele>
        <time>2014-02-27T10:54:29Z</time>
      </trkpt>
      <trkpt lat="47.91355" lon="7.12395">
        <ele>1083.6876</ele>
        <time>2014-02-27T10:54:34Z</time>
      </trkpt>
      <trkpt lat="47.91356" lon="7.12391">
        <ele>1085.5636</ele>
        <time>2014-02-27T10:54:39Z</time>
      </trkpt>
      <trkpt lat="47.91356" lon="7.12385">
        <ele>1085.5636</ele>
        <time>2014-02-27T10:54:44Z</time>
      </trkpt>
      <trkpt lat="47.91359" lon="7.12378">
        <ele>1086.7196</ele>
        <time>2014-02-27T10:54:49Z</time>
      </trkpt>
      <trkpt lat="47.91362" lon="7.12374">
        <ele>1086.7196</ele>
        <time>2014-02-27T10:54:54Z</time>
      </trkpt>
      <trkpt lat="47.91363" lon="7.1237">
        <ele>1086.7196</ele>
        <time>2014-02-27T10:54:59Z</time>
      </trkpt>
      <trkpt lat="47.91367" lon="7.1237">
        <ele>1088.6367</ele>
        <time>2014-02-27T10:55:04Z</time>
      </trkpt>
      <trkpt lat="47.9137" lon="7.12365">
        <ele>1088.6367</ele>
        <time>2014-02-27T10:55:09Z</time>
      </trkpt>
      <trkpt lat="47.91372" lon="7.12357">
        <ele>1090.1779</ele>
        <time>2014-02-27T10:55:14Z</time>
      </trkpt>
      <trkpt lat="47.91374" lon="7.12352">
        <ele>1090.1779</ele>
        <time>2014-02-27T10:55:19Z</time>
      </trkpt>
      <trkpt lat="47.91377" lon="7.12347">
        <ele>1090.1779</ele>
        <time>2014-02-27T10:55:24Z</time>
      </trkpt>
      <trkpt lat="47.91381" lon="7.12342">
        <ele>1092.0342</ele>
        <time>2014-02-27T10:55:29Z</time>
      </trkpt>
      <trkpt lat="47.91384" lon="7.12336">
        <ele>1092.0342</ele>
        <time>2014-02-27T10:55:34Z</time>
      </trkpt>
      <trkpt lat="47.91386" lon="7.1233">
        <ele>1093.8798</ele>
        <time>2014-02-27T10:55:39Z</time>
      </trkpt>
      <trkpt lat="47.91388" lon="7.12327">
        <ele>1093.8798</ele>
        <time>2014-02-27T10:55:44Z</time>
      </trkpt>
      <trkpt lat="47.91391" lon="7.12323">
        <ele>1093.8798</ele>
        <time>2014-02-27T10:55:49Z</time>
      </trkpt>
      <trkpt lat="47.91395" lon="7.12323">
        <ele>1095.8303</ele>
        <time>2014-02-27T10:55:54Z</time>
      </trkpt>
      <trkpt lat="47.91395" lon="7.12321">
        <ele>1095.8303</ele>
        <time>2014-02-27T10:55:59Z</time>
      </trkpt>
      <trkpt lat="47.91399" lon="7.12316">
        <ele>1095.8303</ele>
        <time>2014-02-27T10:56:04Z</time>
      </trkpt>
      <trkpt lat="47.91402" lon="7.1231">
        <ele>1097.7482</ele>
        <time>2014-02-27T10:56:09Z</time>
      </trkpt>
      <trkpt lat="47.91403" lon="7.12295">
        <ele>1099.203</ele>
        <time>2014-02-27T10:56:14Z</time>
      </trkpt>
      <trkpt lat="47.91407" lon="7.12289">
        <ele>1099.203</ele>
        <time>2014-02-27T10:56:19Z</time>
      </trkpt>
      <trkpt lat="47.91411" lon="7.12282">
        <ele>1100.2443</ele>
        <time>2014-02-27T10:56:24Z</time>
      </trkpt>
      <trkpt lat="47.91411" lon="7.12279">
        <ele>1100.2443</ele>
        <time>2014-02-27T10:56:29Z</time>
      </trkpt>
      <trkpt lat="47.91411" lon="7.12273">
        <ele>1100.2443</ele>
        <time>2014-02-27T10:56:34Z</time>
      </trkpt>
      <trkpt lat="47.91418" lon="7.12271">
        <ele>1100.9766</ele>
        <time>2014-02-27T10:56:39Z</time>
      </trkpt>
      <trkpt lat="47.91419" lon="7.12263">
        <ele>1100.9766</ele>
        <time>2014-02-27T10:56:44Z</time>
      </trkpt>
      <trkpt lat="47.91419" lon="7.12258">
        <ele>1100.9766</ele>
        <time>2014-02-27T10:56:49Z</time>
      </trkpt>
      <trkpt lat="47.91419" lon="7.12254">
        <ele>1101.5986</ele>
        <time>2014-02-27T10:56:54Z</time>
      </trkpt>
      <trkpt lat="47.9142" lon="7.12254">
        <ele>1101.5986</ele>
        <time>2014-02-27T10:56:59Z</time>
      </trkpt>
      <trkpt lat="47.91423" lon="7.12251">
        <ele>1101.5986</ele>
        <time>2014-02-27T10:57:04Z</time>
      </trkpt>
      <trkpt lat="47.91425" lon="7.12246">
        <ele>1101.5986</ele>
        <time>2014-02-27T10:57:09Z</time>
      </trkpt>
      <trkpt lat="47.91422" lon="7.12248">
        <ele>1101.8335</ele>
        <time>2014-02-27T10:57:14Z</time>
      </trkpt>
      <trkpt lat="47.91423" lon="7.12248">
        <ele>1101.8335</ele>
        <time>2014-02-27T10:57:19Z</time>
      </trkpt>
      <trkpt lat="47.91423" lon="7.12248">
        <ele>1101.8335</ele>
        <time>2014-02-27T10:57:24Z</time>
      </trkpt>
      <trkpt lat="47.91423" lon="7.12244">
        <ele>1101.8335</ele>
        <time>2014-02-27T10:57:29Z</time>
      </trkpt>
      <trkpt lat="47.91426" lon="7.12232">
        <ele>1101.5846</ele>
        <time>2014-02-27T10:57:34Z</time>
      </trkpt>
      <trkpt lat="47.91428" lon="7.12225">
        <ele>1101.5846</ele>
        <time>2014-02-27T10:57:39Z</time>
      </trkpt>
      <trkpt lat="47.91429" lon="7.12222">
        <ele>1101.5846</ele>
        <time>2014-02-27T10:57:44Z</time>
      </trkpt>
      <trkpt lat="47.91434" lon="7.12218">
        <ele>1101.383</ele>
        <time>2014-02-27T10:57:49Z</time>
      </trkpt>
      <trkpt lat="47.91437" lon="7.12217">
        <ele>1101.383</ele>
        <time>2014-02-27T10:57:54Z</time>
      </trkpt>
      <trkpt lat="47.91439" lon="7.12217">
        <ele>1101.383</ele>
        <time>2014-02-27T10:57:59Z</time>
      </trkpt>
      <trkpt lat="47.91446" lon="7.1221">
        <ele>1102.0668</ele>
        <time>2014-02-27T10:58:04Z</time>
      </trkpt>
      <trkpt lat="47.91448" lon="7.12202">
        <ele>1102.0668</ele>
        <time>2014-02-27T10:58:09Z</time>
      </trkpt>
      <trkpt lat="47.91453" lon="7.12198">
        <ele>1103.0408</ele>
        <time>2014-02-27T10:58:14Z</time>
      </trkpt>
      <trkpt lat="47.91454" lon="7.12191">
        <ele>1103.0408</ele>
        <time>2014-02-27T10:58:19Z</time>
      </trkpt>
      <trkpt lat="47.91457" lon="7.12183">
        <ele>1103.8966</ele>
        <time>2014-02-27T10:58:24Z</time>
      </trkpt>
      <trkpt lat="47.91458" lon="7.12178">
        <ele>1103.8966</ele>
        <time>2014-02-27T10:58:29Z</time>
      </trkpt>
      <trkpt lat="47.91461" lon="7.12171">
        <ele>1104.6456</ele>
        <time>2014-02-27T10:58:34Z</time>
      </trkpt>
      <trkpt lat="47.91463" lon="7.12169">
        <ele>1104.6456</ele>
        <time>2014-02-27T10:58:39Z</time>
      </trkpt>
      <trkpt lat="47.91466" lon="7.12167">
        <ele>1104.6456</ele>
        <time>2014-02-27T10:58:44Z</time>
      </trkpt>
      <trkpt lat="47.9147" lon="7.12163">
        <ele>1105.7593</ele>
        <time>2014-02-27T10:58:49Z</time>
      </trkpt>
      <trkpt lat="47.91473" lon="7.12154">
        <ele>1105.7593</ele>
        <time>2014-02-27T10:58:54Z</time>
      </trkpt>
      <trkpt lat="47.91475" lon="7.12146">
        <ele>1106.6937</ele>
        <time>2014-02-27T10:58:59Z</time>
      </trkpt>
      <trkpt lat="47.91479" lon="7.1214">
        <ele>1106.6937</ele>
        <time>2014-02-27T10:59:04Z</time>
      </trkpt>
      <trkpt lat="47.9148" lon="7.12137">
        <ele>1106.6937</ele>
        <time>2014-02-27T10:59:09Z</time>
      </trkpt>
      <trkpt lat="47.91484" lon="7.12132">
        <ele>1108.0984</ele>
        <time>2014-02-27T10:59:14Z</time>
      </trkpt>
      <trkpt lat="47.91486" lon="7.12129">
        <ele>1108.0984</ele>
        <time>2014-02-27T10:59:19Z</time>
      </trkpt>
      <trkpt lat="47.91487" lon="7.12127">
        <ele>1108.0984</ele>
        <time>2014-02-27T10:59:24Z</time>
      </trkpt>
      <trkpt lat="47.91488" lon="7.12126">
        <ele>1108.0984</ele>
        <time>2014-02-27T10:59:29Z</time>
      </trkpt>
      <trkpt lat="47.91488" lon="7.12114">
        <ele>1109.3916</ele>
        <time>2014-02-27T10:59:34Z</time>
      </trkpt>
      <trkpt lat="47.91492" lon="7.12106">
        <ele>1109.3916</ele>
        <time>2014-02-27T10:59:39Z</time>
      </trkpt>
      <trkpt lat="47.91496" lon="7.121">
        <ele>1110.8562</ele>
        <time>2014-02-27T10:59:44Z</time>
      </trkpt>
      <trkpt lat="47.91499" lon="7.12095">
        <ele>1110.8562</ele>
        <time>2014-02-27T10:59:49Z</time>
      </trkpt>
      <trkpt lat="47.91502" lon="7.12088">
        <ele>1112.1776</ele>
        <time>2014-02-27T10:59:54Z</time>
      </trkpt>
      <trkpt lat="47.91506" lon="7.12081">
        <ele>1112.1776</ele>
        <time>2014-02-27T10:59:59Z</time>
      </trkpt>
      <trkpt lat="47.91508" lon="7.12072">
        <ele>1113.3956</ele>
        <time>2014-02-27T11:00:04Z</time>
      </trkpt>
      <trkpt lat="47.91508" lon="7.12066">
        <ele>1113.3956</ele>
        <time>2014-02-27T11:00:09Z</time>
      </trkpt>
      <trkpt lat="47.91509" lon="7.1206">
        <ele>1113.3956</ele>
        <time>2014-02-27T11:00:14Z</time>
      </trkpt>
      <trkpt lat="47.9151" lon="7.12055">
        <ele>1114.7783</ele>
        <time>2014-02-27T11:00:19Z</time>
      </trkpt>
      <trkpt lat="47.91511" lon="7.12049">
        <ele>1114.7783</ele>
        <time>2014-02-27T11:00:24Z</time>
      </trkpt>
      <trkpt lat="47.91513" lon="7.12042">
        <ele>1116.4869</ele>
        <time>2014-02-27T11:00:29Z</time>
      </trkpt>
      <trkpt lat="47.91515" lon="7.12039">
        <ele>1116.4869</ele>
        <time>2014-02-27T11:00:34Z</time>
      </trkpt>
      <trkpt lat="47.91515" lon="7.12032">
        <ele>1116.4869</ele>
        <time>2014-02-27T11:00:39Z</time>
      </trkpt>
      <trkpt lat="47.91514" lon="7.12026">
        <ele>1118.4681</ele>
        <time>2014-02-27T11:00:44Z</time>
      </trkpt>
      <trkpt lat="47.91514" lon="7.12019">
        <ele>1118.4681</ele>
        <time>2014-02-27T11:00:49Z</time>
      </trkpt>
      <trkpt lat="47.91513" lon="7.1201">
        <ele>1120.3114</ele>
        <time>2014-02-27T11:00:54Z</time>
      </trkpt>
      <trkpt lat="47.91513" lon="7.12003">
        <ele>1120.3114</ele>
        <time>2014-02-27T11:00:59Z</time>
      </trkpt>
      <trkpt lat="47.91509" lon="7.11994">
        <ele>1121.8676</ele>
        <time>2014-02-27T11:01:04Z</time>
      </trkpt>
      <trkpt lat="47.91505" lon="7.11989">
        <ele>1121.8676</ele>
        <time>2014-02-27T11:01:09Z</time>
      </trkpt>
      <trkpt lat="47.91502" lon="7.11983">
        <ele>1122.4078</ele>
        <time>2014-02-27T11:01:14Z</time>
      </trkpt>
      <trkpt lat="47.91498" lon="7.11976">
        <ele>1122.4078</ele>
        <time>2014-02-27T11:01:19Z</time>
      </trkpt>
      <trkpt lat="47.91495" lon="7.11971">
        <ele>1122.6149</ele>
        <time>2014-02-27T11:01:24Z</time>
      </trkpt>
      <trkpt lat="47.91492" lon="7.11965">
        <ele>1122.6149</ele>
        <time>2014-02-27T11:01:29Z</time>
      </trkpt>
      <trkpt lat="47.91493" lon="7.11958">
        <ele>1122.9922</ele>
        <time>2014-02-27T11:01:34Z</time>
      </trkpt>
      <trkpt lat="47.9149" lon="7.11954">
        <ele>1122.9922</ele>
        <time>2014-02-27T11:01:39Z</time>
      </trkpt>
      <trkpt lat="47.91487" lon="7.11948">
        <ele>1122.9922</ele>
        <time>2014-02-27T11:01:44Z</time>
      </trkpt>
      <trkpt lat="47.91483" lon="7.11944">
        <ele>1123.141</ele>
        <time>2014-02-27T11:01:49Z</time>
      </trkpt>
      <trkpt lat="47.91479" lon="7.1194">
        <ele>1123.141</ele>
        <time>2014-02-27T11:01:54Z</time>
      </trkpt>
      <trkpt lat="47.91479" lon="7.11939">
        <ele>1123.141</ele>
        <time>2014-02-27T11:01:59Z</time>
      </trkpt>
      <trkpt lat="47.91477" lon="7.11937">
        <ele>1123.141</ele>
        <time>2014-02-27T11:02:04Z</time>
      </trkpt>
      <trkpt lat="47.91476" lon="7.11936">
        <ele>1123.1251</ele>
        <time>2014-02-27T11:02:09Z</time>
      </trkpt>
      <trkpt lat="47.91475" lon="7.11933">
        <ele>1123.1251</ele>
        <time>2014-02-27T11:02:14Z</time>
      </trkpt>
      <trkpt lat="47.91471" lon="7.11922">
        <ele>1123.4792</ele>
        <time>2014-02-27T11:02:19Z</time>
      </trkpt>
      <trkpt lat="47.91462" lon="7.11917">
        <ele>1123.6746</ele>
        <time>2014-02-27T11:02:24Z</time>
      </trkpt>
      <trkpt lat="47.9146" lon="7.11916">
        <ele>1123.6746</ele>
        <time>2014-02-27T11:02:29Z</time>
      </trkpt>
      <trkpt lat="47.91458" lon="7.11912">
        <ele>1123.6746</ele>
        <time>2014-02-27T11:02:34Z</time>
      </trkpt>
      <trkpt lat="47.91459" lon="7.1191">
        <ele>1123.6746</ele>
        <time>2014-02-27T11:02:39Z</time>
      </trkpt>
      <trkpt lat="47.91461" lon="7.11908">
        <ele>1124.2162</ele>
        <time>2014-02-27T11:02:44Z</time>
      </trkpt>
      <trkpt lat="47.91461" lon="7.11908">
        <ele>1124.2162</ele>
        <time>2014-02-27T11:02:49Z</time>
      </trkpt>
      <trkpt lat="47.9146" lon="7.11908">
        <ele>1124.2162</ele>
        <time>2014-02-27T11:02:54Z</time>
      </trkpt>
      <trkpt lat="47.9146" lon="7.11908">
        <ele>1124.2162</ele>
        <time>2014-02-27T11:02:59Z</time>
      </trkpt>
      <trkpt lat="47.91459" lon="7.11906">
        <ele>1124.2162</ele>
        <time>2014-02-27T11:03:04Z</time>
      </trkpt>
      <trkpt lat="47.91458" lon="7.11903">
        <ele>1124.2162</ele>
        <time>2014-02-27T11:03:09Z</time>
      </trkpt>
      <trkpt lat="47.91458" lon="7.11901">
        <ele>1124.2162</ele>
        <time>2014-02-27T11:03:14Z</time>
      </trkpt>
      <trkpt lat="47.91453" lon="7.11894">
        <ele>1124.4612</ele>
        <time>2014-02-27T11:03:19Z</time>
      </trkpt>
      <trkpt lat="47.91448" lon="7.11887">
        <ele>1124.4612</ele>
        <time>2014-02-27T11:03:24Z</time>
      </trkpt>
      <trkpt lat="47.91445" lon="7.11882">
        <ele>1124.4341</ele>
        <time>2014-02-27T11:03:29Z</time>
      </trkpt>
      <trkpt lat="47.91441" lon="7.11877">
        <ele>1124.4341</ele>
        <time>2014-02-27T11:03:34Z</time>
      </trkpt>
      <trkpt lat="47.91441" lon="7.11874">
        <ele>1124.4341</ele>
        <time>2014-02-27T11:03:39Z</time>
      </trkpt>
      <trkpt lat="47.9144" lon="7.11875">
        <ele>1124.4341</ele>
        <time>2014-02-27T11:03:44Z</time>
      </trkpt>
      <trkpt lat="47.91441" lon="7.11875">
        <ele>1124.4341</ele>
        <time>2014-02-27T11:03:49Z</time>
      </trkpt>
      <trkpt lat="47.91441" lon="7.11876">
        <ele>1124.4341</ele>
        <time>2014-02-27T11:03:54Z</time>
      </trkpt>
      <trkpt lat="47.91441" lon="7.11875">
        <ele>1124.4341</ele>
        <time>2014-02-27T11:03:59Z</time>
      </trkpt>
      <trkpt lat="47.91441" lon="7.11875">
        <ele>1124.4341</ele>
        <time>2014-02-27T11:04:04Z</time>
      </trkpt>
      <trkpt lat="47.91441" lon="7.11875">
        <ele>1124.4341</ele>
        <time>2014-02-27T11:04:09Z</time>
      </trkpt>
      <trkpt lat="47.91442" lon="7.11869">
        <ele>1125.0522</ele>
        <time>2014-02-27T11:04:14Z</time>
      </trkpt>
      <trkpt lat="47.91436" lon="7.11864">
        <ele>1125.0522</ele>
        <time>2014-02-27T11:04:19Z</time>
      </trkpt>
      <trkpt lat="47.91433" lon="7.1186">
        <ele>1125.3475</ele>
        <time>2014-02-27T11:04:24Z</time>
      </trkpt>
      <trkpt lat="47.91435" lon="7.11853">
        <ele>1125.3475</ele>
        <time>2014-02-27T11:04:29Z</time>
      </trkpt>
      <trkpt lat="47.91434" lon="7.11849">
        <ele>1125.3475</ele>
        <time>2014-02-27T11:04:34Z</time>
      </trkpt>
      <trkpt lat="47.91433" lon="7.11846">
        <ele>1126.6721</ele>
        <time>2014-02-27T11:04:39Z</time>
      </trkpt>
      <trkpt lat="47.91429" lon="7.11841">
        <ele>1126.6721</ele>
        <time>2014-02-27T11:04:44Z</time>
      </trkpt>
      <trkpt lat="47.91427" lon="7.11836">
        <ele>1126.6721</ele>
        <time>2014-02-27T11:04:49Z</time>
      </trkpt>
      <trkpt lat="47.91431" lon="7.11832">
        <ele>1128.4745</ele>
        <time>2014-02-27T11:04:54Z</time>
      </trkpt>
      <trkpt lat="47.9143" lon="7.11829">
        <ele>1128.4745</ele>
        <time>2014-02-27T11:04:59Z</time>
      </trkpt>
      <trkpt lat="47.91429" lon="7.11825">
        <ele>1128.4745</ele>
        <time>2014-02-27T11:05:04Z</time>
      </trkpt>
      <trkpt lat="47.91425" lon="7.11819">
        <ele>1130.4872</ele>
        <time>2014-02-27T11:05:09Z</time>
      </trkpt>
      <trkpt lat="47.91425" lon="7.11812">
        <ele>1130.4872</ele>
        <time>2014-02-27T11:05:14Z</time>
      </trkpt>
      <trkpt lat="47.91419" lon="7.11808">
        <ele>1132.6201</ele>
        <time>2014-02-27T11:05:19Z</time>
      </trkpt>
      <trkpt lat="47.91416" lon="7.11804">
        <ele>1132.6201</ele>
        <time>2014-02-27T11:05:24Z</time>
      </trkpt>
      <trkpt lat="47.91414" lon="7.11799">
        <ele>1132.6201</ele>
        <time>2014-02-27T11:05:29Z</time>
      </trkpt>
      <trkpt lat="47.91412" lon="7.11796">
        <ele>1134.343</ele>
        <time>2014-02-27T11:05:34Z</time>
      </trkpt>
      <trkpt lat="47.9141" lon="7.11791">
        <ele>1134.343</ele>
        <time>2014-02-27T11:05:39Z</time>
      </trkpt>
      <trkpt lat="47.91408" lon="7.11786">
        <ele>1134.343</ele>
        <time>2014-02-27T11:05:44Z</time>
      </trkpt>
      <trkpt lat="47.91408" lon="7.11784">
        <ele>1136.0155</ele>
        <time>2014-02-27T11:05:49Z</time>
      </trkpt>
      <trkpt lat="47.91408" lon="7.11782">
        <ele>1136.0155</ele>
        <time>2014-02-27T11:05:54Z</time>
      </trkpt>
      <trkpt lat="47.91403" lon="7.11775">
        <ele>1136.0155</ele>
        <time>2014-02-27T11:05:59Z</time>
      </trkpt>
      <trkpt lat="47.91401" lon="7.11768">
        <ele>1137.6831</ele>
        <time>2014-02-27T11:06:04Z</time>
      </trkpt>
      <trkpt lat="47.91397" lon="7.11765">
        <ele>1137.6831</ele>
        <time>2014-02-27T11:06:09Z</time>
      </trkpt>
      <trkpt lat="47.91394" lon="7.11761">
        <ele>1137.6831</ele>
        <time>2014-02-27T11:06:14Z</time>
      </trkpt>
      <trkpt lat="47.91389" lon="7.11755">
        <ele>1139.0562</ele>
        <time>2014-02-27T11:06:19Z</time>
      </trkpt>
      <trkpt lat="47.9139" lon="7.11754">
        <ele>1139.0562</ele>
        <time>2014-02-27T11:06:24Z</time>
      </trkpt>
      <trkpt lat="47.91388" lon="7.11747">
        <ele>1139.0562</ele>
        <time>2014-02-27T11:06:29Z</time>
      </trkpt>
      <trkpt lat="47.91385" lon="7.11739">
        <ele>1140.6168</ele>
        <time>2014-02-27T11:06:34Z</time>
      </trkpt>
      <trkpt lat="47.91381" lon="7.11735">
        <ele>1140.6168</ele>
        <time>2014-02-27T11:06:39Z</time>
      </trkpt>
      <trkpt lat="47.91379" lon="7.11729">
        <ele>1140.6168</ele>
        <time>2014-02-27T11:06:44Z</time>
      </trkpt>
      <trkpt lat="47.9138" lon="7.11729">
        <ele>1142.2345</ele>
        <time>2014-02-27T11:06:49Z</time>
      </trkpt>
      <trkpt lat="47.91379" lon="7.11729">
        <ele>1142.2345</ele>
        <time>2014-02-27T11:06:54Z</time>
      </trkpt>
      <trkpt lat="47.91379" lon="7.11728">
        <ele>1142.2345</ele>
        <time>2014-02-27T11:06:59Z</time>
      </trkpt>
      <trkpt lat="47.91379" lon="7.11728">
        <ele>1142.2345</ele>
        <time>2014-02-27T11:07:04Z</time>
      </trkpt>
      <trkpt lat="47.91379" lon="7.11728">
        <ele>1142.2345</ele>
        <time>2014-02-27T11:07:09Z</time>
      </trkpt>
      <trkpt lat="47.91379" lon="7.11728">
        <ele>1142.2345</ele>
        <time>2014-02-27T11:07:14Z</time>
      </trkpt>
      <trkpt lat="47.91379" lon="7.11729">
        <ele>1142.2345</ele>
        <time>2014-02-27T11:07:19Z</time>
      </trkpt>
      <trkpt lat="47.91379" lon="7.11729">
        <ele>1142.2345</ele>
        <time>2014-02-27T11:07:24Z</time>
      </trkpt>
      <trkpt lat="47.91379" lon="7.11729">
        <ele>1142.2345</ele>
        <time>2014-02-27T11:07:29Z</time>
      </trkpt>
      <trkpt lat="47.91379" lon="7.11729">
        <ele>1142.2345</ele>
        <time>2014-02-27T11:07:34Z</time>
      </trkpt>
      <trkpt lat="47.91378" lon="7.11727">
        <ele>1142.2345</ele>
        <time>2014-02-27T11:07:39Z</time>
      </trkpt>
      <trkpt lat="47.91378" lon="7.11727">
        <ele>1142.2345</ele>
        <time>2014-02-27T11:07:44Z</time>
      </trkpt>
      <trkpt lat="47.91377" lon="7.11724">
        <ele>1142.2345</ele>
        <time>2014-02-27T11:07:49Z</time>
      </trkpt>
      <trkpt lat="47.91377" lon="7.11725">
        <ele>1142.2345</ele>
        <time>2014-02-27T11:07:54Z</time>
      </trkpt>
      <trkpt lat="47.91377" lon="7.11726">
        <ele>1142.2345</ele>
        <time>2014-02-27T11:07:59Z</time>
      </trkpt>
      <trkpt lat="47.91377" lon="7.11726">
        <ele>1142.2345</ele>
        <time>2014-02-27T11:08:04Z</time>
      </trkpt>
      <trkpt lat="47.91377" lon="7.11726">
        <ele>1142.2345</ele>
        <time>2014-02-27T11:08:09Z</time>
      </trkpt>
      <trkpt lat="47.91377" lon="7.11726">
        <ele>1142.2345</ele>
        <time>2014-02-27T11:08:14Z</time>
      </trkpt>
      <trkpt lat="47.91377" lon="7.11726">
        <ele>1142.2345</ele>
        <time>2014-02-27T11:08:19Z</time>
      </trkpt>
      <trkpt lat="47.91377" lon="7.11726">
        <ele>1142.2345</ele>
        <time>2014-02-27T11:08:29Z</time>
      </trkpt>
      <trkpt lat="47.91377" lon="7.11726">
        <ele>1142.2345</ele>
        <time>2014-02-27T11:08:34Z</time>
      </trkpt>
      <trkpt lat="47.91377" lon="7.11726">
        <ele>1142.2345</ele>
        <time>2014-02-27T11:08:39Z</time>
      </trkpt>
      <trkpt lat="47.91377" lon="7.11726">
        <ele>1142.2345</ele>
        <time>2014-02-27T11:08:44Z</time>
      </trkpt>
      <trkpt lat="47.91377" lon="7.11726">
        <ele>1142.2345</ele>
        <time>2014-02-27T11:08:49Z</time>
      </trkpt>
      <trkpt lat="47.91377" lon="7.11722">
        <ele>1144.206</ele>
        <time>2014-02-27T11:08:54Z</time>
      </trkpt>
      <trkpt lat="47.91379" lon="7.11724">
        <ele>1144.206</ele>
        <time>2014-02-27T11:08:59Z</time>
      </trkpt>
      <trkpt lat="47.91379" lon="7.11724">
        <ele>1144.206</ele>
        <time>2014-02-27T11:09:04Z</time>
      </trkpt>
      <trkpt lat="47.91379" lon="7.11724">
        <ele>1144.206</ele>
        <time>2014-02-27T11:09:09Z</time>
      </trkpt>
      <trkpt lat="47.91379" lon="7.11723">
        <ele>1144.206</ele>
        <time>2014-02-27T11:09:14Z</time>
      </trkpt>
      <trkpt lat="47.91378" lon="7.11719">
        <ele>1144.206</ele>
        <time>2014-02-27T11:09:19Z</time>
      </trkpt>
      <trkpt lat="47.91375" lon="7.11715">
        <ele>1145.7394</ele>
        <time>2014-02-27T11:09:24Z</time>
      </trkpt>
      <trkpt lat="47.91373" lon="7.1171">
        <ele>1145.7394</ele>
        <time>2014-02-27T11:09:29Z</time>
      </trkpt>
      <trkpt lat="47.91375" lon="7.11707">
        <ele>1145.7394</ele>
        <time>2014-02-27T11:09:34Z</time>
      </trkpt>
      <trkpt lat="47.91377" lon="7.11704">
        <ele>1147.658</ele>
        <time>2014-02-27T11:09:39Z</time>
      </trkpt>
      <trkpt lat="47.91377" lon="7.11704">
        <ele>1147.658</ele>
        <time>2014-02-27T11:09:44Z</time>
      </trkpt>
      <trkpt lat="47.91376" lon="7.11703">
        <ele>1147.658</ele>
        <time>2014-02-27T11:09:49Z</time>
      </trkpt>
      <trkpt lat="47.91375" lon="7.11702">
        <ele>1147.658</ele>
        <time>2014-02-27T11:09:54Z</time>
      </trkpt>
      <trkpt lat="47.91375" lon="7.11703">
        <ele>1147.658</ele>
        <time>2014-02-27T11:09:59Z</time>
      </trkpt>
      <trkpt lat="47.91375" lon="7.11703">
        <ele>1147.658</ele>
        <time>2014-02-27T11:10:04Z</time>
      </trkpt>
      <trkpt lat="47.91375" lon="7.11703">
        <ele>1147.658</ele>
        <time>2014-02-27T11:10:09Z</time>
      </trkpt>
      <trkpt lat="47.91375" lon="7.11703">
        <ele>1147.658</ele>
        <time>2014-02-27T11:10:14Z</time>
      </trkpt>
      <trkpt lat="47.91375" lon="7.11703">
        <ele>1147.658</ele>
        <time>2014-02-27T11:10:19Z</time>
      </trkpt>
      <trkpt lat="47.91374" lon="7.11703">
        <ele>1147.658</ele>
        <time>2014-02-27T11:10:24Z</time>
      </trkpt>
      <trkpt lat="47.91376" lon="7.11698">
        <ele>1147.658</ele>
        <time>2014-02-27T11:10:29Z</time>
      </trkpt>
      <trkpt lat="47.91373" lon="7.11691">
        <ele>1149.758</ele>
        <time>2014-02-27T11:10:34Z</time>
      </trkpt>
      <trkpt lat="47.91372" lon="7.11685">
        <ele>1149.758</ele>
        <time>2014-02-27T11:10:39Z</time>
      </trkpt>
      <trkpt lat="47.91375" lon="7.11681">
        <ele>1149.758</ele>
        <time>2014-02-27T11:10:44Z</time>
      </trkpt>
      <trkpt lat="47.91375" lon="7.11676">
        <ele>1152.1244</ele>
        <time>2014-02-27T11:10:49Z</time>
      </trkpt>
      <trkpt lat="47.91377" lon="7.1167">
        <ele>1152.1244</ele>
        <time>2014-02-27T11:10:54Z</time>
      </trkpt>
      <trkpt lat="47.91376" lon="7.11667">
        <ele>1152.1244</ele>
        <time>2014-02-27T11:10:59Z</time>
      </trkpt>
      <trkpt lat="47.91373" lon="7.1166">
        <ele>1154.2584</ele>
        <time>2014-02-27T11:11:04Z</time>
      </trkpt>
      <trkpt lat="47.91372" lon="7.11653">
        <ele>1154.2584</ele>
        <time>2014-02-27T11:11:09Z</time>
      </trkpt>
      <trkpt lat="47.91373" lon="7.11646">
        <ele>1156.102</ele>
        <time>2014-02-27T11:11:14Z</time>
      </trkpt>
      <trkpt lat="47.91375" lon="7.11642">
        <ele>1156.102</ele>
        <time>2014-02-27T11:11:19Z</time>
      </trkpt>
      <trkpt lat="47.91372" lon="7.11635">
        <ele>1156.102</ele>
        <time>2014-02-27T11:11:24Z</time>
      </trkpt>
      <trkpt lat="47.91372" lon="7.11628">
        <ele>1157.1127</ele>
        <time>2014-02-27T11:11:29Z</time>
      </trkpt>
      <trkpt lat="47.9137" lon="7.1162">
        <ele>1157.1127</ele>
        <time>2014-02-27T11:11:34Z</time>
      </trkpt>
      <trkpt lat="47.91373" lon="7.11616">
        <ele>1159.0234</ele>
        <time>2014-02-27T11:11:39Z</time>
      </trkpt>
      <trkpt lat="47.91374" lon="7.11611">
        <ele>1159.0234</ele>
        <time>2014-02-27T11:11:44Z</time>
      </trkpt>
      <trkpt lat="47.91372" lon="7.11601">
        <ele>1160.9879</ele>
        <time>2014-02-27T11:11:49Z</time>
      </trkpt>
      <trkpt lat="47.91375" lon="7.11594">
        <ele>1160.9879</ele>
        <time>2014-02-27T11:11:54Z</time>
      </trkpt>
      <trkpt lat="47.91377" lon="7.1159">
        <ele>1160.9879</ele>
        <time>2014-02-27T11:11:59Z</time>
      </trkpt>
      <trkpt lat="47.91378" lon="7.11585">
        <ele>1162.4955</ele>
        <time>2014-02-27T11:12:04Z</time>
      </trkpt>
      <trkpt lat="47.91378" lon="7.1158">
        <ele>1162.4955</ele>
        <time>2014-02-27T11:12:09Z</time>
      </trkpt>
      <trkpt lat="47.91377" lon="7.11571">
        <ele>1163.9967</ele>
        <time>2014-02-27T11:12:14Z</time>
      </trkpt>
      <trkpt lat="47.91376" lon="7.11563">
        <ele>1163.9967</ele>
        <time>2014-02-27T11:12:19Z</time>
      </trkpt>
      <trkpt lat="47.91375" lon="7.11558">
        <ele>1163.9967</ele>
        <time>2014-02-27T11:12:24Z</time>
      </trkpt>
      <trkpt lat="47.91375" lon="7.11551">
        <ele>1164.9579</ele>
        <time>2014-02-27T11:12:29Z</time>
      </trkpt>
      <trkpt lat="47.91371" lon="7.11544">
        <ele>1164.9579</ele>
        <time>2014-02-27T11:12:34Z</time>
      </trkpt>
      <trkpt lat="47.91368" lon="7.11541">
        <ele>1165.3762</ele>
        <time>2014-02-27T11:12:39Z</time>
      </trkpt>
      <trkpt lat="47.91369" lon="7.1154">
        <ele>1165.3762</ele>
        <time>2014-02-27T11:12:44Z</time>
      </trkpt>
      <trkpt lat="47.91372" lon="7.11537">
        <ele>1165.3762</ele>
        <time>2014-02-27T11:12:49Z</time>
      </trkpt>
      <trkpt lat="47.91373" lon="7.11531">
        <ele>1165.3762</ele>
        <time>2014-02-27T11:12:54Z</time>
      </trkpt>
      <trkpt lat="47.91373" lon="7.11525">
        <ele>1165.5243</ele>
        <time>2014-02-27T11:12:59Z</time>
      </trkpt>
      <trkpt lat="47.91373" lon="7.1152">
        <ele>1165.5243</ele>
        <time>2014-02-27T11:13:04Z</time>
      </trkpt>
      <trkpt lat="47.91369" lon="7.11511">
        <ele>1165.915</ele>
        <time>2014-02-27T11:13:09Z</time>
      </trkpt>
      <trkpt lat="47.91366" lon="7.11506">
        <ele>1165.915</ele>
        <time>2014-02-27T11:13:14Z</time>
      </trkpt>
      <trkpt lat="47.91363" lon="7.11499">
        <ele>1166.0863</ele>
        <time>2014-02-27T11:13:19Z</time>
      </trkpt>
      <trkpt lat="47.91361" lon="7.11494">
        <ele>1166.0863</ele>
        <time>2014-02-27T11:13:24Z</time>
      </trkpt>
      <trkpt lat="47.9136" lon="7.1149">
        <ele>1166.0863</ele>
        <time>2014-02-27T11:13:29Z</time>
      </trkpt>
      <trkpt lat="47.91358" lon="7.11485">
        <ele>1167.0658</ele>
        <time>2014-02-27T11:13:34Z</time>
      </trkpt>
      <trkpt lat="47.91354" lon="7.11476">
        <ele>1167.0658</ele>
        <time>2014-02-27T11:13:39Z</time>
      </trkpt>
      <trkpt lat="47.91349" lon="7.11472">
        <ele>1167.3539</ele>
        <time>2014-02-27T11:13:44Z</time>
      </trkpt>
      <trkpt lat="47.91346" lon="7.11467">
        <ele>1167.3539</ele>
        <time>2014-02-27T11:13:49Z</time>
      </trkpt>
      <trkpt lat="47.91345" lon="7.11463">
        <ele>1167.3539</ele>
        <time>2014-02-27T11:13:54Z</time>
      </trkpt>
      <trkpt lat="47.91339" lon="7.11458">
        <ele>1167.3931</ele>
        <time>2014-02-27T11:13:59Z</time>
      </trkpt>
      <trkpt lat="47.91342" lon="7.11453">
        <ele>1167.3931</ele>
        <time>2014-02-27T11:14:04Z</time>
      </trkpt>
      <trkpt lat="47.91337" lon="7.11446">
        <ele>1168.0265</ele>
        <time>2014-02-27T11:14:09Z</time>
      </trkpt>
      <trkpt lat="47.91334" lon="7.11441">
        <ele>1168.0265</ele>
        <time>2014-02-27T11:14:14Z</time>
      </trkpt>
      <trkpt lat="47.91333" lon="7.11435">
        <ele>1169.0679</ele>
        <time>2014-02-27T11:14:19Z</time>
      </trkpt>
      <trkpt lat="47.91332" lon="7.11432">
        <ele>1169.0679</ele>
        <time>2014-02-27T11:14:24Z</time>
      </trkpt>
      <trkpt lat="47.91329" lon="7.11428">
        <ele>1169.0679</ele>
        <time>2014-02-27T11:14:29Z</time>
      </trkpt>
      <trkpt lat="47.91321" lon="7.11425">
        <ele>1170.3004</ele>
        <time>2014-02-27T11:14:34Z</time>
      </trkpt>
      <trkpt lat="47.91319" lon="7.11422">
        <ele>1170.3004</ele>
        <time>2014-02-27T11:14:39Z</time>
      </trkpt>
      <trkpt lat="47.91316" lon="7.1142">
        <ele>1170.3004</ele>
        <time>2014-02-27T11:14:44Z</time>
      </trkpt>
      <trkpt lat="47.91312" lon="7.11417">
        <ele>1172.5603</ele>
        <time>2014-02-27T11:14:49Z</time>
      </trkpt>
      <trkpt lat="47.91312" lon="7.11414">
        <ele>1172.5603</ele>
        <time>2014-02-27T11:14:54Z</time>
      </trkpt>
      <trkpt lat="47.91306" lon="7.1141">
        <ele>1174.5587</ele>
        <time>2014-02-27T11:14:59Z</time>
      </trkpt>
      <trkpt lat="47.91305" lon="7.11409">
        <ele>1174.5587</ele>
        <time>2014-02-27T11:15:04Z</time>
      </trkpt>
      <trkpt lat="47.91303" lon="7.11406">
        <ele>1174.5587</ele>
        <time>2014-02-27T11:15:09Z</time>
      </trkpt>
      <trkpt lat="47.91301" lon="7.11404">
        <ele>1174.5587</ele>
        <time>2014-02-27T11:15:14Z</time>
      </trkpt>
      <trkpt lat="47.91295" lon="7.11402">
        <ele>1176.37</ele>
        <time>2014-02-27T11:15:19Z</time>
      </trkpt>
      <trkpt lat="47.91292" lon="7.11399">
        <ele>1176.37</ele>
        <time>2014-02-27T11:15:24Z</time>
      </trkpt>
      <trkpt lat="47.91292" lon="7.11397">
        <ele>1176.37</ele>
        <time>2014-02-27T11:15:29Z</time>
      </trkpt>
      <trkpt lat="47.91289" lon="7.11397">
        <ele>1176.37</ele>
        <time>2014-02-27T11:15:34Z</time>
      </trkpt>
      <trkpt lat="47.91289" lon="7.11396">
        <ele>1176.37</ele>
        <time>2014-02-27T11:15:39Z</time>
      </trkpt>
      <trkpt lat="47.91289" lon="7.11396">
        <ele>1176.37</ele>
        <time>2014-02-27T11:15:44Z</time>
      </trkpt>
      <trkpt lat="47.91289" lon="7.11396">
        <ele>1176.37</ele>
        <time>2014-02-27T11:15:49Z</time>
      </trkpt>
      <trkpt lat="47.91288" lon="7.11396">
        <ele>1178.4098</ele>
        <time>2014-02-27T11:15:54Z</time>
      </trkpt>
      <trkpt lat="47.91288" lon="7.11396">
        <ele>1178.4098</ele>
        <time>2014-02-27T11:15:59Z</time>
      </trkpt>
      <trkpt lat="47.91288" lon="7.11396">
        <ele>1178.4098</ele>
        <time>2014-02-27T11:16:04Z</time>
      </trkpt>
      <trkpt lat="47.91288" lon="7.11396">
        <ele>1178.4098</ele>
        <time>2014-02-27T11:16:09Z</time>
      </trkpt>
      <trkpt lat="47.91287" lon="7.11396">
        <ele>1178.4098</ele>
        <time>2014-02-27T11:16:14Z</time>
      </trkpt>
      <trkpt lat="47.91282" lon="7.11391">
        <ele>1178.4098</ele>
        <time>2014-02-27T11:16:19Z</time>
      </trkpt>
      <trkpt lat="47.91276" lon="7.11385">
        <ele>1180.4573</ele>
        <time>2014-02-27T11:16:24Z</time>
      </trkpt>
      <trkpt lat="47.91273" lon="7.11379">
        <ele>1180.4573</ele>
        <time>2014-02-27T11:16:29Z</time>
      </trkpt>
      <trkpt lat="47.91271" lon="7.11372">
        <ele>1183.5902</ele>
        <time>2014-02-27T11:16:34Z</time>
      </trkpt>
      <trkpt lat="47.91269" lon="7.11366">
        <ele>1183.5902</ele>
        <time>2014-02-27T11:16:39Z</time>
      </trkpt>
      <trkpt lat="47.91264" lon="7.11362">
        <ele>1186.686</ele>
        <time>2014-02-27T11:16:44Z</time>
      </trkpt>
      <trkpt lat="47.91258" lon="7.11361">
        <ele>1186.686</ele>
        <time>2014-02-27T11:16:49Z</time>
      </trkpt>
      <trkpt lat="47.91255" lon="7.11359">
        <ele>1186.686</ele>
        <time>2014-02-27T11:16:54Z</time>
      </trkpt>
      <trkpt lat="47.91253" lon="7.11358">
        <ele>1190.1887</ele>
        <time>2014-02-27T11:16:59Z</time>
      </trkpt>
      <trkpt lat="47.91248" lon="7.11354">
        <ele>1190.1887</ele>
        <time>2014-02-27T11:17:04Z</time>
      </trkpt>
      <trkpt lat="47.91242" lon="7.11349">
        <ele>1192.9814</ele>
        <time>2014-02-27T11:17:09Z</time>
      </trkpt>
      <trkpt lat="47.91235" lon="7.11346">
        <ele>1192.9814</ele>
        <time>2014-02-27T11:17:14Z</time>
      </trkpt>
      <trkpt lat="47.91233" lon="7.11344">
        <ele>1195.2704</ele>
        <time>2014-02-27T11:17:19Z</time>
      </trkpt>
      <trkpt lat="47.91231" lon="7.11342">
        <ele>1195.2704</ele>
        <time>2014-02-27T11:17:24Z</time>
      </trkpt>
      <trkpt lat="47.91229" lon="7.11342">
        <ele>1195.2704</ele>
        <time>2014-02-27T11:17:29Z</time>
      </trkpt>
      <trkpt lat="47.91227" lon="7.11338">
        <ele>1195.2704</ele>
        <time>2014-02-27T11:17:34Z</time>
      </trkpt>
      <trkpt lat="47.91223" lon="7.11334">
        <ele>1198.5165</ele>
        <time>2014-02-27T11:17:39Z</time>
      </trkpt>
      <trkpt lat="47.91221" lon="7.11331">
        <ele>1198.5165</ele>
        <time>2014-02-27T11:17:44Z</time>
      </trkpt>
      <trkpt lat="47.91219" lon="7.11328">
        <ele>1198.5165</ele>
        <time>2014-02-27T11:17:49Z</time>
      </trkpt>
      <trkpt lat="47.91219" lon="7.11329">
        <ele>1198.5165</ele>
        <time>2014-02-27T11:17:54Z</time>
      </trkpt>
      <trkpt lat="47.91218" lon="7.11329">
        <ele>1198.5165</ele>
        <time>2014-02-27T11:17:59Z</time>
      </trkpt>
      <trkpt lat="47.91217" lon="7.11329">
        <ele>1198.5165</ele>
        <time>2014-02-27T11:18:04Z</time>
      </trkpt>
      <trkpt lat="47.91217" lon="7.11329">
        <ele>1198.5165</ele>
        <time>2014-02-27T11:18:09Z</time>
      </trkpt>
      <trkpt lat="47.91217" lon="7.11329">
        <ele>1198.5165</ele>
        <time>2014-02-27T11:18:14Z</time>
      </trkpt>
      <trkpt lat="47.91217" lon="7.1133">
        <ele>1198.5165</ele>
        <time>2014-02-27T11:18:19Z</time>
      </trkpt>
      <trkpt lat="47.91217" lon="7.1133">
        <ele>1201.4333</ele>
        <time>2014-02-27T11:18:24Z</time>
      </trkpt>
      <trkpt lat="47.91217" lon="7.1133">
        <ele>1201.4333</ele>
        <time>2014-02-27T11:18:29Z</time>
      </trkpt>
      <trkpt lat="47.91212" lon="7.11328">
        <ele>1201.4333</ele>
        <time>2014-02-27T11:18:34Z</time>
      </trkpt>
      <trkpt lat="47.91209" lon="7.11322">
        <ele>1204.6462</ele>
        <time>2014-02-27T11:18:39Z</time>
      </trkpt>
      <trkpt lat="47.91203" lon="7.11316">
        <ele>1204.6462</ele>
        <time>2014-02-27T11:18:44Z</time>
      </trkpt>
      <trkpt lat="47.91198" lon="7.11314">
        <ele>1207.0327</ele>
        <time>2014-02-27T11:18:49Z</time>
      </trkpt>
      <trkpt lat="47.91194" lon="7.11311">
        <ele>1207.0327</ele>
        <time>2014-02-27T11:18:54Z</time>
      </trkpt>
      <trkpt lat="47.91191" lon="7.11307">
        <ele>1207.0327</ele>
        <time>2014-02-27T11:18:59Z</time>
      </trkpt>
      <trkpt lat="47.91186" lon="7.11304">
        <ele>1209.0833</ele>
        <time>2014-02-27T11:19:04Z</time>
      </trkpt>
      <trkpt lat="47.91184" lon="7.11301">
        <ele>1209.0833</ele>
        <time>2014-02-27T11:19:09Z</time>
      </trkpt>
      <trkpt lat="47.91182" lon="7.11297">
        <ele>1209.0833</ele>
        <time>2014-02-27T11:19:14Z</time>
      </trkpt>
      <trkpt lat="47.91177" lon="7.11295">
        <ele>1210.5758</ele>
        <time>2014-02-27T11:19:19Z</time>
      </trkpt>
      <trkpt lat="47.91174" lon="7.1129">
        <ele>1210.5758</ele>
        <time>2014-02-27T11:19:24Z</time>
      </trkpt>
      <trkpt lat="47.9117" lon="7.11287">
        <ele>1210.5758</ele>
        <time>2014-02-27T11:19:29Z</time>
      </trkpt>
      <trkpt lat="47.91169" lon="7.11283">
        <ele>1212.6608</ele>
        <time>2014-02-27T11:19:34Z</time>
      </trkpt>
      <trkpt lat="47.91166" lon="7.11279">
        <ele>1212.6608</ele>
        <time>2014-02-27T11:19:39Z</time>
      </trkpt>
      <trkpt lat="47.91163" lon="7.11276">
        <ele>1212.6608</ele>
        <time>2014-02-27T11:19:44Z</time>
      </trkpt>
      <trkpt lat="47.91162" lon="7.11273">
        <ele>1215.1346</ele>
        <time>2014-02-27T11:19:49Z</time>
      </trkpt>
      <trkpt lat="47.91159" lon="7.11271">
        <ele>1215.1346</ele>
        <time>2014-02-27T11:19:54Z</time>
      </trkpt>
      <trkpt lat="47.91154" lon="7.11268">
        <ele>1215.1346</ele>
        <time>2014-02-27T11:19:59Z</time>
      </trkpt>
      <trkpt lat="47.91148" lon="7.11265">
        <ele>1216.943</ele>
        <time>2014-02-27T11:20:04Z</time>
      </trkpt>
      <trkpt lat="47.91146" lon="7.11259">
        <ele>1216.943</ele>
        <time>2014-02-27T11:20:09Z</time>
      </trkpt>
      <trkpt lat="47.91143" lon="7.11253">
        <ele>1219.7192</ele>
        <time>2014-02-27T11:20:14Z</time>
      </trkpt>
      <trkpt lat="47.91141" lon="7.1125">
        <ele>1219.7192</ele>
        <time>2014-02-27T11:20:19Z</time>
      </trkpt>
      <trkpt lat="47.91136" lon="7.11247">
        <ele>1219.7192</ele>
        <time>2014-02-27T11:20:24Z</time>
      </trkpt>
      <trkpt lat="47.91134" lon="7.11243">
        <ele>1222.409</ele>
        <time>2014-02-27T11:20:29Z</time>
      </trkpt>
      <trkpt lat="47.91135" lon="7.11238">
        <ele>1222.409</ele>
        <time>2014-02-27T11:20:34Z</time>
      </trkpt>
      <trkpt lat="47.91131" lon="7.11235">
        <ele>1222.409</ele>
        <time>2014-02-27T11:20:39Z</time>
      </trkpt>
      <trkpt lat="47.91129" lon="7.11234">
        <ele>1224.814</ele>
        <time>2014-02-27T11:20:44Z</time>
      </trkpt>
      <trkpt lat="47.9113" lon="7.11235">
        <ele>1224.814</ele>
        <time>2014-02-27T11:20:49Z</time>
      </trkpt>
      <trkpt lat="47.9113" lon="7.11235">
        <ele>1224.814</ele>
        <time>2014-02-27T11:20:54Z</time>
      </trkpt>
      <trkpt lat="47.9113" lon="7.11235">
        <ele>1224.814</ele>
        <time>2014-02-27T11:20:59Z</time>
      </trkpt>
      <trkpt lat="47.91129" lon="7.11233">
        <ele>1224.814</ele>
        <time>2014-02-27T11:21:04Z</time>
      </trkpt>
      <trkpt lat="47.91127" lon="7.11237">
        <ele>1224.814</ele>
        <time>2014-02-27T11:21:09Z</time>
      </trkpt>
      <trkpt lat="47.91128" lon="7.11235">
        <ele>1224.814</ele>
        <time>2014-02-27T11:21:14Z</time>
      </trkpt>
      <trkpt lat="47.91125" lon="7.11227">
        <ele>1226.6359</ele>
        <time>2014-02-27T11:21:19Z</time>
      </trkpt>
      <trkpt lat="47.91118" lon="7.11216">
        <ele>1227.4127</ele>
        <time>2014-02-27T11:21:24Z</time>
      </trkpt>
      <trkpt lat="47.91115" lon="7.11213">
        <ele>1227.4127</ele>
        <time>2014-02-27T11:21:29Z</time>
      </trkpt>
      <trkpt lat="47.91115" lon="7.11205">
        <ele>1227.4127</ele>
        <time>2014-02-27T11:21:34Z</time>
      </trkpt>
      <trkpt lat="47.91116" lon="7.11202">
        <ele>1229.0111</ele>
        <time>2014-02-27T11:21:39Z</time>
      </trkpt>
      <trkpt lat="47.91112" lon="7.11209">
        <ele>1229.0111</ele>
        <time>2014-02-27T11:21:44Z</time>
      </trkpt>
      <trkpt lat="47.91112" lon="7.1121">
        <ele>1229.0111</ele>
        <time>2014-02-27T11:21:49Z</time>
      </trkpt>
      <trkpt lat="47.9111" lon="7.11209">
        <ele>1229.0111</ele>
        <time>2014-02-27T11:21:54Z</time>
      </trkpt>
      <trkpt lat="47.91105" lon="7.11204">
        <ele>1229.4541</ele>
        <time>2014-02-27T11:21:59Z</time>
      </trkpt>
      <trkpt lat="47.91105" lon="7.11204">
        <ele>1229.4541</ele>
        <time>2014-02-27T11:22:04Z</time>
      </trkpt>
      <trkpt lat="47.91106" lon="7.11204">
        <ele>1229.4541</ele>
        <time>2014-02-27T11:22:09Z</time>
      </trkpt>
      <trkpt lat="47.91106" lon="7.11204">
        <ele>1229.4541</ele>
        <time>2014-02-27T11:22:14Z</time>
      </trkpt>
      <trkpt lat="47.91106" lon="7.11204">
        <ele>1229.4541</ele>
        <time>2014-02-27T11:22:19Z</time>
      </trkpt>
      <trkpt lat="47.91106" lon="7.11204">
        <ele>1229.4541</ele>
        <time>2014-02-27T11:22:24Z</time>
      </trkpt>
      <trkpt lat="47.91106" lon="7.11204">
        <ele>1229.4541</ele>
        <time>2014-02-27T11:22:29Z</time>
      </trkpt>
      <trkpt lat="47.91106" lon="7.11204">
        <ele>1229.4541</ele>
        <time>2014-02-27T11:22:34Z</time>
      </trkpt>
      <trkpt lat="47.91106" lon="7.11204">
        <ele>1229.4541</ele>
        <time>2014-02-27T11:22:39Z</time>
      </trkpt>
      <trkpt lat="47.91106" lon="7.11204">
        <ele>1229.4541</ele>
        <time>2014-02-27T11:22:44Z</time>
      </trkpt>
      <trkpt lat="47.91106" lon="7.11204">
        <ele>1229.4541</ele>
        <time>2014-02-27T11:22:49Z</time>
      </trkpt>
      <trkpt lat="47.91106" lon="7.11204">
        <ele>1229.4541</ele>
        <time>2014-02-27T11:22:54Z</time>
      </trkpt>
      <trkpt lat="47.91106" lon="7.11204">
        <ele>1229.4541</ele>
        <time>2014-02-27T11:22:59Z</time>
      </trkpt>
      <trkpt lat="47.91106" lon="7.11204">
        <ele>1229.4541</ele>
        <time>2014-02-27T11:23:04Z</time>
      </trkpt>
      <trkpt lat="47.91106" lon="7.11204">
        <ele>1229.4541</ele>
        <time>2014-02-27T11:23:09Z</time>
      </trkpt>
      <trkpt lat="47.91106" lon="7.11204">
        <ele>1229.4541</ele>
        <time>2014-02-27T11:23:14Z</time>
      </trkpt>
      <trkpt lat="47.91106" lon="7.11204">
        <ele>1229.4541</ele>
        <time>2014-02-27T11:23:19Z</time>
      </trkpt>
      <trkpt lat="47.91106" lon="7.11204">
        <ele>1229.4541</ele>
        <time>2014-02-27T11:23:24Z</time>
      </trkpt>
      <trkpt lat="47.91106" lon="7.11204">
        <ele>1229.4541</ele>
        <time>2014-02-27T11:23:29Z</time>
      </trkpt>
      <trkpt lat="47.91106" lon="7.11204">
        <ele>1229.4541</ele>
        <time>2014-02-27T11:23:34Z</time>
      </trkpt>
      <trkpt lat="47.91106" lon="7.11204">
        <ele>1229.4541</ele>
        <time>2014-02-27T11:23:39Z</time>
      </trkpt>
      <trkpt lat="47.91106" lon="7.11204">
        <ele>1229.4541</ele>
        <time>2014-02-27T11:23:44Z</time>
      </trkpt>
      <trkpt lat="47.91106" lon="7.11204">
        <ele>1229.4541</ele>
        <time>2014-02-27T11:23:49Z</time>
      </trkpt>
      <trkpt lat="47.91106" lon="7.11204">
        <ele>1229.4541</ele>
        <time>2014-02-27T11:23:54Z</time>
      </trkpt>
      <trkpt lat="47.91105" lon="7.11204">
        <ele>1229.4541</ele>
        <time>2014-02-27T11:23:59Z</time>
      </trkpt>
      <trkpt lat="47.91106" lon="7.11205">
        <ele>1229.4541</ele>
        <time>2014-02-27T11:24:04Z</time>
      </trkpt>
      <trkpt lat="47.91105" lon="7.11204">
        <ele>1229.4541</ele>
        <time>2014-02-27T11:24:09Z</time>
      </trkpt>
      <trkpt lat="47.91105" lon="7.11204">
        <ele>1229.4541</ele>
        <time>2014-02-27T11:24:14Z</time>
      </trkpt>
      <trkpt lat="47.91105" lon="7.11204">
        <ele>1229.4541</ele>
        <time>2014-02-27T11:24:19Z</time>
      </trkpt>
      <trkpt lat="47.91105" lon="7.11204">
        <ele>1229.4541</ele>
        <time>2014-02-27T11:24:24Z</time>
      </trkpt>
      <trkpt lat="47.91105" lon="7.11204">
        <ele>1229.4541</ele>
        <time>2014-02-27T11:24:29Z</time>
      </trkpt>
      <trkpt lat="47.91105" lon="7.11204">
        <ele>1229.4541</ele>
        <time>2014-02-27T11:24:34Z</time>
      </trkpt>
      <trkpt lat="47.91105" lon="7.11204">
        <ele>1229.4541</ele>
        <time>2014-02-27T11:24:39Z</time>
      </trkpt>
      <trkpt lat="47.91105" lon="7.11204">
        <ele>1229.4541</ele>
        <time>2014-02-27T11:24:44Z</time>
      </trkpt>
      <trkpt lat="47.91105" lon="7.11204">
        <ele>1229.4541</ele>
        <time>2014-02-27T11:24:49Z</time>
      </trkpt>
      <trkpt lat="47.91105" lon="7.11204">
        <ele>1229.4541</ele>
        <time>2014-02-27T11:24:54Z</time>
      </trkpt>
      <trkpt lat="47.91105" lon="7.11203">
        <ele>1229.4541</ele>
        <time>2014-02-27T11:24:59Z</time>
      </trkpt>
      <trkpt lat="47.91105" lon="7.11203">
        <ele>1229.4541</ele>
        <time>2014-02-27T11:25:04Z</time>
      </trkpt>
      <trkpt lat="47.91105" lon="7.11203">
        <ele>1229.4541</ele>
        <time>2014-02-27T11:25:09Z</time>
      </trkpt>
      <trkpt lat="47.91105" lon="7.11203">
        <ele>1229.4541</ele>
        <time>2014-02-27T11:25:14Z</time>
      </trkpt>
      <trkpt lat="47.91105" lon="7.11204">
        <ele>1229.4541</ele>
        <time>2014-02-27T11:25:19Z</time>
      </trkpt>
      <trkpt lat="47.91105" lon="7.11203">
        <ele>1229.4541</ele>
        <time>2014-02-27T11:25:24Z</time>
      </trkpt>
      <trkpt lat="47.91104" lon="7.11201">
        <ele>1229.4541</ele>
        <time>2014-02-27T11:25:29Z</time>
      </trkpt>
      <trkpt lat="47.91102" lon="7.11199">
        <ele>1229.4541</ele>
        <time>2014-02-27T11:25:34Z</time>
      </trkpt>
      <trkpt lat="47.91102" lon="7.11199">
        <ele>1229.4541</ele>
        <time>2014-02-27T11:25:39Z</time>
      </trkpt>
      <trkpt lat="47.91102" lon="7.11199">
        <ele>1229.4541</ele>
        <time>2014-02-27T11:25:44Z</time>
      </trkpt>
      <trkpt lat="47.91102" lon="7.11199">
        <ele>1229.4541</ele>
        <time>2014-02-27T11:25:49Z</time>
      </trkpt>
      <trkpt lat="47.91102" lon="7.11199">
        <ele>1229.4541</ele>
        <time>2014-02-27T11:25:54Z</time>
      </trkpt>
      <trkpt lat="47.91102" lon="7.11199">
        <ele>1229.4541</ele>
        <time>2014-02-27T11:25:59Z</time>
      </trkpt>
      <trkpt lat="47.91102" lon="7.11199">
        <ele>1229.4541</ele>
        <time>2014-02-27T11:26:04Z</time>
      </trkpt>
      <trkpt lat="47.91102" lon="7.11199">
        <ele>1229.4541</ele>
        <time>2014-02-27T11:26:09Z</time>
      </trkpt>
      <trkpt lat="47.91102" lon="7.11199">
        <ele>1229.4541</ele>
        <time>2014-02-27T11:26:14Z</time>
      </trkpt>
      <trkpt lat="47.91102" lon="7.112">
        <ele>1229.4541</ele>
        <time>2014-02-27T11:26:19Z</time>
      </trkpt>
      <trkpt lat="47.91102" lon="7.11201">
        <ele>1230.1997</ele>
        <time>2014-02-27T11:26:24Z</time>
      </trkpt>
      <trkpt lat="47.911" lon="7.112">
        <ele>1230.1997</ele>
        <time>2014-02-27T11:26:29Z</time>
      </trkpt>
      <trkpt lat="47.911" lon="7.11201">
        <ele>1230.1997</ele>
        <time>2014-02-27T11:26:34Z</time>
      </trkpt>
      <trkpt lat="47.91101" lon="7.11201">
        <ele>1230.1997</ele>
        <time>2014-02-27T11:26:39Z</time>
      </trkpt>
      <trkpt lat="47.91101" lon="7.11201">
        <ele>1230.1997</ele>
        <time>2014-02-27T11:26:44Z</time>
      </trkpt>
      <trkpt lat="47.91101" lon="7.11201">
        <ele>1230.1997</ele>
        <time>2014-02-27T11:26:49Z</time>
      </trkpt>
      <trkpt lat="47.91101" lon="7.11201">
        <ele>1230.1997</ele>
        <time>2014-02-27T11:26:54Z</time>
      </trkpt>
      <trkpt lat="47.91101" lon="7.11201">
        <ele>1230.1997</ele>
        <time>2014-02-27T11:26:59Z</time>
      </trkpt>
      <trkpt lat="47.91101" lon="7.11201">
        <ele>1230.1997</ele>
        <time>2014-02-27T11:27:04Z</time>
      </trkpt>
      <trkpt lat="47.91102" lon="7.11201">
        <ele>1230.1997</ele>
        <time>2014-02-27T11:27:09Z</time>
      </trkpt>
      <trkpt lat="47.91102" lon="7.11201">
        <ele>1230.1997</ele>
        <time>2014-02-27T11:27:14Z</time>
      </trkpt>
      <trkpt lat="47.91102" lon="7.11201">
        <ele>1230.1997</ele>
        <time>2014-02-27T11:27:19Z</time>
      </trkpt>
      <trkpt lat="47.91102" lon="7.11201">
        <ele>1230.1997</ele>
        <time>2014-02-27T11:27:24Z</time>
      </trkpt>
      <trkpt lat="47.91104" lon="7.11201">
        <ele>1230.1997</ele>
        <time>2014-02-27T11:27:29Z</time>
      </trkpt>
      <trkpt lat="47.91106" lon="7.11201">
        <ele>1230.868</ele>
        <time>2014-02-27T11:27:34Z</time>
      </trkpt>
      <trkpt lat="47.91106" lon="7.11201">
        <ele>1230.868</ele>
        <time>2014-02-27T11:27:39Z</time>
      </trkpt>
      <trkpt lat="47.91101" lon="7.11209">
        <ele>1230.868</ele>
        <time>2014-02-27T11:27:44Z</time>
      </trkpt>
      <trkpt lat="47.91098" lon="7.11211">
        <ele>1230.4305</ele>
        <time>2014-02-27T11:27:49Z</time>
      </trkpt>
      <trkpt lat="47.91097" lon="7.1121">
        <ele>1230.4305</ele>
        <time>2014-02-27T11:27:54Z</time>
      </trkpt>
      <trkpt lat="47.91097" lon="7.1121">
        <ele>1230.4305</ele>
        <time>2014-02-27T11:27:59Z</time>
      </trkpt>
      <trkpt lat="47.91097" lon="7.1121">
        <ele>1230.4305</ele>
        <time>2014-02-27T11:28:04Z</time>
      </trkpt>
      <trkpt lat="47.91097" lon="7.1121">
        <ele>1230.4305</ele>
        <time>2014-02-27T11:28:09Z</time>
      </trkpt>
      <trkpt lat="47.91097" lon="7.1121">
        <ele>1230.4305</ele>
        <time>2014-02-27T11:28:14Z</time>
      </trkpt>
      <trkpt lat="47.91101" lon="7.11208">
        <ele>1230.4305</ele>
        <time>2014-02-27T11:28:19Z</time>
      </trkpt>
      <trkpt lat="47.91101" lon="7.11201">
        <ele>1229.378</ele>
        <time>2014-02-27T11:28:24Z</time>
      </trkpt>
      <trkpt lat="47.91103" lon="7.11194">
        <ele>1229.378</ele>
        <time>2014-02-27T11:28:29Z</time>
      </trkpt>
      <trkpt lat="47.91105" lon="7.11188">
        <ele>1228.225</ele>
        <time>2014-02-27T11:28:34Z</time>
      </trkpt>
      <trkpt lat="47.91104" lon="7.11186">
        <ele>1228.225</ele>
        <time>2014-02-27T11:28:39Z</time>
      </trkpt>
      <trkpt lat="47.91106" lon="7.11179">
        <ele>1228.225</ele>
        <time>2014-02-27T11:28:44Z</time>
      </trkpt>
      <trkpt lat="47.91108" lon="7.11171">
        <ele>1227.0159</ele>
        <time>2014-02-27T11:28:49Z</time>
      </trkpt>
      <trkpt lat="47.91107" lon="7.11165">
        <ele>1227.0159</ele>
        <time>2014-02-27T11:28:54Z</time>
      </trkpt>
      <trkpt lat="47.91111" lon="7.1116">
        <ele>1226.109</ele>
        <time>2014-02-27T11:28:59Z</time>
      </trkpt>
      <trkpt lat="47.91101" lon="7.11139">
        <ele>1225.6194</ele>
        <time>2014-02-27T11:29:04Z</time>
      </trkpt>
      <trkpt lat="47.911" lon="7.11132">
        <ele>1225.6194</ele>
        <time>2014-02-27T11:29:09Z</time>
      </trkpt>
      <trkpt lat="47.91101" lon="7.11124">
        <ele>1225.6233</ele>
        <time>2014-02-27T11:29:14Z</time>
      </trkpt>
      <trkpt lat="47.91096" lon="7.11117">
        <ele>1225.6233</ele>
        <time>2014-02-27T11:29:19Z</time>
      </trkpt>
      <trkpt lat="47.91098" lon="7.11112">
        <ele>1225.3689</ele>
        <time>2014-02-27T11:29:24Z</time>
      </trkpt>
      <trkpt lat="47.91099" lon="7.11106">
        <ele>1225.3689</ele>
        <time>2014-02-27T11:29:29Z</time>
      </trkpt>
      <trkpt lat="47.91099" lon="7.11104">
        <ele>1225.3689</ele>
        <time>2014-02-27T11:29:34Z</time>
      </trkpt>
      <trkpt lat="47.91099" lon="7.11103">
        <ele>1225.3689</ele>
        <time>2014-02-27T11:29:39Z</time>
      </trkpt>
      <trkpt lat="47.91097" lon="7.11091">
        <ele>1225.0822</ele>
        <time>2014-02-27T11:29:44Z</time>
      </trkpt>
      <trkpt lat="47.91097" lon="7.11078">
        <ele>1225.0822</ele>
        <time>2014-02-27T11:29:49Z</time>
      </trkpt>
      <trkpt lat="47.91096" lon="7.11073">
        <ele>1224.7275</ele>
        <time>2014-02-27T11:29:54Z</time>
      </trkpt>
      <trkpt lat="47.91096" lon="7.1107">
        <ele>1224.7275</ele>
        <time>2014-02-27T11:29:59Z</time>
      </trkpt>
      <trkpt lat="47.91095" lon="7.11067">
        <ele>1224.7275</ele>
        <time>2014-02-27T11:30:04Z</time>
      </trkpt>
      <trkpt lat="47.91094" lon="7.11066">
        <ele>1224.7275</ele>
        <time>2014-02-27T11:30:09Z</time>
      </trkpt>
      <trkpt lat="47.91094" lon="7.11066">
        <ele>1224.7275</ele>
        <time>2014-02-27T11:30:14Z</time>
      </trkpt>
      <trkpt lat="47.91094" lon="7.11066">
        <ele>1224.7275</ele>
        <time>2014-02-27T11:30:19Z</time>
      </trkpt>
      <trkpt lat="47.91094" lon="7.11066">
        <ele>1224.7275</ele>
        <time>2014-02-27T11:30:24Z</time>
      </trkpt>
      <trkpt lat="47.91094" lon="7.11066">
        <ele>1224.7275</ele>
        <time>2014-02-27T11:30:29Z</time>
      </trkpt>
      <trkpt lat="47.91088" lon="7.11027">
        <ele>1224.546</ele>
        <time>2014-02-27T11:30:34Z</time>
      </trkpt>
      <trkpt lat="47.91088" lon="7.11023">
        <ele>1224.546</ele>
        <time>2014-02-27T11:30:39Z</time>
      </trkpt>
      <trkpt lat="47.91089" lon="7.11019">
        <ele>1224.546</ele>
        <time>2014-02-27T11:30:44Z</time>
      </trkpt>
      <trkpt lat="47.91089" lon="7.11019">
        <ele>1224.546</ele>
        <time>2014-02-27T11:30:49Z</time>
      </trkpt>
      <trkpt lat="47.9109" lon="7.11003">
        <ele>1224.3567</ele>
        <time>2014-02-27T11:30:54Z</time>
      </trkpt>
      <trkpt lat="47.91091" lon="7.10991">
        <ele>1224.3567</ele>
        <time>2014-02-27T11:30:59Z</time>
      </trkpt>
      <trkpt lat="47.91094" lon="7.10978">
        <ele>1224.0496</ele>
        <time>2014-02-27T11:31:04Z</time>
      </trkpt>
      <trkpt lat="47.91096" lon="7.10972">
        <ele>1224.0496</ele>
        <time>2014-02-27T11:31:09Z</time>
      </trkpt>
      <trkpt lat="47.91094" lon="7.10958">
        <ele>1223.9121</ele>
        <time>2014-02-27T11:31:14Z</time>
      </trkpt>
      <trkpt lat="47.91096" lon="7.10952">
        <ele>1223.9121</ele>
        <time>2014-02-27T11:31:19Z</time>
      </trkpt>
      <trkpt lat="47.91095" lon="7.10949">
        <ele>1223.9121</ele>
        <time>2014-02-27T11:31:24Z</time>
      </trkpt>
      <trkpt lat="47.91096" lon="7.10948">
        <ele>1223.9121</ele>
        <time>2014-02-27T11:31:29Z</time>
      </trkpt>
      <trkpt lat="47.91096" lon="7.10947">
        <ele>1223.9121</ele>
        <time>2014-02-27T11:31:34Z</time>
      </trkpt>
      <trkpt lat="47.91096" lon="7.10932">
        <ele>1223.7341</ele>
        <time>2014-02-27T11:31:39Z</time>
      </trkpt>
      <trkpt lat="47.91093" lon="7.10917">
        <ele>1223.4508</ele>
        <time>2014-02-27T11:31:44Z</time>
      </trkpt>
      <trkpt lat="47.91093" lon="7.10903">
        <ele>1223.5068</ele>
        <time>2014-02-27T11:31:49Z</time>
      </trkpt>
      <trkpt lat="47.91095" lon="7.10897">
        <ele>1223.5068</ele>
        <time>2014-02-27T11:31:54Z</time>
      </trkpt>
      <trkpt lat="47.91102" lon="7.10889">
        <ele>1223.9235</ele>
        <time>2014-02-27T11:31:59Z</time>
      </trkpt>
      <trkpt lat="47.91108" lon="7.10883">
        <ele>1223.9235</ele>
        <time>2014-02-27T11:32:04Z</time>
      </trkpt>
      <trkpt lat="47.9111" lon="7.10876">
        <ele>1223.9705</ele>
        <time>2014-02-27T11:32:09Z</time>
      </trkpt>
      <trkpt lat="47.91108" lon="7.1087">
        <ele>1223.9705</ele>
        <time>2014-02-27T11:32:14Z</time>
      </trkpt>
      <trkpt lat="47.91106" lon="7.10863">
        <ele>1223.8652</ele>
        <time>2014-02-27T11:32:19Z</time>
      </trkpt>
      <trkpt lat="47.91105" lon="7.10854">
        <ele>1223.8652</ele>
        <time>2014-02-27T11:32:24Z</time>
      </trkpt>
      <trkpt lat="47.91105" lon="7.10851">
        <ele>1223.8652</ele>
        <time>2014-02-27T11:32:29Z</time>
      </trkpt>
      <trkpt lat="47.91106" lon="7.1084">
        <ele>1223.579</ele>
        <time>2014-02-27T11:32:34Z</time>
      </trkpt>
      <trkpt lat="47.91107" lon="7.10831">
        <ele>1223.579</ele>
        <time>2014-02-27T11:32:39Z</time>
      </trkpt>
      <trkpt lat="47.91108" lon="7.10826">
        <ele>1223.2874</ele>
        <time>2014-02-27T11:32:44Z</time>
      </trkpt>
      <trkpt lat="47.91108" lon="7.10824">
        <ele>1223.2874</ele>
        <time>2014-02-27T11:32:49Z</time>
      </trkpt>
      <trkpt lat="47.91107" lon="7.10823">
        <ele>1223.2874</ele>
        <time>2014-02-27T11:32:54Z</time>
      </trkpt>
      <trkpt lat="47.91108" lon="7.10822">
        <ele>1223.2874</ele>
        <time>2014-02-27T11:32:59Z</time>
      </trkpt>
      <trkpt lat="47.91108" lon="7.10823">
        <ele>1223.2874</ele>
        <time>2014-02-27T11:33:04Z</time>
      </trkpt>
      <trkpt lat="47.91111" lon="7.10805">
        <ele>1223.0951</ele>
        <time>2014-02-27T11:33:09Z</time>
      </trkpt>
      <trkpt lat="47.91115" lon="7.10797">
        <ele>1223.0951</ele>
        <time>2014-02-27T11:33:14Z</time>
      </trkpt>
      <trkpt lat="47.91117" lon="7.10793">
        <ele>1223.2141</ele>
        <time>2014-02-27T11:33:19Z</time>
      </trkpt>
      <trkpt lat="47.91121" lon="7.10778">
        <ele>1223.6094</ele>
        <time>2014-02-27T11:33:24Z</time>
      </trkpt>
      <trkpt lat="47.91123" lon="7.10767">
        <ele>1223.6094</ele>
        <time>2014-02-27T11:33:29Z</time>
      </trkpt>
      <trkpt lat="47.91125" lon="7.10761">
        <ele>1224.1898</ele>
        <time>2014-02-27T11:33:34Z</time>
      </trkpt>
      <trkpt lat="47.91125" lon="7.10752">
        <ele>1224.1898</ele>
        <time>2014-02-27T11:33:39Z</time>
      </trkpt>
      <trkpt lat="47.91128" lon="7.1075">
        <ele>1224.1898</ele>
        <time>2014-02-27T11:33:44Z</time>
      </trkpt>
      <trkpt lat="47.91131" lon="7.10745">
        <ele>1224.7837</ele>
        <time>2014-02-27T11:33:49Z</time>
      </trkpt>
      <trkpt lat="47.91135" lon="7.10739">
        <ele>1224.7837</ele>
        <time>2014-02-27T11:33:54Z</time>
      </trkpt>
      <trkpt lat="47.91136" lon="7.10737">
        <ele>1224.7837</ele>
        <time>2014-02-27T11:33:59Z</time>
      </trkpt>
      <trkpt lat="47.91134" lon="7.10736">
        <ele>1224.7837</ele>
        <time>2014-02-27T11:34:04Z</time>
      </trkpt>
      <trkpt lat="47.91134" lon="7.10736">
        <ele>1224.7837</ele>
        <time>2014-02-27T11:34:09Z</time>
      </trkpt>
      <trkpt lat="47.91135" lon="7.10728">
        <ele>1226.2408</ele>
        <time>2014-02-27T11:34:14Z</time>
      </trkpt>
      <trkpt lat="47.91137" lon="7.1072">
        <ele>1226.2408</ele>
        <time>2014-02-27T11:34:19Z</time>
      </trkpt>
      <trkpt lat="47.91142" lon="7.10715">
        <ele>1227.7175</ele>
        <time>2014-02-27T11:34:24Z</time>
      </trkpt>
      <trkpt lat="47.9114" lon="7.10713">
        <ele>1227.7175</ele>
        <time>2014-02-27T11:34:29Z</time>
      </trkpt>
      <trkpt lat="47.9114" lon="7.10713">
        <ele>1227.7175</ele>
        <time>2014-02-27T11:34:34Z</time>
      </trkpt>
      <trkpt lat="47.9114" lon="7.10713">
        <ele>1227.7175</ele>
        <time>2014-02-27T11:34:39Z</time>
      </trkpt>
      <trkpt lat="47.9114" lon="7.10714">
        <ele>1227.7175</ele>
        <time>2014-02-27T11:34:44Z</time>
      </trkpt>
      <trkpt lat="47.91141" lon="7.10713">
        <ele>1227.7175</ele>
        <time>2014-02-27T11:34:49Z</time>
      </trkpt>
      <trkpt lat="47.91139" lon="7.10712">
        <ele>1227.7175</ele>
        <time>2014-02-27T11:34:54Z</time>
      </trkpt>
      <trkpt lat="47.91139" lon="7.10714">
        <ele>1227.7175</ele>
        <time>2014-02-27T11:34:59Z</time>
      </trkpt>
      <trkpt lat="47.91139" lon="7.10714">
        <ele>1227.7175</ele>
        <time>2014-02-27T11:35:04Z</time>
      </trkpt>
      <trkpt lat="47.9114" lon="7.10712">
        <ele>1227.7175</ele>
        <time>2014-02-27T11:35:09Z</time>
      </trkpt>
      <trkpt lat="47.91141" lon="7.1071">
        <ele>1229.1956</ele>
        <time>2014-02-27T11:35:14Z</time>
      </trkpt>
      <trkpt lat="47.91144" lon="7.10706">
        <ele>1229.1956</ele>
        <time>2014-02-27T11:35:19Z</time>
      </trkpt>
      <trkpt lat="47.91145" lon="7.10705">
        <ele>1229.1956</ele>
        <time>2014-02-27T11:35:24Z</time>
      </trkpt>
      <trkpt lat="47.91146" lon="7.10701">
        <ele>1229.1956</ele>
        <time>2014-02-27T11:35:29Z</time>
      </trkpt>
      <trkpt lat="47.9115" lon="7.10693">
        <ele>1230.6005</ele>
        <time>2014-02-27T11:35:34Z</time>
      </trkpt>
      <trkpt lat="47.91154" lon="7.10687">
        <ele>1230.6005</ele>
        <time>2014-02-27T11:35:39Z</time>
      </trkpt>
      <trkpt lat="47.91153" lon="7.10686">
        <ele>1230.6005</ele>
        <time>2014-02-27T11:35:44Z</time>
      </trkpt>
      <trkpt lat="47.91153" lon="7.10686">
        <ele>1230.6005</ele>
        <time>2014-02-27T11:35:49Z</time>
      </trkpt>
      <trkpt lat="47.91153" lon="7.10686">
        <ele>1230.6005</ele>
        <time>2014-02-27T11:35:54Z</time>
      </trkpt>
      <trkpt lat="47.91153" lon="7.10686">
        <ele>1230.6005</ele>
        <time>2014-02-27T11:35:59Z</time>
      </trkpt>
      <trkpt lat="47.91154" lon="7.10686">
        <ele>1230.6005</ele>
        <time>2014-02-27T11:36:04Z</time>
      </trkpt>
      <trkpt lat="47.91155" lon="7.10681">
        <ele>1232.1804</ele>
        <time>2014-02-27T11:36:09Z</time>
      </trkpt>
      <trkpt lat="47.91157" lon="7.10676">
        <ele>1232.1804</ele>
        <time>2014-02-27T11:36:14Z</time>
      </trkpt>
      <trkpt lat="47.91158" lon="7.10668">
        <ele>1233.79</ele>
        <time>2014-02-27T11:36:19Z</time>
      </trkpt>
      <trkpt lat="47.91158" lon="7.10665">
        <ele>1233.79</ele>
        <time>2014-02-27T11:36:24Z</time>
      </trkpt>
      <trkpt lat="47.91162" lon="7.10659">
        <ele>1233.79</ele>
        <time>2014-02-27T11:36:29Z</time>
      </trkpt>
      <trkpt lat="47.91163" lon="7.10655">
        <ele>1235.4388</ele>
        <time>2014-02-27T11:36:34Z</time>
      </trkpt>
      <trkpt lat="47.91164" lon="7.10651">
        <ele>1235.4388</ele>
        <time>2014-02-27T11:36:39Z</time>
      </trkpt>
      <trkpt lat="47.91166" lon="7.10647">
        <ele>1235.4388</ele>
        <time>2014-02-27T11:36:44Z</time>
      </trkpt>
      <trkpt lat="47.91166" lon="7.10646">
        <ele>1235.4388</ele>
        <time>2014-02-27T11:36:49Z</time>
      </trkpt>
      <trkpt lat="47.91166" lon="7.10645">
        <ele>1235.4388</ele>
        <time>2014-02-27T11:36:54Z</time>
      </trkpt>
      <trkpt lat="47.91167" lon="7.10638">
        <ele>1237.3224</ele>
        <time>2014-02-27T11:36:59Z</time>
      </trkpt>
      <trkpt lat="47.91169" lon="7.10632">
        <ele>1237.3224</ele>
        <time>2014-02-27T11:37:04Z</time>
      </trkpt>
      <trkpt lat="47.9117" lon="7.10625">
        <ele>1239.0885</ele>
        <time>2014-02-27T11:37:09Z</time>
      </trkpt>
      <trkpt lat="47.91173" lon="7.10619">
        <ele>1239.0885</ele>
        <time>2014-02-27T11:37:14Z</time>
      </trkpt>
      <trkpt lat="47.91174" lon="7.10613">
        <ele>1239.0885</ele>
        <time>2014-02-27T11:37:19Z</time>
      </trkpt>
      <trkpt lat="47.91172" lon="7.10608">
        <ele>1240.8145</ele>
        <time>2014-02-27T11:37:24Z</time>
      </trkpt>
      <trkpt lat="47.91173" lon="7.10603">
        <ele>1240.8145</ele>
        <time>2014-02-27T11:37:29Z</time>
      </trkpt>
      <trkpt lat="47.91173" lon="7.10602">
        <ele>1240.8145</ele>
        <time>2014-02-27T11:37:34Z</time>
      </trkpt>
      <trkpt lat="47.91174" lon="7.106">
        <ele>1240.8145</ele>
        <time>2014-02-27T11:37:39Z</time>
      </trkpt>
      <trkpt lat="47.91172" lon="7.1059">
        <ele>1242.6583</ele>
        <time>2014-02-27T11:37:44Z</time>
      </trkpt>
      <trkpt lat="47.91174" lon="7.10584">
        <ele>1242.6583</ele>
        <time>2014-02-27T11:37:49Z</time>
      </trkpt>
      <trkpt lat="47.91174" lon="7.10577">
        <ele>1244.3773</ele>
        <time>2014-02-27T11:37:54Z</time>
      </trkpt>
      <trkpt lat="47.91174" lon="7.10571">
        <ele>1244.3773</ele>
        <time>2014-02-27T11:37:59Z</time>
      </trkpt>
      <trkpt lat="47.91173" lon="7.10569">
        <ele>1244.3773</ele>
        <time>2014-02-27T11:38:04Z</time>
      </trkpt>
      <trkpt lat="47.91173" lon="7.1057">
        <ele>1244.3773</ele>
        <time>2014-02-27T11:38:09Z</time>
      </trkpt>
      <trkpt lat="47.91174" lon="7.1057">
        <ele>1244.3773</ele>
        <time>2014-02-27T11:38:14Z</time>
      </trkpt>
      <trkpt lat="47.91173" lon="7.1057">
        <ele>1244.3773</ele>
        <time>2014-02-27T11:38:19Z</time>
      </trkpt>
      <trkpt lat="47.91173" lon="7.10569">
        <ele>1244.3773</ele>
        <time>2014-02-27T11:38:24Z</time>
      </trkpt>
      <trkpt lat="47.91172" lon="7.1057">
        <ele>1244.3773</ele>
        <time>2014-02-27T11:38:29Z</time>
      </trkpt>
      <trkpt lat="47.91172" lon="7.10568">
        <ele>1244.3773</ele>
        <time>2014-02-27T11:38:34Z</time>
      </trkpt>
      <trkpt lat="47.91172" lon="7.10568">
        <ele>1244.3773</ele>
        <time>2014-02-27T11:38:39Z</time>
      </trkpt>
      <trkpt lat="47.91172" lon="7.10567">
        <ele>1246.0496</ele>
        <time>2014-02-27T11:38:44Z</time>
      </trkpt>
      <trkpt lat="47.91168" lon="7.10564">
        <ele>1246.0496</ele>
        <time>2014-02-27T11:38:49Z</time>
      </trkpt>
      <trkpt lat="47.91167" lon="7.10562">
        <ele>1246.0496</ele>
        <time>2014-02-27T11:38:54Z</time>
      </trkpt>
      <trkpt lat="47.91167" lon="7.10561">
        <ele>1246.0496</ele>
        <time>2014-02-27T11:38:59Z</time>
      </trkpt>
      <trkpt lat="47.91167" lon="7.10561">
        <ele>1246.0496</ele>
        <time>2014-02-27T11:39:04Z</time>
      </trkpt>
      <trkpt lat="47.91167" lon="7.10562">
        <ele>1246.0496</ele>
        <time>2014-02-27T11:39:09Z</time>
      </trkpt>
      <trkpt lat="47.91167" lon="7.10562">
        <ele>1246.0496</ele>
        <time>2014-02-27T11:39:14Z</time>
      </trkpt>
      <trkpt lat="47.91167" lon="7.10562">
        <ele>1246.0496</ele>
        <time>2014-02-27T11:39:19Z</time>
      </trkpt>
      <trkpt lat="47.91167" lon="7.10558">
        <ele>1246.0496</ele>
        <time>2014-02-27T11:39:24Z</time>
      </trkpt>
      <trkpt lat="47.91163" lon="7.10551">
        <ele>1248.0355</ele>
        <time>2014-02-27T11:39:29Z</time>
      </trkpt>
      <trkpt lat="47.9116" lon="7.10548">
        <ele>1248.0355</ele>
        <time>2014-02-27T11:39:34Z</time>
      </trkpt>
      <trkpt lat="47.91157" lon="7.10546">
        <ele>1248.0355</ele>
        <time>2014-02-27T11:39:39Z</time>
      </trkpt>
      <trkpt lat="47.91153" lon="7.10542">
        <ele>1250.0634</ele>
        <time>2014-02-27T11:39:44Z</time>
      </trkpt>
      <trkpt lat="47.91153" lon="7.10542">
        <ele>1250.0634</ele>
        <time>2014-02-27T11:39:49Z</time>
      </trkpt>
      <trkpt lat="47.91152" lon="7.10542">
        <ele>1250.0634</ele>
        <time>2014-02-27T11:39:54Z</time>
      </trkpt>
      <trkpt lat="47.9115" lon="7.10538">
        <ele>1250.0634</ele>
        <time>2014-02-27T11:39:59Z</time>
      </trkpt>
      <trkpt lat="47.91146" lon="7.10532">
        <ele>1252.0828</ele>
        <time>2014-02-27T11:40:04Z</time>
      </trkpt>
      <trkpt lat="47.91145" lon="7.10529">
        <ele>1252.0828</ele>
        <time>2014-02-27T11:40:09Z</time>
      </trkpt>
      <trkpt lat="47.91143" lon="7.10522">
        <ele>1252.0828</ele>
        <time>2014-02-27T11:40:14Z</time>
      </trkpt>
      <trkpt lat="47.91137" lon="7.10522">
        <ele>1253.9608</ele>
        <time>2014-02-27T11:40:19Z</time>
      </trkpt>
      <trkpt lat="47.91132" lon="7.1052">
        <ele>1253.9608</ele>
        <time>2014-02-27T11:40:24Z</time>
      </trkpt>
      <trkpt lat="47.91129" lon="7.1052">
        <ele>1253.9608</ele>
        <time>2014-02-27T11:40:29Z</time>
      </trkpt>
      <trkpt lat="47.91132" lon="7.10524">
        <ele>1255.4451</ele>
        <time>2014-02-27T11:40:34Z</time>
      </trkpt>
      <trkpt lat="47.91132" lon="7.10523">
        <ele>1255.4451</ele>
        <time>2014-02-27T11:40:39Z</time>
      </trkpt>
      <trkpt lat="47.9113" lon="7.10522">
        <ele>1255.4451</ele>
        <time>2014-02-27T11:40:44Z</time>
      </trkpt>
      <trkpt lat="47.9113" lon="7.10522">
        <ele>1255.4451</ele>
        <time>2014-02-27T11:40:49Z</time>
      </trkpt>
      <trkpt lat="47.91128" lon="7.1052">
        <ele>1255.4451</ele>
        <time>2014-02-27T11:40:54Z</time>
      </trkpt>
      <trkpt lat="47.91124" lon="7.10517">
        <ele>1257.0088</ele>
        <time>2014-02-27T11:40:59Z</time>
      </trkpt>
      <trkpt lat="47.91122" lon="7.10518">
        <ele>1257.0088</ele>
        <time>2014-02-27T11:41:04Z</time>
      </trkpt>
      <trkpt lat="47.91122" lon="7.10522">
        <ele>1257.0088</ele>
        <time>2014-02-27T11:41:09Z</time>
      </trkpt>
      <trkpt lat="47.91117" lon="7.10518">
        <ele>1258.4999</ele>
        <time>2014-02-27T11:41:14Z</time>
      </trkpt>
      <trkpt lat="47.91113" lon="7.10514">
        <ele>1258.4999</ele>
        <time>2014-02-27T11:41:19Z</time>
      </trkpt>
      <trkpt lat="47.91111" lon="7.10516">
        <ele>1258.4999</ele>
        <time>2014-02-27T11:41:24Z</time>
      </trkpt>
      <trkpt lat="47.9111" lon="7.10514">
        <ele>1258.4999</ele>
        <time>2014-02-27T11:41:29Z</time>
      </trkpt>
      <trkpt lat="47.9111" lon="7.10514">
        <ele>1258.4999</ele>
        <time>2014-02-27T11:41:34Z</time>
      </trkpt>
      <trkpt lat="47.91107" lon="7.10511">
        <ele>1260.0365</ele>
        <time>2014-02-27T11:41:39Z</time>
      </trkpt>
      <trkpt lat="47.91104" lon="7.10508">
        <ele>1260.0365</ele>
        <time>2014-02-27T11:41:44Z</time>
      </trkpt>
      <trkpt lat="47.91101" lon="7.10506">
        <ele>1261.3942</ele>
        <time>2014-02-27T11:41:49Z</time>
      </trkpt>
      <trkpt lat="47.91084" lon="7.10507">
        <ele>1262.7518</ele>
        <time>2014-02-27T11:42:34Z</time>
      </trkpt>
      <trkpt lat="47.91082" lon="7.10509">
        <ele>1262.7518</ele>
        <time>2014-02-27T11:42:39Z</time>
      </trkpt>
      <trkpt lat="47.91078" lon="7.10503">
        <ele>1262.7518</ele>
        <time>2014-02-27T11:42:44Z</time>
      </trkpt>
      <trkpt lat="47.91076" lon="7.10502">
        <ele>1264.9685</ele>
        <time>2014-02-27T11:42:49Z</time>
      </trkpt>
      <trkpt lat="47.91071" lon="7.10497">
        <ele>1264.9685</ele>
        <time>2014-02-27T11:42:54Z</time>
      </trkpt>
      <trkpt lat="47.91069" lon="7.10494">
        <ele>1264.9685</ele>
        <time>2014-02-27T11:42:59Z</time>
      </trkpt>
      <trkpt lat="47.91066" lon="7.10493">
        <ele>1267.728</ele>
        <time>2014-02-27T11:43:04Z</time>
      </trkpt>
      <trkpt lat="47.91062" lon="7.10497">
        <ele>1267.728</ele>
        <time>2014-02-27T11:43:09Z</time>
      </trkpt>
      <trkpt lat="47.91063" lon="7.10498">
        <ele>1267.728</ele>
        <time>2014-02-27T11:43:14Z</time>
      </trkpt>
      <trkpt lat="47.91063" lon="7.10498">
        <ele>1267.728</ele>
        <time>2014-02-27T11:43:19Z</time>
      </trkpt>
      <trkpt lat="47.91061" lon="7.10497">
        <ele>1267.728</ele>
        <time>2014-02-27T11:43:24Z</time>
      </trkpt>
      <trkpt lat="47.91057" lon="7.10496">
        <ele>1270.3365</ele>
        <time>2014-02-27T11:43:29Z</time>
      </trkpt>
      <trkpt lat="47.91053" lon="7.10494">
        <ele>1270.3365</ele>
        <time>2014-02-27T11:43:34Z</time>
      </trkpt>
      <trkpt lat="47.91052" lon="7.10494">
        <ele>1270.3365</ele>
        <time>2014-02-27T11:43:39Z</time>
      </trkpt>
      <trkpt lat="47.91048" lon="7.10493">
        <ele>1272.5555</ele>
        <time>2014-02-27T11:43:44Z</time>
      </trkpt>
      <trkpt lat="47.91045" lon="7.10491">
        <ele>1272.5555</ele>
        <time>2014-02-27T11:43:49Z</time>
      </trkpt>
      <trkpt lat="47.91038" lon="7.10488">
        <ele>1274.7413</ele>
        <time>2014-02-27T11:43:54Z</time>
      </trkpt>
      <trkpt lat="47.91036" lon="7.1049">
        <ele>1274.7413</ele>
        <time>2014-02-27T11:43:59Z</time>
      </trkpt>
      <trkpt lat="47.91036" lon="7.10492">
        <ele>1274.7413</ele>
        <time>2014-02-27T11:44:04Z</time>
      </trkpt>
      <trkpt lat="47.91035" lon="7.10492">
        <ele>1274.7413</ele>
        <time>2014-02-27T11:44:09Z</time>
      </trkpt>
      <trkpt lat="47.91033" lon="7.10493">
        <ele>1274.7413</ele>
        <time>2014-02-27T11:44:14Z</time>
      </trkpt>
      <trkpt lat="47.91034" lon="7.10492">
        <ele>1274.7413</ele>
        <time>2014-02-27T11:44:19Z</time>
      </trkpt>
      <trkpt lat="47.91034" lon="7.10494">
        <ele>1276.9072</ele>
        <time>2014-02-27T11:44:24Z</time>
      </trkpt>
      <trkpt lat="47.91033" lon="7.10493">
        <ele>1276.9072</ele>
        <time>2014-02-27T11:44:29Z</time>
      </trkpt>
      <trkpt lat="47.91033" lon="7.10493">
        <ele>1276.9072</ele>
        <time>2014-02-27T11:44:34Z</time>
      </trkpt>
      <trkpt lat="47.91031" lon="7.10492">
        <ele>1276.9072</ele>
        <time>2014-02-27T11:44:39Z</time>
      </trkpt>
      <trkpt lat="47.91027" lon="7.10488">
        <ele>1278.72</ele>
        <time>2014-02-27T11:44:44Z</time>
      </trkpt>
      <trkpt lat="47.91023" lon="7.10485">
        <ele>1278.72</ele>
        <time>2014-02-27T11:44:49Z</time>
      </trkpt>
      <trkpt lat="47.91023" lon="7.10485">
        <ele>1278.72</ele>
        <time>2014-02-27T11:44:54Z</time>
      </trkpt>
      <trkpt lat="47.91025" lon="7.10489">
        <ele>1278.72</ele>
        <time>2014-02-27T11:44:59Z</time>
      </trkpt>
      <trkpt lat="47.91021" lon="7.10486">
        <ele>1280.8663</ele>
        <time>2014-02-27T11:45:04Z</time>
      </trkpt>
      <trkpt lat="47.91018" lon="7.10484">
        <ele>1280.8663</ele>
        <time>2014-02-27T11:45:09Z</time>
      </trkpt>
      <trkpt lat="47.91016" lon="7.10482">
        <ele>1280.8663</ele>
        <time>2014-02-27T11:45:14Z</time>
      </trkpt>
      <trkpt lat="47.91014" lon="7.1048">
        <ele>1280.8663</ele>
        <time>2014-02-27T11:45:19Z</time>
      </trkpt>
      <trkpt lat="47.91011" lon="7.10481">
        <ele>1282.9296</ele>
        <time>2014-02-27T11:45:24Z</time>
      </trkpt>
      <trkpt lat="47.9101" lon="7.10481">
        <ele>1282.9296</ele>
        <time>2014-02-27T11:45:29Z</time>
      </trkpt>
      <trkpt lat="47.91009" lon="7.1048">
        <ele>1282.9296</ele>
        <time>2014-02-27T11:45:34Z</time>
      </trkpt>
      <trkpt lat="47.9101" lon="7.10481">
        <ele>1282.9296</ele>
        <time>2014-02-27T11:45:39Z</time>
      </trkpt>
      <trkpt lat="47.91011" lon="7.10482">
        <ele>1282.9296</ele>
        <time>2014-02-27T11:45:44Z</time>
      </trkpt>
      <trkpt lat="47.9101" lon="7.10482">
        <ele>1282.9296</ele>
        <time>2014-02-27T11:45:49Z</time>
      </trkpt>
      <trkpt lat="47.9101" lon="7.10482">
        <ele>1282.9296</ele>
        <time>2014-02-27T11:45:54Z</time>
      </trkpt>
      <trkpt lat="47.9101" lon="7.10482">
        <ele>1282.9296</ele>
        <time>2014-02-27T11:45:59Z</time>
      </trkpt>
      <trkpt lat="47.9101" lon="7.10482">
        <ele>1282.9296</ele>
        <time>2014-02-27T11:46:04Z</time>
      </trkpt>
      <trkpt lat="47.9101" lon="7.10482">
        <ele>1282.9296</ele>
        <time>2014-02-27T11:46:09Z</time>
      </trkpt>
      <trkpt lat="47.91011" lon="7.10482">
        <ele>1282.9296</ele>
        <time>2014-02-27T11:46:14Z</time>
      </trkpt>
      <trkpt lat="47.91011" lon="7.10482">
        <ele>1282.9296</ele>
        <time>2014-02-27T11:46:19Z</time>
      </trkpt>
      <trkpt lat="47.9101" lon="7.10482">
        <ele>1282.9296</ele>
        <time>2014-02-27T11:46:24Z</time>
      </trkpt>
      <trkpt lat="47.9101" lon="7.10482">
        <ele>1282.9296</ele>
        <time>2014-02-27T11:46:29Z</time>
      </trkpt>
      <trkpt lat="47.9101" lon="7.10482">
        <ele>1282.9296</ele>
        <time>2014-02-27T11:46:34Z</time>
      </trkpt>
      <trkpt lat="47.9101" lon="7.10482">
        <ele>1282.9296</ele>
        <time>2014-02-27T11:46:39Z</time>
      </trkpt>
      <trkpt lat="47.9101" lon="7.10482">
        <ele>1282.9296</ele>
        <time>2014-02-27T11:46:44Z</time>
      </trkpt>
      <trkpt lat="47.9101" lon="7.10482">
        <ele>1282.9296</ele>
        <time>2014-02-27T11:46:49Z</time>
      </trkpt>
      <trkpt lat="47.91008" lon="7.10482">
        <ele>1282.9296</ele>
        <time>2014-02-27T11:46:54Z</time>
      </trkpt>
      <trkpt lat="47.91005" lon="7.10481">
        <ele>1284.7258</ele>
        <time>2014-02-27T11:46:59Z</time>
      </trkpt>
      <trkpt lat="47.91002" lon="7.1048">
        <ele>1284.7258</ele>
        <time>2014-02-27T11:47:04Z</time>
      </trkpt>
      <trkpt lat="47.90998" lon="7.10477">
        <ele>1284.7258</ele>
        <time>2014-02-27T11:47:09Z</time>
      </trkpt>
      <trkpt lat="47.90992" lon="7.10478">
        <ele>1286.7197</ele>
        <time>2014-02-27T11:47:14Z</time>
      </trkpt>
      <trkpt lat="47.9099" lon="7.1048">
        <ele>1286.7197</ele>
        <time>2014-02-27T11:47:19Z</time>
      </trkpt>
      <trkpt lat="47.90986" lon="7.10479">
        <ele>1286.7197</ele>
        <time>2014-02-27T11:47:24Z</time>
      </trkpt>
      <trkpt lat="47.90983" lon="7.1048">
        <ele>1288.7504</ele>
        <time>2014-02-27T11:47:29Z</time>
      </trkpt>
      <trkpt lat="47.90979" lon="7.10482">
        <ele>1288.7504</ele>
        <time>2014-02-27T11:47:34Z</time>
      </trkpt>
      <trkpt lat="47.90976" lon="7.10484">
        <ele>1288.7504</ele>
        <time>2014-02-27T11:47:39Z</time>
      </trkpt>
      <trkpt lat="47.90972" lon="7.10485">
        <ele>1290.5966</ele>
        <time>2014-02-27T11:47:44Z</time>
      </trkpt>
      <trkpt lat="47.9097" lon="7.10484">
        <ele>1290.5966</ele>
        <time>2014-02-27T11:47:49Z</time>
      </trkpt>
      <trkpt lat="47.90968" lon="7.10486">
        <ele>1290.5966</ele>
        <time>2014-02-27T11:47:54Z</time>
      </trkpt>
      <trkpt lat="47.90964" lon="7.10484">
        <ele>1292.6162</ele>
        <time>2014-02-27T11:47:59Z</time>
      </trkpt>
      <trkpt lat="47.90962" lon="7.10487">
        <ele>1292.6162</ele>
        <time>2014-02-27T11:48:04Z</time>
      </trkpt>
      <trkpt lat="47.90959" lon="7.10488">
        <ele>1292.6162</ele>
        <time>2014-02-27T11:48:09Z</time>
      </trkpt>
      <trkpt lat="47.90954" lon="7.10487">
        <ele>1294.7512</ele>
        <time>2014-02-27T11:48:14Z</time>
      </trkpt>
      <trkpt lat="47.90951" lon="7.10487">
        <ele>1294.7512</ele>
        <time>2014-02-27T11:48:19Z</time>
      </trkpt>
      <trkpt lat="47.90947" lon="7.10486">
        <ele>1294.7512</ele>
        <time>2014-02-27T11:48:24Z</time>
      </trkpt>
      <trkpt lat="47.90944" lon="7.10486">
        <ele>1296.818</ele>
        <time>2014-02-27T11:48:29Z</time>
      </trkpt>
      <trkpt lat="47.90942" lon="7.10486">
        <ele>1296.818</ele>
        <time>2014-02-27T11:48:34Z</time>
      </trkpt>
      <trkpt lat="47.90938" lon="7.10486">
        <ele>1296.818</ele>
        <time>2014-02-27T11:48:39Z</time>
      </trkpt>
      <trkpt lat="47.90935" lon="7.10487">
        <ele>1296.818</ele>
        <time>2014-02-27T11:48:44Z</time>
      </trkpt>
      <trkpt lat="47.90931" lon="7.10488">
        <ele>1298.5602</ele>
        <time>2014-02-27T11:48:49Z</time>
      </trkpt>
      <trkpt lat="47.90927" lon="7.10486">
        <ele>1298.5602</ele>
        <time>2014-02-27T11:48:54Z</time>
      </trkpt>
      <trkpt lat="47.90924" lon="7.10485">
        <ele>1298.5602</ele>
        <time>2014-02-27T11:48:59Z</time>
      </trkpt>
      <trkpt lat="47.90921" lon="7.10487">
        <ele>1300.1737</ele>
        <time>2014-02-27T11:49:04Z</time>
      </trkpt>
      <trkpt lat="47.90919" lon="7.10485">
        <ele>1300.1737</ele>
        <time>2014-02-27T11:49:09Z</time>
      </trkpt>
      <trkpt lat="47.90917" lon="7.10487">
        <ele>1300.1737</ele>
        <time>2014-02-27T11:49:14Z</time>
      </trkpt>
      <trkpt lat="47.90912" lon="7.10488">
        <ele>1301.4657</ele>
        <time>2014-02-27T11:49:19Z</time>
      </trkpt>
      <trkpt lat="47.90908" lon="7.10488">
        <ele>1301.4657</ele>
        <time>2014-02-27T11:49:24Z</time>
      </trkpt>
      <trkpt lat="47.90904" lon="7.10487">
        <ele>1301.4657</ele>
        <time>2014-02-27T11:49:29Z</time>
      </trkpt>
      <trkpt lat="47.90901" lon="7.10487">
        <ele>1302.8494</ele>
        <time>2014-02-27T11:49:34Z</time>
      </trkpt>
      <trkpt lat="47.90901" lon="7.10488">
        <ele>1302.8494</ele>
        <time>2014-02-27T11:49:39Z</time>
      </trkpt>
      <trkpt lat="47.90903" lon="7.10488">
        <ele>1302.8494</ele>
        <time>2014-02-27T11:49:44Z</time>
      </trkpt>
      <trkpt lat="47.90903" lon="7.10488">
        <ele>1302.8494</ele>
        <time>2014-02-27T11:49:49Z</time>
      </trkpt>
      <trkpt lat="47.90901" lon="7.10489">
        <ele>1302.8494</ele>
        <time>2014-02-27T11:49:54Z</time>
      </trkpt>
      <trkpt lat="47.90897" lon="7.1049">
        <ele>1302.8494</ele>
        <time>2014-02-27T11:49:59Z</time>
      </trkpt>
      <trkpt lat="47.90892" lon="7.10488">
        <ele>1304.477</ele>
        <time>2014-02-27T11:50:04Z</time>
      </trkpt>
      <trkpt lat="47.90887" lon="7.10486">
        <ele>1304.477</ele>
        <time>2014-02-27T11:50:09Z</time>
      </trkpt>
      <trkpt lat="47.90884" lon="7.10487">
        <ele>1304.477</ele>
        <time>2014-02-27T11:50:14Z</time>
      </trkpt>
      <trkpt lat="47.90879" lon="7.10485">
        <ele>1306.1141</ele>
        <time>2014-02-27T11:50:19Z</time>
      </trkpt>
      <trkpt lat="47.90877" lon="7.10485">
        <ele>1306.1141</ele>
        <time>2014-02-27T11:50:24Z</time>
      </trkpt>
      <trkpt lat="47.90873" lon="7.10483">
        <ele>1306.1141</ele>
        <time>2014-02-27T11:50:29Z</time>
      </trkpt>
      <trkpt lat="47.9087" lon="7.10483">
        <ele>1306.1141</ele>
        <time>2014-02-27T11:50:34Z</time>
      </trkpt>
      <trkpt lat="47.90867" lon="7.1048">
        <ele>1307.5724</ele>
        <time>2014-02-27T11:50:39Z</time>
      </trkpt>
      <trkpt lat="47.90863" lon="7.10477">
        <ele>1307.5724</ele>
        <time>2014-02-27T11:50:44Z</time>
      </trkpt>
      <trkpt lat="47.90859" lon="7.10478">
        <ele>1309.2112</ele>
        <time>2014-02-27T11:50:49Z</time>
      </trkpt>
      <trkpt lat="47.90856" lon="7.10476">
        <ele>1309.2112</ele>
        <time>2014-02-27T11:50:54Z</time>
      </trkpt>
      <trkpt lat="47.90852" lon="7.10475">
        <ele>1309.2112</ele>
        <time>2014-02-27T11:50:59Z</time>
      </trkpt>
      <trkpt lat="47.90847" lon="7.10474">
        <ele>1310.6425</ele>
        <time>2014-02-27T11:51:04Z</time>
      </trkpt>
      <trkpt lat="47.90842" lon="7.10473">
        <ele>1310.6425</ele>
        <time>2014-02-27T11:51:09Z</time>
      </trkpt>
      <trkpt lat="47.90838" lon="7.10473">
        <ele>1311.7378</ele>
        <time>2014-02-27T11:51:14Z</time>
      </trkpt>
      <trkpt lat="47.90833" lon="7.1047">
        <ele>1311.7378</ele>
        <time>2014-02-27T11:51:19Z</time>
      </trkpt>
      <trkpt lat="47.90829" lon="7.10467">
        <ele>1312.6244</ele>
        <time>2014-02-27T11:51:24Z</time>
      </trkpt>
      <trkpt lat="47.90824" lon="7.10466">
        <ele>1312.6244</ele>
        <time>2014-02-27T11:51:29Z</time>
      </trkpt>
      <trkpt lat="47.9082" lon="7.10465">
        <ele>1313.4348</ele>
        <time>2014-02-27T11:51:34Z</time>
      </trkpt>
      <trkpt lat="47.90816" lon="7.10464">
        <ele>1313.4348</ele>
        <time>2014-02-27T11:51:39Z</time>
      </trkpt>
      <trkpt lat="47.90812" lon="7.10463">
        <ele>1313.4348</ele>
        <time>2014-02-27T11:51:44Z</time>
      </trkpt>
      <trkpt lat="47.90807" lon="7.10461">
        <ele>1314.2491</ele>
        <time>2014-02-27T11:51:49Z</time>
      </trkpt>
      <trkpt lat="47.90802" lon="7.10457">
        <ele>1314.2491</ele>
        <time>2014-02-27T11:51:54Z</time>
      </trkpt>
      <trkpt lat="47.90798" lon="7.10453">
        <ele>1315.1272</ele>
        <time>2014-02-27T11:51:59Z</time>
      </trkpt>
      <trkpt lat="47.90794" lon="7.10454">
        <ele>1315.1272</ele>
        <time>2014-02-27T11:52:04Z</time>
      </trkpt>
      <trkpt lat="47.90789" lon="7.10454">
        <ele>1315.7062</ele>
        <time>2014-02-27T11:52:09Z</time>
      </trkpt>
      <trkpt lat="47.90785" lon="7.10452">
        <ele>1315.7062</ele>
        <time>2014-02-27T11:52:14Z</time>
      </trkpt>
      <trkpt lat="47.90782" lon="7.10453">
        <ele>1315.7062</ele>
        <time>2014-02-27T11:52:19Z</time>
      </trkpt>
      <trkpt lat="47.90776" lon="7.10451">
        <ele>1316.4146</ele>
        <time>2014-02-27T11:52:24Z</time>
      </trkpt>
      <trkpt lat="47.90771" lon="7.1045">
        <ele>1316.4146</ele>
        <time>2014-02-27T11:52:29Z</time>
      </trkpt>
      <trkpt lat="47.90767" lon="7.10448">
        <ele>1317.2456</ele>
        <time>2014-02-27T11:52:34Z</time>
      </trkpt>
      <trkpt lat="47.90764" lon="7.10448">
        <ele>1317.2456</ele>
        <time>2014-02-27T11:52:39Z</time>
      </trkpt>
      <trkpt lat="47.90761" lon="7.10446">
        <ele>1317.2456</ele>
        <time>2014-02-27T11:52:44Z</time>
      </trkpt>
      <trkpt lat="47.90758" lon="7.10444">
        <ele>1318.0485</ele>
        <time>2014-02-27T11:52:49Z</time>
      </trkpt>
      <trkpt lat="47.90755" lon="7.1044">
        <ele>1318.0485</ele>
        <time>2014-02-27T11:52:54Z</time>
      </trkpt>
      <trkpt lat="47.90752" lon="7.10437">
        <ele>1318.0485</ele>
        <time>2014-02-27T11:52:59Z</time>
      </trkpt>
      <trkpt lat="47.9075" lon="7.10434">
        <ele>1319.4618</ele>
        <time>2014-02-27T11:53:04Z</time>
      </trkpt>
      <trkpt lat="47.90748" lon="7.10432">
        <ele>1319.4618</ele>
        <time>2014-02-27T11:53:09Z</time>
      </trkpt>
      <trkpt lat="47.90748" lon="7.10432">
        <ele>1319.4618</ele>
        <time>2014-02-27T11:53:14Z</time>
      </trkpt>
      <trkpt lat="47.90746" lon="7.10429">
        <ele>1319.4618</ele>
        <time>2014-02-27T11:53:19Z</time>
      </trkpt>
      <trkpt lat="47.90743" lon="7.10426">
        <ele>1319.4618</ele>
        <time>2014-02-27T11:53:24Z</time>
      </trkpt>
      <trkpt lat="47.90738" lon="7.10424">
        <ele>1320.8936</ele>
        <time>2014-02-27T11:53:29Z</time>
      </trkpt>
      <trkpt lat="47.90735" lon="7.10423">
        <ele>1320.8936</ele>
        <time>2014-02-27T11:53:34Z</time>
      </trkpt>
      <trkpt lat="47.90732" lon="7.1042">
        <ele>1320.8936</ele>
        <time>2014-02-27T11:53:39Z</time>
      </trkpt>
      <trkpt lat="47.90729" lon="7.10417">
        <ele>1322.3145</ele>
        <time>2014-02-27T11:53:44Z</time>
      </trkpt>
      <trkpt lat="47.90725" lon="7.10417">
        <ele>1322.3145</ele>
        <time>2014-02-27T11:53:49Z</time>
      </trkpt>
      <trkpt lat="47.90721" lon="7.10415">
        <ele>1322.3145</ele>
        <time>2014-02-27T11:53:54Z</time>
      </trkpt>
      <trkpt lat="47.90719" lon="7.10413">
        <ele>1323.495</ele>
        <time>2014-02-27T11:53:59Z</time>
      </trkpt>
      <trkpt lat="47.90715" lon="7.10412">
        <ele>1323.495</ele>
        <time>2014-02-27T11:54:04Z</time>
      </trkpt>
      <trkpt lat="47.90711" lon="7.1041">
        <ele>1323.495</ele>
        <time>2014-02-27T11:54:09Z</time>
      </trkpt>
      <trkpt lat="47.90708" lon="7.10408">
        <ele>1324.3967</ele>
        <time>2014-02-27T11:54:14Z</time>
      </trkpt>
      <trkpt lat="47.90703" lon="7.10407">
        <ele>1324.3967</ele>
        <time>2014-02-27T11:54:19Z</time>
      </trkpt>
      <trkpt lat="47.907" lon="7.10408">
        <ele>1324.3967</ele>
        <time>2014-02-27T11:54:24Z</time>
      </trkpt>
      <trkpt lat="47.90695" lon="7.10407">
        <ele>1325.258</ele>
        <time>2014-02-27T11:54:29Z</time>
      </trkpt>
      <trkpt lat="47.90691" lon="7.10404">
        <ele>1325.258</ele>
        <time>2014-02-27T11:54:34Z</time>
      </trkpt>
      <trkpt lat="47.90692" lon="7.10405">
        <ele>1325.258</ele>
        <time>2014-02-27T11:54:39Z</time>
      </trkpt>
      <trkpt lat="47.9069" lon="7.10405">
        <ele>1325.258</ele>
        <time>2014-02-27T11:54:44Z</time>
      </trkpt>
      <trkpt lat="47.90685" lon="7.10407">
        <ele>1325.8102</ele>
        <time>2014-02-27T11:54:49Z</time>
      </trkpt>
      <trkpt lat="47.90684" lon="7.10403">
        <ele>1325.8102</ele>
        <time>2014-02-27T11:54:54Z</time>
      </trkpt>
      <trkpt lat="47.90683" lon="7.10394">
        <ele>1326.2375</ele>
        <time>2014-02-27T11:54:59Z</time>
      </trkpt>
      <trkpt lat="47.90683" lon="7.10387">
        <ele>1326.2375</ele>
        <time>2014-02-27T11:55:04Z</time>
      </trkpt>
      <trkpt lat="47.90682" lon="7.10383">
        <ele>1326.2375</ele>
        <time>2014-02-27T11:55:09Z</time>
      </trkpt>
      <trkpt lat="47.90682" lon="7.10383">
        <ele>1326.2375</ele>
        <time>2014-02-27T11:55:14Z</time>
      </trkpt>
      <trkpt lat="47.90682" lon="7.10383">
        <ele>1326.2375</ele>
        <time>2014-02-27T11:55:19Z</time>
      </trkpt>
      <trkpt lat="47.90681" lon="7.10383">
        <ele>1326.2375</ele>
        <time>2014-02-27T11:55:24Z</time>
      </trkpt>
      <trkpt lat="47.90681" lon="7.10383">
        <ele>1326.2375</ele>
        <time>2014-02-27T11:55:29Z</time>
      </trkpt>
      <trkpt lat="47.90676" lon="7.10391">
        <ele>1326.3649</ele>
        <time>2014-02-27T11:55:34Z</time>
      </trkpt>
      <trkpt lat="47.90679" lon="7.10397">
        <ele>1326.3649</ele>
        <time>2014-02-27T11:55:39Z</time>
      </trkpt>
      <trkpt lat="47.90679" lon="7.10403">
        <ele>1326.2471</ele>
        <time>2014-02-27T11:55:44Z</time>
      </trkpt>
      <trkpt lat="47.90678" lon="7.10414">
        <ele>1326.2471</ele>
        <time>2014-02-27T11:55:49Z</time>
      </trkpt>
      <trkpt lat="47.90674" lon="7.10419">
        <ele>1325.9502</ele>
        <time>2014-02-27T11:55:54Z</time>
      </trkpt>
      <trkpt lat="47.90671" lon="7.10423">
        <ele>1325.9502</ele>
        <time>2014-02-27T11:55:59Z</time>
      </trkpt>
      <trkpt lat="47.90669" lon="7.10425">
        <ele>1325.9502</ele>
        <time>2014-02-27T11:56:04Z</time>
      </trkpt>
      <trkpt lat="47.90664" lon="7.10427">
        <ele>1326.0543</ele>
        <time>2014-02-27T11:56:09Z</time>
      </trkpt>
      <trkpt lat="47.90661" lon="7.10429">
        <ele>1326.0543</ele>
        <time>2014-02-27T11:56:14Z</time>
      </trkpt>
      <trkpt lat="47.90657" lon="7.10429">
        <ele>1326.0543</ele>
        <time>2014-02-27T11:56:19Z</time>
      </trkpt>
      <trkpt lat="47.90653" lon="7.10425">
        <ele>1326.0151</ele>
        <time>2014-02-27T11:56:24Z</time>
      </trkpt>
      <trkpt lat="47.90647" lon="7.10418">
        <ele>1326.0151</ele>
        <time>2014-02-27T11:56:29Z</time>
      </trkpt>
      <trkpt lat="47.90642" lon="7.10416">
        <ele>1326.0924</ele>
        <time>2014-02-27T11:56:34Z</time>
      </trkpt>
      <trkpt lat="47.90637" lon="7.10411">
        <ele>1326.0924</ele>
        <time>2014-02-27T11:56:39Z</time>
      </trkpt>
      <trkpt lat="47.90633" lon="7.10412">
        <ele>1326.0939</ele>
        <time>2014-02-27T11:56:44Z</time>
      </trkpt>
      <trkpt lat="47.90628" lon="7.1041">
        <ele>1326.0939</ele>
        <time>2014-02-27T11:56:49Z</time>
      </trkpt>
      <trkpt lat="47.90623" lon="7.10407">
        <ele>1326.5046</ele>
        <time>2014-02-27T11:56:54Z</time>
      </trkpt>
      <trkpt lat="47.9062" lon="7.10405">
        <ele>1326.5046</ele>
        <time>2014-02-27T11:56:59Z</time>
      </trkpt>
      <trkpt lat="47.90616" lon="7.10404">
        <ele>1326.5046</ele>
        <time>2014-02-27T11:57:04Z</time>
      </trkpt>
      <trkpt lat="47.90609" lon="7.10399">
        <ele>1327.0524</ele>
        <time>2014-02-27T11:57:09Z</time>
      </trkpt>
      <trkpt lat="47.90605" lon="7.10394">
        <ele>1327.0524</ele>
        <time>2014-02-27T11:57:14Z</time>
      </trkpt>
      <trkpt lat="47.90599" lon="7.10388">
        <ele>1327.5272</ele>
        <time>2014-02-27T11:57:19Z</time>
      </trkpt>
      <trkpt lat="47.90595" lon="7.10385">
        <ele>1327.5272</ele>
        <time>2014-02-27T11:57:24Z</time>
      </trkpt>
      <trkpt lat="47.90591" lon="7.10385">
        <ele>1327.5272</ele>
        <time>2014-02-27T11:57:29Z</time>
      </trkpt>
      <trkpt lat="47.90584" lon="7.10381">
        <ele>1328.2253</ele>
        <time>2014-02-27T11:57:34Z</time>
      </trkpt>
      <trkpt lat="47.90583" lon="7.10376">
        <ele>1328.2253</ele>
        <time>2014-02-27T11:57:39Z</time>
      </trkpt>
      <trkpt lat="47.90579" lon="7.10376">
        <ele>1328.2253</ele>
        <time>2014-02-27T11:57:44Z</time>
      </trkpt>
      <trkpt lat="47.90574" lon="7.10372">
        <ele>1328.9587</ele>
        <time>2014-02-27T11:57:49Z</time>
      </trkpt>
      <trkpt lat="47.90571" lon="7.1037">
        <ele>1328.9587</ele>
        <time>2014-02-27T11:57:54Z</time>
      </trkpt>
      <trkpt lat="47.90568" lon="7.10366">
        <ele>1328.9587</ele>
        <time>2014-02-27T11:57:59Z</time>
      </trkpt>
      <trkpt lat="47.90564" lon="7.1036">
        <ele>1329.9712</ele>
        <time>2014-02-27T11:58:04Z</time>
      </trkpt>
      <trkpt lat="47.9056" lon="7.10359">
        <ele>1329.9712</ele>
        <time>2014-02-27T11:58:09Z</time>
      </trkpt>
      <trkpt lat="47.90558" lon="7.10357">
        <ele>1329.9712</ele>
        <time>2014-02-27T11:58:14Z</time>
      </trkpt>
      <trkpt lat="47.90557" lon="7.10359">
        <ele>1329.9712</ele>
        <time>2014-02-27T11:58:19Z</time>
      </trkpt>
      <trkpt lat="47.90556" lon="7.10353">
        <ele>1330.8682</ele>
        <time>2014-02-27T11:58:24Z</time>
      </trkpt>
      <trkpt lat="47.90556" lon="7.10352">
        <ele>1330.8682</ele>
        <time>2014-02-27T11:58:29Z</time>
      </trkpt>
      <trkpt lat="47.90556" lon="7.10352">
        <ele>1330.8682</ele>
        <time>2014-02-27T11:58:34Z</time>
      </trkpt>
      <trkpt lat="47.90555" lon="7.10352">
        <ele>1330.8682</ele>
        <time>2014-02-27T11:58:39Z</time>
      </trkpt>
      <trkpt lat="47.90552" lon="7.10349">
        <ele>1330.8682</ele>
        <time>2014-02-27T11:58:44Z</time>
      </trkpt>
      <trkpt lat="47.90548" lon="7.10343">
        <ele>1331.9469</ele>
        <time>2014-02-27T11:58:49Z</time>
      </trkpt>
      <trkpt lat="47.90545" lon="7.10337">
        <ele>1331.9469</ele>
        <time>2014-02-27T11:58:54Z</time>
      </trkpt>
      <trkpt lat="47.90541" lon="7.10333">
        <ele>1333.0214</ele>
        <time>2014-02-27T11:58:59Z</time>
      </trkpt>
      <trkpt lat="47.90539" lon="7.1033">
        <ele>1333.0214</ele>
        <time>2014-02-27T11:59:04Z</time>
      </trkpt>
      <trkpt lat="47.90534" lon="7.10323">
        <ele>1334.1063</ele>
        <time>2014-02-27T11:59:09Z</time>
      </trkpt>
      <trkpt lat="47.9053" lon="7.10318">
        <ele>1334.1063</ele>
        <time>2014-02-27T11:59:14Z</time>
      </trkpt>
      <trkpt lat="47.90525" lon="7.10311">
        <ele>1335.1433</ele>
        <time>2014-02-27T11:59:19Z</time>
      </trkpt>
      <trkpt lat="47.90521" lon="7.10309">
        <ele>1335.1433</ele>
        <time>2014-02-27T11:59:24Z</time>
      </trkpt>
      <trkpt lat="47.90517" lon="7.10308">
        <ele>1335.1433</ele>
        <time>2014-02-27T11:59:29Z</time>
      </trkpt>
      <trkpt lat="47.90512" lon="7.10304">
        <ele>1336.5251</ele>
        <time>2014-02-27T11:59:34Z</time>
      </trkpt>
      <trkpt lat="47.90508" lon="7.10305">
        <ele>1336.5251</ele>
        <time>2014-02-27T11:59:39Z</time>
      </trkpt>
      <trkpt lat="47.90504" lon="7.10306">
        <ele>1336.5251</ele>
        <time>2014-02-27T11:59:44Z</time>
      </trkpt>
      <trkpt lat="47.90499" lon="7.10307">
        <ele>1338.0236</ele>
        <time>2014-02-27T11:59:49Z</time>
      </trkpt>
      <trkpt lat="47.90495" lon="7.10308">
        <ele>1338.0236</ele>
        <time>2014-02-27T11:59:54Z</time>
      </trkpt>
      <trkpt lat="47.9049" lon="7.10307">
        <ele>1339.1532</ele>
        <time>2014-02-27T11:59:59Z</time>
      </trkpt>
      <trkpt lat="47.90488" lon="7.10307">
        <ele>1339.1532</ele>
        <time>2014-02-27T12:00:04Z</time>
      </trkpt>
      <trkpt lat="47.90483" lon="7.10315">
        <ele>1340.1138</ele>
        <time>2014-02-27T12:00:09Z</time>
      </trkpt>
      <trkpt lat="47.90479" lon="7.10319">
        <ele>1340.1138</ele>
        <time>2014-02-27T12:00:14Z</time>
      </trkpt>
      <trkpt lat="47.90478" lon="7.10328">
        <ele>1340.9896</ele>
        <time>2014-02-27T12:00:19Z</time>
      </trkpt>
      <trkpt lat="47.90476" lon="7.1033">
        <ele>1340.9896</ele>
        <time>2014-02-27T12:00:24Z</time>
      </trkpt>
      <trkpt lat="47.90475" lon="7.10331">
        <ele>1340.9896</ele>
        <time>2014-02-27T12:00:29Z</time>
      </trkpt>
      <trkpt lat="47.90475" lon="7.10331">
        <ele>1340.9896</ele>
        <time>2014-02-27T12:00:34Z</time>
      </trkpt>
      <trkpt lat="47.90474" lon="7.10339">
        <ele>1342.3926</ele>
        <time>2014-02-27T12:00:39Z</time>
      </trkpt>
      <trkpt lat="47.90476" lon="7.10351">
        <ele>1342.3926</ele>
        <time>2014-02-27T12:00:44Z</time>
      </trkpt>
      <trkpt lat="47.90479" lon="7.1036">
        <ele>1343.8217</ele>
        <time>2014-02-27T12:00:49Z</time>
      </trkpt>
      <trkpt lat="47.90476" lon="7.1037">
        <ele>1343.8217</ele>
        <time>2014-02-27T12:00:54Z</time>
      </trkpt>
      <trkpt lat="47.90475" lon="7.10381">
        <ele>1344.8987</ele>
        <time>2014-02-27T12:00:59Z</time>
      </trkpt>
      <trkpt lat="47.90472" lon="7.10386">
        <ele>1344.8987</ele>
        <time>2014-02-27T12:01:04Z</time>
      </trkpt>
      <trkpt lat="47.90473" lon="7.10391">
        <ele>1344.8987</ele>
        <time>2014-02-27T12:01:09Z</time>
      </trkpt>
      <trkpt lat="47.90469" lon="7.10402">
        <ele>1345.3323</ele>
        <time>2014-02-27T12:01:14Z</time>
      </trkpt>
      <trkpt lat="47.90467" lon="7.10409">
        <ele>1345.3323</ele>
        <time>2014-02-27T12:01:19Z</time>
      </trkpt>
      <trkpt lat="47.90465" lon="7.10414">
        <ele>1345.6466</ele>
        <time>2014-02-27T12:01:24Z</time>
      </trkpt>
      <trkpt lat="47.90461" lon="7.10417">
        <ele>1345.6466</ele>
        <time>2014-02-27T12:01:29Z</time>
      </trkpt>
      <trkpt lat="47.90457" lon="7.10421">
        <ele>1345.6466</ele>
        <time>2014-02-27T12:01:34Z</time>
      </trkpt>
      <trkpt lat="47.90451" lon="7.1042">
        <ele>1345.463</ele>
        <time>2014-02-27T12:01:39Z</time>
      </trkpt>
      <trkpt lat="47.90445" lon="7.10421">
        <ele>1345.463</ele>
        <time>2014-02-27T12:01:44Z</time>
      </trkpt>
      <trkpt lat="47.90441" lon="7.10424">
        <ele>1345.1382</ele>
        <time>2014-02-27T12:01:49Z</time>
      </trkpt>
      <trkpt lat="47.90439" lon="7.10427">
        <ele>1345.1382</ele>
        <time>2014-02-27T12:01:54Z</time>
      </trkpt>
      <trkpt lat="47.90439" lon="7.10429">
        <ele>1345.1382</ele>
        <time>2014-02-27T12:01:59Z</time>
      </trkpt>
      <trkpt lat="47.90437" lon="7.10427">
        <ele>1345.1382</ele>
        <time>2014-02-27T12:02:04Z</time>
      </trkpt>
      <trkpt lat="47.90435" lon="7.10431">
        <ele>1344.7725</ele>
        <time>2014-02-27T12:02:09Z</time>
      </trkpt>
      <trkpt lat="47.90434" lon="7.10438">
        <ele>1344.7725</ele>
        <time>2014-02-27T12:02:14Z</time>
      </trkpt>
      <trkpt lat="47.90432" lon="7.10445">
        <ele>1344.0265</ele>
        <time>2014-02-27T12:02:19Z</time>
      </trkpt>
      <trkpt lat="47.90432" lon="7.10452">
        <ele>1344.0265</ele>
        <time>2014-02-27T12:02:24Z</time>
      </trkpt>
      <trkpt lat="47.90432" lon="7.10459">
        <ele>1343.0192</ele>
        <time>2014-02-27T12:02:29Z</time>
      </trkpt>
      <trkpt lat="47.9043" lon="7.10468">
        <ele>1343.0192</ele>
        <time>2014-02-27T12:02:34Z</time>
      </trkpt>
      <trkpt lat="47.90429" lon="7.10474">
        <ele>1341.919</ele>
        <time>2014-02-27T12:02:39Z</time>
      </trkpt>
      <trkpt lat="47.90429" lon="7.1048">
        <ele>1341.919</ele>
        <time>2014-02-27T12:02:44Z</time>
      </trkpt>
      <trkpt lat="47.90429" lon="7.10483">
        <ele>1341.919</ele>
        <time>2014-02-27T12:02:49Z</time>
      </trkpt>
      <trkpt lat="47.90428" lon="7.10481">
        <ele>1341.919</ele>
        <time>2014-02-27T12:02:54Z</time>
      </trkpt>
      <trkpt lat="47.90428" lon="7.10481">
        <ele>1341.919</ele>
        <time>2014-02-27T12:02:59Z</time>
      </trkpt>
      <trkpt lat="47.90429" lon="7.10481">
        <ele>1341.919</ele>
        <time>2014-02-27T12:03:04Z</time>
      </trkpt>
      <trkpt lat="47.90428" lon="7.10481">
        <ele>1341.919</ele>
        <time>2014-02-27T12:03:09Z</time>
      </trkpt>
      <trkpt lat="47.90428" lon="7.1048">
        <ele>1341.919</ele>
        <time>2014-02-27T12:03:14Z</time>
      </trkpt>
      <trkpt lat="47.90428" lon="7.1048">
        <ele>1341.919</ele>
        <time>2014-02-27T12:03:19Z</time>
      </trkpt>
      <trkpt lat="47.90428" lon="7.10479">
        <ele>1340.6084</ele>
        <time>2014-02-27T12:03:24Z</time>
      </trkpt>
      <trkpt lat="47.90427" lon="7.10478">
        <ele>1340.6084</ele>
        <time>2014-02-27T12:03:29Z</time>
      </trkpt>
      <trkpt lat="47.90427" lon="7.10478">
        <ele>1340.6084</ele>
        <time>2014-02-27T12:03:34Z</time>
      </trkpt>
      <trkpt lat="47.90427" lon="7.10487">
        <ele>1340.6084</ele>
        <time>2014-02-27T12:03:39Z</time>
      </trkpt>
      <trkpt lat="47.9043" lon="7.10494">
        <ele>1339.3251</ele>
        <time>2014-02-27T12:03:44Z</time>
      </trkpt>
      <trkpt lat="47.90432" lon="7.10496">
        <ele>1339.3251</ele>
        <time>2014-02-27T12:03:49Z</time>
      </trkpt>
      <trkpt lat="47.90432" lon="7.10497">
        <ele>1339.3251</ele>
        <time>2014-02-27T12:03:54Z</time>
      </trkpt>
      <trkpt lat="47.9043" lon="7.10499">
        <ele>1339.3251</ele>
        <time>2014-02-27T12:03:59Z</time>
      </trkpt>
      <trkpt lat="47.90431" lon="7.105">
        <ele>1339.3251</ele>
        <time>2014-02-27T12:04:04Z</time>
      </trkpt>
      <trkpt lat="47.9043" lon="7.10501">
        <ele>1339.3251</ele>
        <time>2014-02-27T12:04:09Z</time>
      </trkpt>
      <trkpt lat="47.9043" lon="7.10507">
        <ele>1338.1736</ele>
        <time>2014-02-27T12:04:14Z</time>
      </trkpt>
      <trkpt lat="47.90431" lon="7.10513">
        <ele>1338.1736</ele>
        <time>2014-02-27T12:04:19Z</time>
      </trkpt>
      <trkpt lat="47.90431" lon="7.10521">
        <ele>1336.8036</ele>
        <time>2014-02-27T12:04:24Z</time>
      </trkpt>
      <trkpt lat="47.90432" lon="7.1053">
        <ele>1336.8036</ele>
        <time>2014-02-27T12:04:29Z</time>
      </trkpt>
      <trkpt lat="47.90435" lon="7.10541">
        <ele>1335.4675</ele>
        <time>2014-02-27T12:04:34Z</time>
      </trkpt>
      <trkpt lat="47.90438" lon="7.10547">
        <ele>1335.4675</ele>
        <time>2014-02-27T12:04:39Z</time>
      </trkpt>
      <trkpt lat="47.90442" lon="7.10554">
        <ele>1334.0387</ele>
        <time>2014-02-27T12:04:44Z</time>
      </trkpt>
      <trkpt lat="47.90444" lon="7.10563">
        <ele>1334.0387</ele>
        <time>2014-02-27T12:04:49Z</time>
      </trkpt>
      <trkpt lat="47.90451" lon="7.10573">
        <ele>1332.6017</ele>
        <time>2014-02-27T12:04:54Z</time>
      </trkpt>
      <trkpt lat="47.90457" lon="7.10582">
        <ele>1332.6017</ele>
        <time>2014-02-27T12:04:59Z</time>
      </trkpt>
      <trkpt lat="47.90462" lon="7.10588">
        <ele>1331.0475</ele>
        <time>2014-02-27T12:05:04Z</time>
      </trkpt>
      <trkpt lat="47.90465" lon="7.10603">
        <ele>1329.347</ele>
        <time>2014-02-27T12:05:09Z</time>
      </trkpt>
      <trkpt lat="47.90471" lon="7.10616">
        <ele>1327.4883</ele>
        <time>2014-02-27T12:05:14Z</time>
      </trkpt>
      <trkpt lat="47.90475" lon="7.10625">
        <ele>1327.4883</ele>
        <time>2014-02-27T12:05:19Z</time>
      </trkpt>
      <trkpt lat="47.90482" lon="7.10637">
        <ele>1325.7776</ele>
        <time>2014-02-27T12:05:24Z</time>
      </trkpt>
      <trkpt lat="47.90487" lon="7.10646">
        <ele>1325.7776</ele>
        <time>2014-02-27T12:05:29Z</time>
      </trkpt>
      <trkpt lat="47.90494" lon="7.10655">
        <ele>1324.1952</ele>
        <time>2014-02-27T12:05:34Z</time>
      </trkpt>
      <trkpt lat="47.90491" lon="7.10657">
        <ele>1324.1952</ele>
        <time>2014-02-27T12:05:39Z</time>
      </trkpt>
      <trkpt lat="47.9049" lon="7.10658">
        <ele>1324.1952</ele>
        <time>2014-02-27T12:05:44Z</time>
      </trkpt>
      <trkpt lat="47.9049" lon="7.10658">
        <ele>1324.1952</ele>
        <time>2014-02-27T12:05:49Z</time>
      </trkpt>
      <trkpt lat="47.90489" lon="7.10658">
        <ele>1324.1952</ele>
        <time>2014-02-27T12:05:54Z</time>
      </trkpt>
      <trkpt lat="47.90487" lon="7.10658">
        <ele>1324.1952</ele>
        <time>2014-02-27T12:05:59Z</time>
      </trkpt>
      <trkpt lat="47.90475" lon="7.10664">
        <ele>1322.9388</ele>
        <time>2014-02-27T12:06:04Z</time>
      </trkpt>
      <trkpt lat="47.90467" lon="7.10668">
        <ele>1322.9388</ele>
        <time>2014-02-27T12:06:09Z</time>
      </trkpt>
      <trkpt lat="47.90458" lon="7.1067">
        <ele>1321.8156</ele>
        <time>2014-02-27T12:06:14Z</time>
      </trkpt>
      <trkpt lat="47.9045" lon="7.10666">
        <ele>1321.8156</ele>
        <time>2014-02-27T12:06:19Z</time>
      </trkpt>
      <trkpt lat="47.90442" lon="7.10662">
        <ele>1320.5022</ele>
        <time>2014-02-27T12:06:24Z</time>
      </trkpt>
      <trkpt lat="47.90436" lon="7.10655">
        <ele>1320.5022</ele>
        <time>2014-02-27T12:06:29Z</time>
      </trkpt>
      <trkpt lat="47.9043" lon="7.10658">
        <ele>1319.0167</ele>
        <time>2014-02-27T12:06:34Z</time>
      </trkpt>
      <trkpt lat="47.90424" lon="7.10656">
        <ele>1319.0167</ele>
        <time>2014-02-27T12:06:39Z</time>
      </trkpt>
      <trkpt lat="47.90418" lon="7.10648">
        <ele>1317.1022</ele>
        <time>2014-02-27T12:06:44Z</time>
      </trkpt>
      <trkpt lat="47.90412" lon="7.10646">
        <ele>1317.1022</ele>
        <time>2014-02-27T12:06:49Z</time>
      </trkpt>
      <trkpt lat="47.90405" lon="7.10647">
        <ele>1315.1555</ele>
        <time>2014-02-27T12:06:54Z</time>
      </trkpt>
      <trkpt lat="47.90396" lon="7.10645">
        <ele>1313.2854</ele>
        <time>2014-02-27T12:06:59Z</time>
      </trkpt>
      <trkpt lat="47.90385" lon="7.10642">
        <ele>1311.7072</ele>
        <time>2014-02-27T12:07:04Z</time>
      </trkpt>
      <trkpt lat="47.9038" lon="7.1064">
        <ele>1311.7072</ele>
        <time>2014-02-27T12:07:09Z</time>
      </trkpt>
      <trkpt lat="47.9037" lon="7.10644">
        <ele>1310.3888</ele>
        <time>2014-02-27T12:07:14Z</time>
      </trkpt>
      <trkpt lat="47.90358" lon="7.10647">
        <ele>1308.9681</ele>
        <time>2014-02-27T12:07:19Z</time>
      </trkpt>
      <trkpt lat="47.90349" lon="7.10646">
        <ele>1307.5856</ele>
        <time>2014-02-27T12:07:24Z</time>
      </trkpt>
      <trkpt lat="47.90336" lon="7.10649">
        <ele>1306.4861</ele>
        <time>2014-02-27T12:07:29Z</time>
      </trkpt>
      <trkpt lat="47.90327" lon="7.10655">
        <ele>1305.4634</ele>
        <time>2014-02-27T12:07:34Z</time>
      </trkpt>
      <trkpt lat="47.90318" lon="7.10658">
        <ele>1305.4634</ele>
        <time>2014-02-27T12:07:39Z</time>
      </trkpt>
      <trkpt lat="47.90309" lon="7.10662">
        <ele>1303.4901</ele>
        <time>2014-02-27T12:07:44Z</time>
      </trkpt>
      <trkpt lat="47.90303" lon="7.10662">
        <ele>1303.4901</ele>
        <time>2014-02-27T12:07:49Z</time>
      </trkpt>
      <trkpt lat="47.90298" lon="7.10672">
        <ele>1300.6831</ele>
        <time>2014-02-27T12:07:54Z</time>
      </trkpt>
      <trkpt lat="47.90295" lon="7.10673">
        <ele>1300.6831</ele>
        <time>2014-02-27T12:07:59Z</time>
      </trkpt>
      <trkpt lat="47.90288" lon="7.10672">
        <ele>1297.528</ele>
        <time>2014-02-27T12:08:04Z</time>
      </trkpt>
      <trkpt lat="47.90278" lon="7.10669">
        <ele>1294.1868</ele>
        <time>2014-02-27T12:08:09Z</time>
      </trkpt>
      <trkpt lat="47.90271" lon="7.10669">
        <ele>1294.1868</ele>
        <time>2014-02-27T12:08:14Z</time>
      </trkpt>
      <trkpt lat="47.90263" lon="7.10667">
        <ele>1289.8015</ele>
        <time>2014-02-27T12:08:19Z</time>
      </trkpt>
      <trkpt lat="47.90255" lon="7.1067">
        <ele>1289.8015</ele>
        <time>2014-02-27T12:08:24Z</time>
      </trkpt>
      <trkpt lat="47.90248" lon="7.10672">
        <ele>1285.3956</ele>
        <time>2014-02-27T12:08:29Z</time>
      </trkpt>
      <trkpt lat="47.90244" lon="7.10683">
        <ele>1285.3956</ele>
        <time>2014-02-27T12:08:34Z</time>
      </trkpt>
      <trkpt lat="47.90244" lon="7.10685">
        <ele>1280.9375</ele>
        <time>2014-02-27T12:08:39Z</time>
      </trkpt>
      <trkpt lat="47.90245" lon="7.10684">
        <ele>1280.9375</ele>
        <time>2014-02-27T12:08:44Z</time>
      </trkpt>
      <trkpt lat="47.90244" lon="7.10683">
        <ele>1280.9375</ele>
        <time>2014-02-27T12:08:49Z</time>
      </trkpt>
      <trkpt lat="47.90243" lon="7.10683">
        <ele>1280.9375</ele>
        <time>2014-02-27T12:08:54Z</time>
      </trkpt>
      <trkpt lat="47.90237" lon="7.10682">
        <ele>1276.1093</ele>
        <time>2014-02-27T12:08:59Z</time>
      </trkpt>
      <trkpt lat="47.90234" lon="7.1068">
        <ele>1276.1093</ele>
        <time>2014-02-27T12:09:04Z</time>
      </trkpt>
      <trkpt lat="47.90233" lon="7.1068">
        <ele>1276.1093</ele>
        <time>2014-02-27T12:09:09Z</time>
      </trkpt>
      <trkpt lat="47.90233" lon="7.10682">
        <ele>1276.1093</ele>
        <time>2014-02-27T12:09:14Z</time>
      </trkpt>
      <trkpt lat="47.90235" lon="7.10685">
        <ele>1276.1093</ele>
        <time>2014-02-27T12:09:19Z</time>
      </trkpt>
      <trkpt lat="47.90235" lon="7.10685">
        <ele>1276.1093</ele>
        <time>2014-02-27T12:09:24Z</time>
      </trkpt>
      <trkpt lat="47.90235" lon="7.10685">
        <ele>1276.1093</ele>
        <time>2014-02-27T12:09:29Z</time>
      </trkpt>
      <trkpt lat="47.90234" lon="7.10685">
        <ele>1276.1093</ele>
        <time>2014-02-27T12:09:34Z</time>
      </trkpt>
      <trkpt lat="47.90234" lon="7.10685">
        <ele>1276.1093</ele>
        <time>2014-02-27T12:09:39Z</time>
      </trkpt>
      <trkpt lat="47.90234" lon="7.10685">
        <ele>1276.1093</ele>
        <time>2014-02-27T12:09:44Z</time>
      </trkpt>
      <trkpt lat="47.90234" lon="7.10685">
        <ele>1276.1093</ele>
        <time>2014-02-27T12:09:49Z</time>
      </trkpt>
      <trkpt lat="47.90234" lon="7.10685">
        <ele>1276.1093</ele>
        <time>2014-02-27T12:09:54Z</time>
      </trkpt>
      <trkpt lat="47.90234" lon="7.10685">
        <ele>1276.1093</ele>
        <time>2014-02-27T12:09:59Z</time>
      </trkpt>
      <trkpt lat="47.9023" lon="7.10695">
        <ele>1271.165</ele>
        <time>2014-02-27T12:10:04Z</time>
      </trkpt>
      <trkpt lat="47.90222" lon="7.107">
        <ele>1266.715</ele>
        <time>2014-02-27T12:10:09Z</time>
      </trkpt>
      <trkpt lat="47.90217" lon="7.10703">
        <ele>1266.715</ele>
        <time>2014-02-27T12:10:14Z</time>
      </trkpt>
      <trkpt lat="47.90216" lon="7.10706">
        <ele>1266.715</ele>
        <time>2014-02-27T12:10:19Z</time>
      </trkpt>
      <trkpt lat="47.90213" lon="7.10705">
        <ele>1262.7607</ele>
        <time>2014-02-27T12:10:24Z</time>
      </trkpt>
      <trkpt lat="47.9021" lon="7.10707">
        <ele>1262.7607</ele>
        <time>2014-02-27T12:10:29Z</time>
      </trkpt>
      <trkpt lat="47.90211" lon="7.10701">
        <ele>1262.7607</ele>
        <time>2014-02-27T12:10:34Z</time>
      </trkpt>
      <trkpt lat="47.90212" lon="7.107">
        <ele>1262.7607</ele>
        <time>2014-02-27T12:10:39Z</time>
      </trkpt>
      <trkpt lat="47.90211" lon="7.10698">
        <ele>1258.6827</ele>
        <time>2014-02-27T12:10:44Z</time>
      </trkpt>
      <trkpt lat="47.9021" lon="7.10699">
        <ele>1258.6827</ele>
        <time>2014-02-27T12:10:49Z</time>
      </trkpt>
      <trkpt lat="47.9021" lon="7.10698">
        <ele>1258.6827</ele>
        <time>2014-02-27T12:10:54Z</time>
      </trkpt>
      <trkpt lat="47.90208" lon="7.10695">
        <ele>1258.6827</ele>
        <time>2014-02-27T12:10:59Z</time>
      </trkpt>
      <trkpt lat="47.90209" lon="7.10689">
        <ele>1258.6827</ele>
        <time>2014-02-27T12:11:04Z</time>
      </trkpt>
      <trkpt lat="47.90204" lon="7.10687">
        <ele>1254.8289</ele>
        <time>2014-02-27T12:11:09Z</time>
      </trkpt>
      <trkpt lat="47.902" lon="7.10679">
        <ele>1254.8289</ele>
        <time>2014-02-27T12:11:14Z</time>
      </trkpt>
      <trkpt lat="47.90197" lon="7.10678">
        <ele>1251.3625</ele>
        <time>2014-02-27T12:11:19Z</time>
      </trkpt>
      <trkpt lat="47.90192" lon="7.10678">
        <ele>1251.3625</ele>
        <time>2014-02-27T12:11:24Z</time>
      </trkpt>
      <trkpt lat="47.9019" lon="7.10679">
        <ele>1251.3625</ele>
        <time>2014-02-27T12:11:29Z</time>
      </trkpt>
      <trkpt lat="47.90186" lon="7.10677">
        <ele>1248.0011</ele>
        <time>2014-02-27T12:11:34Z</time>
      </trkpt>
      <trkpt lat="47.9018" lon="7.10683">
        <ele>1248.0011</ele>
        <time>2014-02-27T12:11:39Z</time>
      </trkpt>
      <trkpt lat="47.90175" lon="7.10685">
        <ele>1244.8857</ele>
        <time>2014-02-27T12:11:44Z</time>
      </trkpt>
      <trkpt lat="47.90172" lon="7.10684">
        <ele>1244.8857</ele>
        <time>2014-02-27T12:11:49Z</time>
      </trkpt>
      <trkpt lat="47.90173" lon="7.10684">
        <ele>1244.8857</ele>
        <time>2014-02-27T12:11:54Z</time>
      </trkpt>
      <trkpt lat="47.90172" lon="7.10682">
        <ele>1244.8857</ele>
        <time>2014-02-27T12:11:59Z</time>
      </trkpt>
      <trkpt lat="47.90172" lon="7.10682">
        <ele>1244.8857</ele>
        <time>2014-02-27T12:12:04Z</time>
      </trkpt>
      <trkpt lat="47.90172" lon="7.10682">
        <ele>1244.8857</ele>
        <time>2014-02-27T12:12:09Z</time>
      </trkpt>
      <trkpt lat="47.90173" lon="7.10683">
        <ele>1244.8857</ele>
        <time>2014-02-27T12:12:14Z</time>
      </trkpt>
      <trkpt lat="47.90172" lon="7.10686">
        <ele>1244.8857</ele>
        <time>2014-02-27T12:12:19Z</time>
      </trkpt>
      <trkpt lat="47.90167" lon="7.10688">
        <ele>1242.3771</ele>
        <time>2014-02-27T12:12:24Z</time>
      </trkpt>
      <trkpt lat="47.90159" lon="7.10694">
        <ele>1240.7206</ele>
        <time>2014-02-27T12:12:29Z</time>
      </trkpt>
      <trkpt lat="47.90154" lon="7.10696">
        <ele>1240.7206</ele>
        <time>2014-02-27T12:12:34Z</time>
      </trkpt>
      <trkpt lat="47.90148" lon="7.10698">
        <ele>1239.2334</ele>
        <time>2014-02-27T12:12:39Z</time>
      </trkpt>
      <trkpt lat="47.90142" lon="7.10697">
        <ele>1239.2334</ele>
        <time>2014-02-27T12:12:44Z</time>
      </trkpt>
      <trkpt lat="47.90136" lon="7.10698">
        <ele>1238.1753</ele>
        <time>2014-02-27T12:12:49Z</time>
      </trkpt>
      <trkpt lat="47.90132" lon="7.10701">
        <ele>1238.1753</ele>
        <time>2014-02-27T12:12:54Z</time>
      </trkpt>
      <trkpt lat="47.90126" lon="7.10702">
        <ele>1237.0078</ele>
        <time>2014-02-27T12:12:59Z</time>
      </trkpt>
      <trkpt lat="47.90121" lon="7.10703">
        <ele>1237.0078</ele>
        <time>2014-02-27T12:13:04Z</time>
      </trkpt>
      <trkpt lat="47.90115" lon="7.10703">
        <ele>1235.837</ele>
        <time>2014-02-27T12:13:09Z</time>
      </trkpt>
      <trkpt lat="47.90111" lon="7.10702">
        <ele>1235.837</ele>
        <time>2014-02-27T12:13:14Z</time>
      </trkpt>
      <trkpt lat="47.90107" lon="7.10703">
        <ele>1235.837</ele>
        <time>2014-02-27T12:13:19Z</time>
      </trkpt>
      <trkpt lat="47.90102" lon="7.10703">
        <ele>1234.7902</ele>
        <time>2014-02-27T12:13:24Z</time>
      </trkpt>
      <trkpt lat="47.90098" lon="7.10704">
        <ele>1234.7902</ele>
        <time>2014-02-27T12:13:29Z</time>
      </trkpt>
      <trkpt lat="47.90098" lon="7.10705">
        <ele>1234.7902</ele>
        <time>2014-02-27T12:13:34Z</time>
      </trkpt>
      <trkpt lat="47.90095" lon="7.10707">
        <ele>1234.7902</ele>
        <time>2014-02-27T12:13:39Z</time>
      </trkpt>
      <trkpt lat="47.90095" lon="7.10709">
        <ele>1233.6097</ele>
        <time>2014-02-27T12:13:44Z</time>
      </trkpt>
      <trkpt lat="47.90092" lon="7.10711">
        <ele>1233.6097</ele>
        <time>2014-02-27T12:13:50Z</time>
      </trkpt>
      <trkpt lat="47.90087" lon="7.10713">
        <ele>1233.6097</ele>
        <time>2014-02-27T12:13:54Z</time>
      </trkpt>
      <trkpt lat="47.90082" lon="7.10715">
        <ele>1232.6487</ele>
        <time>2014-02-27T12:13:59Z</time>
      </trkpt>
      <trkpt lat="47.90077" lon="7.10718">
        <ele>1232.6487</ele>
        <time>2014-02-27T12:14:04Z</time>
      </trkpt>
      <trkpt lat="47.90072" lon="7.10718">
        <ele>1231.8438</ele>
        <time>2014-02-27T12:14:09Z</time>
      </trkpt>
      <trkpt lat="47.90069" lon="7.10717">
        <ele>1231.8438</ele>
        <time>2014-02-27T12:14:14Z</time>
      </trkpt>
      <trkpt lat="47.90067" lon="7.10716">
        <ele>1231.8438</ele>
        <time>2014-02-27T12:14:19Z</time>
      </trkpt>
      <trkpt lat="47.90069" lon="7.1071">
        <ele>1231.0352</ele>
        <time>2014-02-27T12:14:24Z</time>
      </trkpt>
      <trkpt lat="47.90067" lon="7.10706">
        <ele>1231.0352</ele>
        <time>2014-02-27T12:14:29Z</time>
      </trkpt>
      <trkpt lat="47.90062" lon="7.10704">
        <ele>1231.0352</ele>
        <time>2014-02-27T12:14:34Z</time>
      </trkpt>
      <trkpt lat="47.90056" lon="7.10699">
        <ele>1230.3773</ele>
        <time>2014-02-27T12:14:39Z</time>
      </trkpt>
      <trkpt lat="47.90053" lon="7.107">
        <ele>1230.3773</ele>
        <time>2014-02-27T12:14:44Z</time>
      </trkpt>
      <trkpt lat="47.9005" lon="7.10697">
        <ele>1230.3773</ele>
        <time>2014-02-27T12:14:49Z</time>
      </trkpt>
      <trkpt lat="47.90048" lon="7.10695">
        <ele>1230.215</ele>
        <time>2014-02-27T12:14:54Z</time>
      </trkpt>
      <trkpt lat="47.90042" lon="7.10694">
        <ele>1230.215</ele>
        <time>2014-02-27T12:14:59Z</time>
      </trkpt>
      <trkpt lat="47.90041" lon="7.10695">
        <ele>1230.215</ele>
        <time>2014-02-27T12:15:04Z</time>
      </trkpt>
      <trkpt lat="47.90036" lon="7.10695">
        <ele>1230.6782</ele>
        <time>2014-02-27T12:15:09Z</time>
      </trkpt>
      <trkpt lat="47.90034" lon="7.10695">
        <ele>1230.6782</ele>
        <time>2014-02-27T12:15:14Z</time>
      </trkpt>
      <trkpt lat="47.90033" lon="7.10691">
        <ele>1230.6782</ele>
        <time>2014-02-27T12:15:19Z</time>
      </trkpt>
      <trkpt lat="47.9003" lon="7.10691">
        <ele>1230.6782</ele>
        <time>2014-02-27T12:15:24Z</time>
      </trkpt>
      <trkpt lat="47.90026" lon="7.1069">
        <ele>1231.2522</ele>
        <time>2014-02-27T12:15:29Z</time>
      </trkpt>
      <trkpt lat="47.90023" lon="7.10688">
        <ele>1231.2522</ele>
        <time>2014-02-27T12:15:34Z</time>
      </trkpt>
      <trkpt lat="47.9002" lon="7.1069">
        <ele>1231.2522</ele>
        <time>2014-02-27T12:15:39Z</time>
      </trkpt>
      <trkpt lat="47.90016" lon="7.10693">
        <ele>1232.3097</ele>
        <time>2014-02-27T12:15:44Z</time>
      </trkpt>
      <trkpt lat="47.90013" lon="7.10696">
        <ele>1232.3097</ele>
        <time>2014-02-27T12:15:49Z</time>
      </trkpt>
      <trkpt lat="47.90016" lon="7.10698">
        <ele>1232.3097</ele>
        <time>2014-02-27T12:15:54Z</time>
      </trkpt>
      <trkpt lat="47.90018" lon="7.10699">
        <ele>1232.3097</ele>
        <time>2014-02-27T12:15:59Z</time>
      </trkpt>
      <trkpt lat="47.90019" lon="7.107">
        <ele>1232.3097</ele>
        <time>2014-02-27T12:16:04Z</time>
      </trkpt>
      <trkpt lat="47.90019" lon="7.10702">
        <ele>1233.1139</ele>
        <time>2014-02-27T12:16:09Z</time>
      </trkpt>
      <trkpt lat="47.90018" lon="7.10705">
        <ele>1233.1139</ele>
        <time>2014-02-27T12:16:14Z</time>
      </trkpt>
      <trkpt lat="47.90015" lon="7.107">
        <ele>1233.1139</ele>
        <time>2014-02-27T12:16:19Z</time>
      </trkpt>
      <trkpt lat="47.90008" lon="7.10696">
        <ele>1234.0638</ele>
        <time>2014-02-27T12:16:24Z</time>
      </trkpt>
      <trkpt lat="47.90001" lon="7.10692">
        <ele>1234.0638</ele>
        <time>2014-02-27T12:16:29Z</time>
      </trkpt>
      <trkpt lat="47.89998" lon="7.10688">
        <ele>1235.3992</ele>
        <time>2014-02-27T12:16:34Z</time>
      </trkpt>
      <trkpt lat="47.89997" lon="7.10687">
        <ele>1235.3992</ele>
        <time>2014-02-27T12:16:39Z</time>
      </trkpt>
      <trkpt lat="47.89994" lon="7.10684">
        <ele>1235.3992</ele>
        <time>2014-02-27T12:16:44Z</time>
      </trkpt>
      <trkpt lat="47.89995" lon="7.10684">
        <ele>1235.3992</ele>
        <time>2014-02-27T12:16:49Z</time>
      </trkpt>
      <trkpt lat="47.89992" lon="7.10676">
        <ele>1237.4707</ele>
        <time>2014-02-27T12:16:54Z</time>
      </trkpt>
      <trkpt lat="47.89992" lon="7.10677">
        <ele>1237.4707</ele>
        <time>2014-02-27T12:16:59Z</time>
      </trkpt>
      <trkpt lat="47.89994" lon="7.10673">
        <ele>1237.4707</ele>
        <time>2014-02-27T12:17:04Z</time>
      </trkpt>
      <trkpt lat="47.8999" lon="7.10675">
        <ele>1239.5927</ele>
        <time>2014-02-27T12:17:09Z</time>
      </trkpt>
      <trkpt lat="47.89986" lon="7.10679">
        <ele>1239.5927</ele>
        <time>2014-02-27T12:17:14Z</time>
      </trkpt>
      <trkpt lat="47.89986" lon="7.10681">
        <ele>1239.5927</ele>
        <time>2014-02-27T12:17:19Z</time>
      </trkpt>
      <trkpt lat="47.89984" lon="7.10679">
        <ele>1239.5927</ele>
        <time>2014-02-27T12:17:24Z</time>
      </trkpt>
      <trkpt lat="47.89982" lon="7.1068">
        <ele>1242.0378</ele>
        <time>2014-02-27T12:17:29Z</time>
      </trkpt>
      <trkpt lat="47.89978" lon="7.10681">
        <ele>1242.0378</ele>
        <time>2014-02-27T12:17:34Z</time>
      </trkpt>
      <trkpt lat="47.89972" lon="7.1068">
        <ele>1244.1788</ele>
        <time>2014-02-27T12:17:39Z</time>
      </trkpt>
      <trkpt lat="47.89969" lon="7.10681">
        <ele>1244.1788</ele>
        <time>2014-02-27T12:17:44Z</time>
      </trkpt>
      <trkpt lat="47.89965" lon="7.10682">
        <ele>1244.1788</ele>
        <time>2014-02-27T12:17:49Z</time>
      </trkpt>
      <trkpt lat="47.8996" lon="7.10682">
        <ele>1246.1995</ele>
        <time>2014-02-27T12:17:54Z</time>
      </trkpt>
      <trkpt lat="47.89958" lon="7.10679">
        <ele>1246.1995</ele>
        <time>2014-02-27T12:17:59Z</time>
      </trkpt>
      <trkpt lat="47.89956" lon="7.10681">
        <ele>1246.1995</ele>
        <time>2014-02-27T12:18:04Z</time>
      </trkpt>
      <trkpt lat="47.8995" lon="7.10682">
        <ele>1247.8092</ele>
        <time>2014-02-27T12:18:09Z</time>
      </trkpt>
      <trkpt lat="47.89943" lon="7.10678">
        <ele>1247.8092</ele>
        <time>2014-02-27T12:18:14Z</time>
      </trkpt>
      <trkpt lat="47.89942" lon="7.10679">
        <ele>1247.8092</ele>
        <time>2014-02-27T12:18:19Z</time>
      </trkpt>
      <trkpt lat="47.89942" lon="7.10675">
        <ele>1249.144</ele>
        <time>2014-02-27T12:18:24Z</time>
      </trkpt>
      <trkpt lat="47.89945" lon="7.10671">
        <ele>1249.144</ele>
        <time>2014-02-27T12:18:29Z</time>
      </trkpt>
      <trkpt lat="47.89945" lon="7.10672">
        <ele>1249.144</ele>
        <time>2014-02-27T12:18:34Z</time>
      </trkpt>
      <trkpt lat="47.89942" lon="7.10669">
        <ele>1249.144</ele>
        <time>2014-02-27T12:18:39Z</time>
      </trkpt>
      <trkpt lat="47.89939" lon="7.10668">
        <ele>1250.23</ele>
        <time>2014-02-27T12:18:44Z</time>
      </trkpt>
      <trkpt lat="47.89938" lon="7.10667">
        <ele>1250.23</ele>
        <time>2014-02-27T12:18:49Z</time>
      </trkpt>
      <trkpt lat="47.89938" lon="7.10668">
        <ele>1250.23</ele>
        <time>2014-02-27T12:18:54Z</time>
      </trkpt>
      <trkpt lat="47.89938" lon="7.10668">
        <ele>1250.23</ele>
        <time>2014-02-27T12:18:59Z</time>
      </trkpt>
      <trkpt lat="47.89938" lon="7.10668">
        <ele>1250.23</ele>
        <time>2014-02-27T12:19:04Z</time>
      </trkpt>
      <trkpt lat="47.89934" lon="7.10669">
        <ele>1250.23</ele>
        <time>2014-02-27T12:19:09Z</time>
      </trkpt>
      <trkpt lat="47.89926" lon="7.1067">
        <ele>1250.5299</ele>
        <time>2014-02-27T12:19:14Z</time>
      </trkpt>
      <trkpt lat="47.89919" lon="7.1067">
        <ele>1250.5299</ele>
        <time>2014-02-27T12:19:19Z</time>
      </trkpt>
      <trkpt lat="47.89915" lon="7.1067">
        <ele>1250.3848</ele>
        <time>2014-02-27T12:19:24Z</time>
      </trkpt>
      <trkpt lat="47.89912" lon="7.10666">
        <ele>1250.3848</ele>
        <time>2014-02-27T12:19:29Z</time>
      </trkpt>
      <trkpt lat="47.89909" lon="7.10661">
        <ele>1250.3848</ele>
        <time>2014-02-27T12:19:34Z</time>
      </trkpt>
      <trkpt lat="47.89903" lon="7.10661">
        <ele>1250.4143</ele>
        <time>2014-02-27T12:19:39Z</time>
      </trkpt>
      <trkpt lat="47.89902" lon="7.1066">
        <ele>1250.4143</ele>
        <time>2014-02-27T12:19:44Z</time>
      </trkpt>
      <trkpt lat="47.89901" lon="7.1066">
        <ele>1250.4143</ele>
        <time>2014-02-27T12:19:49Z</time>
      </trkpt>
      <trkpt lat="47.899" lon="7.10659">
        <ele>1250.4143</ele>
        <time>2014-02-27T12:19:54Z</time>
      </trkpt>
      <trkpt lat="47.89898" lon="7.10657">
        <ele>1250.4143</ele>
        <time>2014-02-27T12:19:59Z</time>
      </trkpt>
      <trkpt lat="47.89894" lon="7.10657">
        <ele>1251.3513</ele>
        <time>2014-02-27T12:20:04Z</time>
      </trkpt>
      <trkpt lat="47.8989" lon="7.10655">
        <ele>1251.3513</ele>
        <time>2014-02-27T12:20:09Z</time>
      </trkpt>
      <trkpt lat="47.89887" lon="7.10654">
        <ele>1251.3513</ele>
        <time>2014-02-27T12:20:14Z</time>
      </trkpt>
      <trkpt lat="47.89883" lon="7.10658">
        <ele>1251.9266</ele>
        <time>2014-02-27T12:20:19Z</time>
      </trkpt>
      <trkpt lat="47.89879" lon="7.10658">
        <ele>1251.9266</ele>
        <time>2014-02-27T12:20:24Z</time>
      </trkpt>
      <trkpt lat="47.89875" lon="7.10658">
        <ele>1251.9266</ele>
        <time>2014-02-27T12:20:29Z</time>
      </trkpt>
      <trkpt lat="47.89872" lon="7.10654">
        <ele>1252.2772</ele>
        <time>2014-02-27T12:20:34Z</time>
      </trkpt>
      <trkpt lat="47.89869" lon="7.10654">
        <ele>1252.2772</ele>
        <time>2014-02-27T12:20:39Z</time>
      </trkpt>
      <trkpt lat="47.89866" lon="7.10658">
        <ele>1252.2772</ele>
        <time>2014-02-27T12:20:44Z</time>
      </trkpt>
      <trkpt lat="47.89862" lon="7.10661">
        <ele>1252.8335</ele>
        <time>2014-02-27T12:20:49Z</time>
      </trkpt>
      <trkpt lat="47.89855" lon="7.10663">
        <ele>1252.8335</ele>
        <time>2014-02-27T12:20:54Z</time>
      </trkpt>
      <trkpt lat="47.89847" lon="7.10664">
        <ele>1253.6047</ele>
        <time>2014-02-27T12:20:59Z</time>
      </trkpt>
      <trkpt lat="47.89841" lon="7.10663">
        <ele>1253.6047</ele>
        <time>2014-02-27T12:21:04Z</time>
      </trkpt>
      <trkpt lat="47.89833" lon="7.10662">
        <ele>1254.3972</ele>
        <time>2014-02-27T12:21:09Z</time>
      </trkpt>
      <trkpt lat="47.89829" lon="7.10667">
        <ele>1254.3972</ele>
        <time>2014-02-27T12:21:14Z</time>
      </trkpt>
      <trkpt lat="47.89824" lon="7.10667">
        <ele>1255.1619</ele>
        <time>2014-02-27T12:21:19Z</time>
      </trkpt>
      <trkpt lat="47.89823" lon="7.10669">
        <ele>1255.1619</ele>
        <time>2014-02-27T12:21:24Z</time>
      </trkpt>
      <trkpt lat="47.89821" lon="7.10667">
        <ele>1255.1619</ele>
        <time>2014-02-27T12:21:29Z</time>
      </trkpt>
      <trkpt lat="47.89815" lon="7.10668">
        <ele>1255.4349</ele>
        <time>2014-02-27T12:21:34Z</time>
      </trkpt>
      <trkpt lat="47.89812" lon="7.10672">
        <ele>1255.4349</ele>
        <time>2014-02-27T12:21:39Z</time>
      </trkpt>
      <trkpt lat="47.89806" lon="7.10678">
        <ele>1255.7975</ele>
        <time>2014-02-27T12:21:44Z</time>
      </trkpt>
      <trkpt lat="47.89798" lon="7.10685">
        <ele>1255.7975</ele>
        <time>2014-02-27T12:21:49Z</time>
      </trkpt>
      <trkpt lat="47.89793" lon="7.10695">
        <ele>1256.0098</ele>
        <time>2014-02-27T12:21:54Z</time>
      </trkpt>
      <trkpt lat="47.89791" lon="7.10707">
        <ele>1256.0098</ele>
        <time>2014-02-27T12:21:59Z</time>
      </trkpt>
      <trkpt lat="47.89787" lon="7.10716">
        <ele>1255.605</ele>
        <time>2014-02-27T12:22:04Z</time>
      </trkpt>
      <trkpt lat="47.89784" lon="7.10721">
        <ele>1255.605</ele>
        <time>2014-02-27T12:22:09Z</time>
      </trkpt>
      <trkpt lat="47.89781" lon="7.10725">
        <ele>1255.605</ele>
        <time>2014-02-27T12:22:14Z</time>
      </trkpt>
      <trkpt lat="47.89778" lon="7.10732">
        <ele>1254.8586</ele>
        <time>2014-02-27T12:22:19Z</time>
      </trkpt>
      <trkpt lat="47.89773" lon="7.10739">
        <ele>1254.8586</ele>
        <time>2014-02-27T12:22:24Z</time>
      </trkpt>
      <trkpt lat="47.89767" lon="7.10744">
        <ele>1254.0276</ele>
        <time>2014-02-27T12:22:29Z</time>
      </trkpt>
      <trkpt lat="47.89762" lon="7.10748">
        <ele>1254.0276</ele>
        <time>2014-02-27T12:22:34Z</time>
      </trkpt>
      <trkpt lat="47.89754" lon="7.10756">
        <ele>1252.7158</ele>
        <time>2014-02-27T12:22:39Z</time>
      </trkpt>
      <trkpt lat="47.89749" lon="7.10763">
        <ele>1252.7158</ele>
        <time>2014-02-27T12:22:44Z</time>
      </trkpt>
      <trkpt lat="47.89749" lon="7.10764">
        <ele>1252.7158</ele>
        <time>2014-02-27T12:22:49Z</time>
      </trkpt>
      <trkpt lat="47.89748" lon="7.10764">
        <ele>1252.7158</ele>
        <time>2014-02-27T12:22:54Z</time>
      </trkpt>
      <trkpt lat="47.89748" lon="7.10764">
        <ele>1252.7158</ele>
        <time>2014-02-27T12:22:59Z</time>
      </trkpt>
      <trkpt lat="47.8974" lon="7.10771">
        <ele>1251.5521</ele>
        <time>2014-02-27T12:23:04Z</time>
      </trkpt>
      <trkpt lat="47.89736" lon="7.10778">
        <ele>1251.5521</ele>
        <time>2014-02-27T12:23:09Z</time>
      </trkpt>
      <trkpt lat="47.8973" lon="7.10782">
        <ele>1250.3698</ele>
        <time>2014-02-27T12:23:14Z</time>
      </trkpt>
      <trkpt lat="47.89729" lon="7.10785">
        <ele>1250.3698</ele>
        <time>2014-02-27T12:23:19Z</time>
      </trkpt>
      <trkpt lat="47.89729" lon="7.10786">
        <ele>1250.3698</ele>
        <time>2014-02-27T12:23:24Z</time>
      </trkpt>
      <trkpt lat="47.89728" lon="7.10787">
        <ele>1250.3698</ele>
        <time>2014-02-27T12:23:29Z</time>
      </trkpt>
      <trkpt lat="47.89728" lon="7.10787">
        <ele>1250.3698</ele>
        <time>2014-02-27T12:23:34Z</time>
      </trkpt>
      <trkpt lat="47.89728" lon="7.10787">
        <ele>1250.3698</ele>
        <time>2014-02-27T12:23:39Z</time>
      </trkpt>
      <trkpt lat="47.89719" lon="7.10795">
        <ele>1248.9854</ele>
        <time>2014-02-27T12:23:44Z</time>
      </trkpt>
      <trkpt lat="47.89714" lon="7.108">
        <ele>1248.9854</ele>
        <time>2014-02-27T12:23:49Z</time>
      </trkpt>
      <trkpt lat="47.89709" lon="7.10807">
        <ele>1247.2153</ele>
        <time>2014-02-27T12:23:54Z</time>
      </trkpt>
      <trkpt lat="47.89704" lon="7.10812">
        <ele>1247.2153</ele>
        <time>2014-02-27T12:23:59Z</time>
      </trkpt>
      <trkpt lat="47.897" lon="7.10817">
        <ele>1245.4961</ele>
        <time>2014-02-27T12:24:04Z</time>
      </trkpt>
      <trkpt lat="47.89696" lon="7.10822">
        <ele>1245.4961</ele>
        <time>2014-02-27T12:24:09Z</time>
      </trkpt>
      <trkpt lat="47.89695" lon="7.10824">
        <ele>1245.4961</ele>
        <time>2014-02-27T12:24:14Z</time>
      </trkpt>
      <trkpt lat="47.89696" lon="7.10824">
        <ele>1245.4961</ele>
        <time>2014-02-27T12:24:19Z</time>
      </trkpt>
      <trkpt lat="47.89693" lon="7.10828">
        <ele>1243.3959</ele>
        <time>2014-02-27T12:24:24Z</time>
      </trkpt>
      <trkpt lat="47.89687" lon="7.10834">
        <ele>1243.3959</ele>
        <time>2014-02-27T12:24:29Z</time>
      </trkpt>
      <trkpt lat="47.89683" lon="7.10834">
        <ele>1241.0924</ele>
        <time>2014-02-27T12:24:34Z</time>
      </trkpt>
      <trkpt lat="47.89683" lon="7.10832">
        <ele>1241.0924</ele>
        <time>2014-02-27T12:24:39Z</time>
      </trkpt>
      <trkpt lat="47.8968" lon="7.10832">
        <ele>1241.0924</ele>
        <time>2014-02-27T12:24:44Z</time>
      </trkpt>
      <trkpt lat="47.89675" lon="7.10831">
        <ele>1238.7219</ele>
        <time>2014-02-27T12:24:49Z</time>
      </trkpt>
      <trkpt lat="47.89673" lon="7.10832">
        <ele>1238.7219</ele>
        <time>2014-02-27T12:24:54Z</time>
      </trkpt>
      <trkpt lat="47.89669" lon="7.10834">
        <ele>1238.7219</ele>
        <time>2014-02-27T12:24:59Z</time>
      </trkpt>
      <trkpt lat="47.89667" lon="7.10829">
        <ele>1236.1804</ele>
        <time>2014-02-27T12:25:04Z</time>
      </trkpt>
      <trkpt lat="47.89663" lon="7.10825">
        <ele>1236.1804</ele>
        <time>2014-02-27T12:25:09Z</time>
      </trkpt>
      <trkpt lat="47.89661" lon="7.10821">
        <ele>1236.1804</ele>
        <time>2014-02-27T12:25:14Z</time>
      </trkpt>
      <trkpt lat="47.8966" lon="7.10822">
        <ele>1236.1804</ele>
        <time>2014-02-27T12:25:19Z</time>
      </trkpt>
      <trkpt lat="47.89659" lon="7.10817">
        <ele>1233.8186</ele>
        <time>2014-02-27T12:25:24Z</time>
      </trkpt>
      <trkpt lat="47.8966" lon="7.10818">
        <ele>1233.8186</ele>
        <time>2014-02-27T12:25:29Z</time>
      </trkpt>
      <trkpt lat="47.8966" lon="7.10818">
        <ele>1233.8186</ele>
        <time>2014-02-27T12:25:34Z</time>
      </trkpt>
      <trkpt lat="47.8966" lon="7.10818">
        <ele>1233.8186</ele>
        <time>2014-02-27T12:25:39Z</time>
      </trkpt>
      <trkpt lat="47.8966" lon="7.10818">
        <ele>1233.8186</ele>
        <time>2014-02-27T12:25:44Z</time>
      </trkpt>
      <trkpt lat="47.8966" lon="7.10818">
        <ele>1233.8186</ele>
        <time>2014-02-27T12:25:49Z</time>
      </trkpt>
      <trkpt lat="47.89653" lon="7.10818">
        <ele>1233.8186</ele>
        <time>2014-02-27T12:25:54Z</time>
      </trkpt>
      <trkpt lat="47.8965" lon="7.10815">
        <ele>1231.5862</ele>
        <time>2014-02-27T12:25:59Z</time>
      </trkpt>
      <trkpt lat="47.89649" lon="7.10815">
        <ele>1231.5862</ele>
        <time>2014-02-27T12:26:04Z</time>
      </trkpt>
      <trkpt lat="47.89649" lon="7.10815">
        <ele>1231.5862</ele>
        <time>2014-02-27T12:26:09Z</time>
      </trkpt>
      <trkpt lat="47.89649" lon="7.10815">
        <ele>1231.5862</ele>
        <time>2014-02-27T12:26:14Z</time>
      </trkpt>
      <trkpt lat="47.89646" lon="7.10814">
        <ele>1231.5862</ele>
        <time>2014-02-27T12:26:19Z</time>
      </trkpt>
      <trkpt lat="47.89642" lon="7.10815">
        <ele>1231.5862</ele>
        <time>2014-02-27T12:26:24Z</time>
      </trkpt>
      <trkpt lat="47.89637" lon="7.10819">
        <ele>1229.8112</ele>
        <time>2014-02-27T12:26:29Z</time>
      </trkpt>
      <trkpt lat="47.89636" lon="7.1082">
        <ele>1229.8112</ele>
        <time>2014-02-27T12:26:34Z</time>
      </trkpt>
      <trkpt lat="47.89633" lon="7.10819">
        <ele>1229.8112</ele>
        <time>2014-02-27T12:26:39Z</time>
      </trkpt>
      <trkpt lat="47.89633" lon="7.10818">
        <ele>1229.8112</ele>
        <time>2014-02-27T12:26:44Z</time>
      </trkpt>
      <trkpt lat="47.89634" lon="7.10819">
        <ele>1229.8112</ele>
        <time>2014-02-27T12:26:49Z</time>
      </trkpt>
      <trkpt lat="47.89634" lon="7.10819">
        <ele>1229.8112</ele>
        <time>2014-02-27T12:26:54Z</time>
      </trkpt>
      <trkpt lat="47.89634" lon="7.10819">
        <ele>1229.8112</ele>
        <time>2014-02-27T12:26:59Z</time>
      </trkpt>
      <trkpt lat="47.89634" lon="7.10819">
        <ele>1229.8112</ele>
        <time>2014-02-27T12:27:04Z</time>
      </trkpt>
      <trkpt lat="47.89634" lon="7.10819">
        <ele>1229.8112</ele>
        <time>2014-02-27T12:27:09Z</time>
      </trkpt>
      <trkpt lat="47.89634" lon="7.10819">
        <ele>1229.8112</ele>
        <time>2014-02-27T12:27:14Z</time>
      </trkpt>
      <trkpt lat="47.89632" lon="7.1082">
        <ele>1229.8112</ele>
        <time>2014-02-27T12:27:19Z</time>
      </trkpt>
      <trkpt lat="47.89628" lon="7.10827">
        <ele>1228.7091</ele>
        <time>2014-02-27T12:27:24Z</time>
      </trkpt>
      <trkpt lat="47.89625" lon="7.10829">
        <ele>1228.7091</ele>
        <time>2014-02-27T12:27:29Z</time>
      </trkpt>
      <trkpt lat="47.89625" lon="7.10831">
        <ele>1228.7091</ele>
        <time>2014-02-27T12:27:34Z</time>
      </trkpt>
      <trkpt lat="47.8962" lon="7.1083">
        <ele>1227.4982</ele>
        <time>2014-02-27T12:27:39Z</time>
      </trkpt>
      <trkpt lat="47.89618" lon="7.10832">
        <ele>1227.4982</ele>
        <time>2014-02-27T12:27:44Z</time>
      </trkpt>
      <trkpt lat="47.89614" lon="7.10832">
        <ele>1227.4982</ele>
        <time>2014-02-27T12:27:49Z</time>
      </trkpt>
      <trkpt lat="47.8961" lon="7.10832">
        <ele>1226.4198</ele>
        <time>2014-02-27T12:27:54Z</time>
      </trkpt>
      <trkpt lat="47.89607" lon="7.10831">
        <ele>1226.4198</ele>
        <time>2014-02-27T12:27:59Z</time>
      </trkpt>
      <trkpt lat="47.89604" lon="7.10832">
        <ele>1226.4198</ele>
        <time>2014-02-27T12:28:04Z</time>
      </trkpt>
      <trkpt lat="47.89604" lon="7.10832">
        <ele>1226.4198</ele>
        <time>2014-02-27T12:28:09Z</time>
      </trkpt>
      <trkpt lat="47.89602" lon="7.10836">
        <ele>1225.7257</ele>
        <time>2014-02-27T12:28:14Z</time>
      </trkpt>
      <trkpt lat="47.89598" lon="7.10842">
        <ele>1225.7257</ele>
        <time>2014-02-27T12:28:19Z</time>
      </trkpt>
      <trkpt lat="47.89592" lon="7.10853">
        <ele>1225.0431</ele>
        <time>2014-02-27T12:28:24Z</time>
      </trkpt>
      <trkpt lat="47.89591" lon="7.10857">
        <ele>1225.0431</ele>
        <time>2014-02-27T12:28:29Z</time>
      </trkpt>
      <trkpt lat="47.8959" lon="7.10862">
        <ele>1225.0431</ele>
        <time>2014-02-27T12:28:34Z</time>
      </trkpt>
      <trkpt lat="47.89588" lon="7.10868">
        <ele>1223.7091</ele>
        <time>2014-02-27T12:28:39Z</time>
      </trkpt>
      <trkpt lat="47.89589" lon="7.10873">
        <ele>1223.7091</ele>
        <time>2014-02-27T12:28:44Z</time>
      </trkpt>
      <trkpt lat="47.89588" lon="7.10873">
        <ele>1223.7091</ele>
        <time>2014-02-27T12:28:49Z</time>
      </trkpt>
      <trkpt lat="47.89584" lon="7.10883">
        <ele>1221.5725</ele>
        <time>2014-02-27T12:28:54Z</time>
      </trkpt>
      <trkpt lat="47.89583" lon="7.10893">
        <ele>1221.5725</ele>
        <time>2014-02-27T12:28:59Z</time>
      </trkpt>
      <trkpt lat="47.89581" lon="7.109">
        <ele>1219.7494</ele>
        <time>2014-02-27T12:29:04Z</time>
      </trkpt>
      <trkpt lat="47.89576" lon="7.10913">
        <ele>1218.1628</ele>
        <time>2014-02-27T12:29:09Z</time>
      </trkpt>
      <trkpt lat="47.89574" lon="7.10913">
        <ele>1218.1628</ele>
        <time>2014-02-27T12:29:14Z</time>
      </trkpt>
      <trkpt lat="47.89575" lon="7.10912">
        <ele>1218.1628</ele>
        <time>2014-02-27T12:29:19Z</time>
      </trkpt>
      <trkpt lat="47.89574" lon="7.10912">
        <ele>1218.1628</ele>
        <time>2014-02-27T12:29:24Z</time>
      </trkpt>
      <trkpt lat="47.89574" lon="7.10913">
        <ele>1218.1628</ele>
        <time>2014-02-27T12:29:29Z</time>
      </trkpt>
      <trkpt lat="47.89574" lon="7.10918">
        <ele>1218.1628</ele>
        <time>2014-02-27T12:29:34Z</time>
      </trkpt>
      <trkpt lat="47.89572" lon="7.10928">
        <ele>1216.3809</ele>
        <time>2014-02-27T12:29:39Z</time>
      </trkpt>
      <trkpt lat="47.8957" lon="7.10937">
        <ele>1216.3809</ele>
        <time>2014-02-27T12:29:44Z</time>
      </trkpt>
      <trkpt lat="47.89568" lon="7.10948">
        <ele>1214.2773</ele>
        <time>2014-02-27T12:29:49Z</time>
      </trkpt>
      <trkpt lat="47.89567" lon="7.10954">
        <ele>1214.2773</ele>
        <time>2014-02-27T12:29:54Z</time>
      </trkpt>
      <trkpt lat="47.89564" lon="7.10961">
        <ele>1212.1974</ele>
        <time>2014-02-27T12:29:59Z</time>
      </trkpt>
      <trkpt lat="47.89565" lon="7.10963">
        <ele>1212.1974</ele>
        <time>2014-02-27T12:30:04Z</time>
      </trkpt>
      <trkpt lat="47.89564" lon="7.10972">
        <ele>1212.1974</ele>
        <time>2014-02-27T12:30:09Z</time>
      </trkpt>
      <trkpt lat="47.89563" lon="7.10974">
        <ele>1210.158</ele>
        <time>2014-02-27T12:30:15Z</time>
      </trkpt>
      <trkpt lat="47.89563" lon="7.10976">
        <ele>1210.158</ele>
        <time>2014-02-27T12:30:19Z</time>
      </trkpt>
      <trkpt lat="47.89558" lon="7.10988">
        <ele>1207.9728</ele>
        <time>2014-02-27T12:30:24Z</time>
      </trkpt>
      <trkpt lat="47.89552" lon="7.11008">
        <ele>1206.2477</ele>
        <time>2014-02-27T12:30:29Z</time>
      </trkpt>
      <trkpt lat="47.89547" lon="7.1102">
        <ele>1206.2477</ele>
        <time>2014-02-27T12:30:34Z</time>
      </trkpt>
      <trkpt lat="47.89544" lon="7.11035">
        <ele>1204.1162</ele>
        <time>2014-02-27T12:30:39Z</time>
      </trkpt>
      <trkpt lat="47.89539" lon="7.11046">
        <ele>1202.1163</ele>
        <time>2014-02-27T12:30:44Z</time>
      </trkpt>
      <trkpt lat="47.89534" lon="7.11056">
        <ele>1202.1163</ele>
        <time>2014-02-27T12:30:49Z</time>
      </trkpt>
      <trkpt lat="47.89532" lon="7.11062">
        <ele>1200.1987</ele>
        <time>2014-02-27T12:30:54Z</time>
      </trkpt>
      <trkpt lat="47.89531" lon="7.11071">
        <ele>1200.1987</ele>
        <time>2014-02-27T12:30:59Z</time>
      </trkpt>
      <trkpt lat="47.89524" lon="7.11077">
        <ele>1198.303</ele>
        <time>2014-02-27T12:31:04Z</time>
      </trkpt>
      <trkpt lat="47.89521" lon="7.11083">
        <ele>1198.303</ele>
        <time>2014-02-27T12:31:09Z</time>
      </trkpt>
      <trkpt lat="47.8952" lon="7.11091">
        <ele>1196.6896</ele>
        <time>2014-02-27T12:31:14Z</time>
      </trkpt>
      <trkpt lat="47.89518" lon="7.11095">
        <ele>1196.6896</ele>
        <time>2014-02-27T12:31:19Z</time>
      </trkpt>
      <trkpt lat="47.89516" lon="7.11101">
        <ele>1196.6896</ele>
        <time>2014-02-27T12:31:24Z</time>
      </trkpt>
      <trkpt lat="47.89514" lon="7.11102">
        <ele>1195.1093</ele>
        <time>2014-02-27T12:31:29Z</time>
      </trkpt>
      <trkpt lat="47.89515" lon="7.11101">
        <ele>1195.1093</ele>
        <time>2014-02-27T12:31:34Z</time>
      </trkpt>
      <trkpt lat="47.89516" lon="7.11101">
        <ele>1195.1093</ele>
        <time>2014-02-27T12:31:39Z</time>
      </trkpt>
      <trkpt lat="47.89513" lon="7.111">
        <ele>1195.1093</ele>
        <time>2014-02-27T12:31:44Z</time>
      </trkpt>
      <trkpt lat="47.89513" lon="7.111">
        <ele>1195.1093</ele>
        <time>2014-02-27T12:31:49Z</time>
      </trkpt>
      <trkpt lat="47.89512" lon="7.11099">
        <ele>1195.1093</ele>
        <time>2014-02-27T12:31:54Z</time>
      </trkpt>
      <trkpt lat="47.89511" lon="7.11099">
        <ele>1195.1093</ele>
        <time>2014-02-27T12:31:59Z</time>
      </trkpt>
      <trkpt lat="47.89511" lon="7.11099">
        <ele>1195.1093</ele>
        <time>2014-02-27T12:32:04Z</time>
      </trkpt>
      <trkpt lat="47.89502" lon="7.11101">
        <ele>1193.1149</ele>
        <time>2014-02-27T12:32:09Z</time>
      </trkpt>
      <trkpt lat="47.89498" lon="7.11108">
        <ele>1193.1149</ele>
        <time>2014-02-27T12:32:14Z</time>
      </trkpt>
      <trkpt lat="47.89497" lon="7.11112">
        <ele>1191.4458</ele>
        <time>2014-02-27T12:32:19Z</time>
      </trkpt>
      <trkpt lat="47.89496" lon="7.11113">
        <ele>1191.4458</ele>
        <time>2014-02-27T12:32:24Z</time>
      </trkpt>
      <trkpt lat="47.89495" lon="7.11114">
        <ele>1191.4458</ele>
        <time>2014-02-27T12:32:29Z</time>
      </trkpt>
      <trkpt lat="47.89495" lon="7.11114">
        <ele>1191.4458</ele>
        <time>2014-02-27T12:32:34Z</time>
      </trkpt>
      <trkpt lat="47.89495" lon="7.11114">
        <ele>1191.4458</ele>
        <time>2014-02-27T12:32:39Z</time>
      </trkpt>
      <trkpt lat="47.89495" lon="7.11113">
        <ele>1191.4458</ele>
        <time>2014-02-27T12:32:44Z</time>
      </trkpt>
      <trkpt lat="47.89494" lon="7.11116">
        <ele>1191.4458</ele>
        <time>2014-02-27T12:32:49Z</time>
      </trkpt>
      <trkpt lat="47.89491" lon="7.11117">
        <ele>1191.4458</ele>
        <time>2014-02-27T12:32:54Z</time>
      </trkpt>
      <trkpt lat="47.8949" lon="7.11118">
        <ele>1190.3969</ele>
        <time>2014-02-27T12:32:59Z</time>
      </trkpt>
      <trkpt lat="47.8949" lon="7.11118">
        <ele>1190.3969</ele>
        <time>2014-02-27T12:33:04Z</time>
      </trkpt>
      <trkpt lat="47.8949" lon="7.11118">
        <ele>1190.3969</ele>
        <time>2014-02-27T12:33:09Z</time>
      </trkpt>
      <trkpt lat="47.8949" lon="7.11118">
        <ele>1190.3969</ele>
        <time>2014-02-27T12:33:14Z</time>
      </trkpt>
      <trkpt lat="47.8949" lon="7.11118">
        <ele>1190.3969</ele>
        <time>2014-02-27T12:33:19Z</time>
      </trkpt>
      <trkpt lat="47.8949" lon="7.11118">
        <ele>1190.3969</ele>
        <time>2014-02-27T12:33:24Z</time>
      </trkpt>
      <trkpt lat="47.89491" lon="7.11123">
        <ele>1190.3969</ele>
        <time>2014-02-27T12:33:29Z</time>
      </trkpt>
      <trkpt lat="47.89488" lon="7.11127">
        <ele>1190.3969</ele>
        <time>2014-02-27T12:33:34Z</time>
      </trkpt>
      <trkpt lat="47.89486" lon="7.11132">
        <ele>1189.1444</ele>
        <time>2014-02-27T12:33:39Z</time>
      </trkpt>
      <trkpt lat="47.89486" lon="7.11132">
        <ele>1189.1444</ele>
        <time>2014-02-27T12:33:44Z</time>
      </trkpt>
      <trkpt lat="47.89485" lon="7.11133">
        <ele>1189.1444</ele>
        <time>2014-02-27T12:33:49Z</time>
      </trkpt>
      <trkpt lat="47.89485" lon="7.11134">
        <ele>1189.1444</ele>
        <time>2014-02-27T12:33:54Z</time>
      </trkpt>
      <trkpt lat="47.89485" lon="7.11134">
        <ele>1189.1444</ele>
        <time>2014-02-27T12:33:59Z</time>
      </trkpt>
      <trkpt lat="47.89485" lon="7.11134">
        <ele>1189.1444</ele>
        <time>2014-02-27T12:34:04Z</time>
      </trkpt>
      <trkpt lat="47.89485" lon="7.11134">
        <ele>1189.1444</ele>
        <time>2014-02-27T12:34:09Z</time>
      </trkpt>
      <trkpt lat="47.89478" lon="7.11143">
        <ele>1187.8335</ele>
        <time>2014-02-27T12:34:14Z</time>
      </trkpt>
      <trkpt lat="47.89477" lon="7.11146">
        <ele>1187.8335</ele>
        <time>2014-02-27T12:34:19Z</time>
      </trkpt>
      <trkpt lat="47.89471" lon="7.11148">
        <ele>1187.8335</ele>
        <time>2014-02-27T12:34:24Z</time>
      </trkpt>
      <trkpt lat="47.89467" lon="7.11152">
        <ele>1186.57</ele>
        <time>2014-02-27T12:34:29Z</time>
      </trkpt>
      <trkpt lat="47.89465" lon="7.11151">
        <ele>1186.57</ele>
        <time>2014-02-27T12:34:34Z</time>
      </trkpt>
      <trkpt lat="47.89464" lon="7.11151">
        <ele>1186.57</ele>
        <time>2014-02-27T12:34:39Z</time>
      </trkpt>
      <trkpt lat="47.89465" lon="7.11151">
        <ele>1186.57</ele>
        <time>2014-02-27T12:34:44Z</time>
      </trkpt>
      <trkpt lat="47.89465" lon="7.11151">
        <ele>1186.57</ele>
        <time>2014-02-27T12:34:49Z</time>
      </trkpt>
      <trkpt lat="47.89465" lon="7.11151">
        <ele>1186.57</ele>
        <time>2014-02-27T12:34:54Z</time>
      </trkpt>
      <trkpt lat="47.89465" lon="7.11151">
        <ele>1186.57</ele>
        <time>2014-02-27T12:34:59Z</time>
      </trkpt>
      <trkpt lat="47.89465" lon="7.11151">
        <ele>1186.57</ele>
        <time>2014-02-27T12:35:04Z</time>
      </trkpt>
      <trkpt lat="47.89456" lon="7.11152">
        <ele>1185.3793</ele>
        <time>2014-02-27T12:35:09Z</time>
      </trkpt>
      <trkpt lat="47.89447" lon="7.11152">
        <ele>1185.3793</ele>
        <time>2014-02-27T12:35:14Z</time>
      </trkpt>
      <trkpt lat="47.89442" lon="7.11156">
        <ele>1184.602</ele>
        <time>2014-02-27T12:35:19Z</time>
      </trkpt>
      <trkpt lat="47.8944" lon="7.11156">
        <ele>1184.602</ele>
        <time>2014-02-27T12:35:24Z</time>
      </trkpt>
      <trkpt lat="47.8944" lon="7.11156">
        <ele>1184.602</ele>
        <time>2014-02-27T12:35:29Z</time>
      </trkpt>
      <trkpt lat="47.89429" lon="7.11156">
        <ele>1183.904</ele>
        <time>2014-02-27T12:35:34Z</time>
      </trkpt>
      <trkpt lat="47.89424" lon="7.11156">
        <ele>1183.904</ele>
        <time>2014-02-27T12:35:39Z</time>
      </trkpt>
      <trkpt lat="47.89417" lon="7.11156">
        <ele>1183.3212</ele>
        <time>2014-02-27T12:35:44Z</time>
      </trkpt>
      <trkpt lat="47.8941" lon="7.11158">
        <ele>1183.3212</ele>
        <time>2014-02-27T12:35:49Z</time>
      </trkpt>
      <trkpt lat="47.89408" lon="7.11158">
        <ele>1183.3212</ele>
        <time>2014-02-27T12:35:54Z</time>
      </trkpt>
      <trkpt lat="47.89398" lon="7.11164">
        <ele>1183.2322</ele>
        <time>2014-02-27T12:35:59Z</time>
      </trkpt>
      <trkpt lat="47.89392" lon="7.11161">
        <ele>1183.2322</ele>
        <time>2014-02-27T12:36:04Z</time>
      </trkpt>
      <trkpt lat="47.89386" lon="7.11168">
        <ele>1183.1506</ele>
        <time>2014-02-27T12:36:09Z</time>
      </trkpt>
      <trkpt lat="47.8938" lon="7.11164">
        <ele>1183.1506</ele>
        <time>2014-02-27T12:36:14Z</time>
      </trkpt>
      <trkpt lat="47.89375" lon="7.11166">
        <ele>1183.6637</ele>
        <time>2014-02-27T12:36:19Z</time>
      </trkpt>
      <trkpt lat="47.89367" lon="7.11172">
        <ele>1183.6637</ele>
        <time>2014-02-27T12:36:24Z</time>
      </trkpt>
      <trkpt lat="47.89363" lon="7.11179">
        <ele>1184.2324</ele>
        <time>2014-02-27T12:36:29Z</time>
      </trkpt>
      <trkpt lat="47.89358" lon="7.11191">
        <ele>1184.9052</ele>
        <time>2014-02-27T12:36:34Z</time>
      </trkpt>
      <trkpt lat="47.89358" lon="7.11197">
        <ele>1184.9052</ele>
        <time>2014-02-27T12:36:39Z</time>
      </trkpt>
      <trkpt lat="47.89356" lon="7.11207">
        <ele>1185.4526</ele>
        <time>2014-02-27T12:36:44Z</time>
      </trkpt>
      <trkpt lat="47.89359" lon="7.11214">
        <ele>1185.4526</ele>
        <time>2014-02-27T12:36:49Z</time>
      </trkpt>
      <trkpt lat="47.89355" lon="7.11227">
        <ele>1185.7203</ele>
        <time>2014-02-27T12:36:54Z</time>
      </trkpt>
      <trkpt lat="47.89351" lon="7.11232">
        <ele>1185.7203</ele>
        <time>2014-02-27T12:36:59Z</time>
      </trkpt>
      <trkpt lat="47.89346" lon="7.11239">
        <ele>1186.013</ele>
        <time>2014-02-27T12:37:04Z</time>
      </trkpt>
      <trkpt lat="47.89342" lon="7.11242">
        <ele>1186.013</ele>
        <time>2014-02-27T12:37:09Z</time>
      </trkpt>
      <trkpt lat="47.89335" lon="7.11246">
        <ele>1186.2375</ele>
        <time>2014-02-27T12:37:14Z</time>
      </trkpt>
      <trkpt lat="47.89333" lon="7.11246">
        <ele>1186.2375</ele>
        <time>2014-02-27T12:37:19Z</time>
      </trkpt>
      <trkpt lat="47.89327" lon="7.1125">
        <ele>1186.2375</ele>
        <time>2014-02-27T12:37:24Z</time>
      </trkpt>
      <trkpt lat="47.89323" lon="7.11255">
        <ele>1186.1357</ele>
        <time>2014-02-27T12:37:29Z</time>
      </trkpt>
      <trkpt lat="47.89318" lon="7.11261">
        <ele>1186.1357</ele>
        <time>2014-02-27T12:37:34Z</time>
      </trkpt>
      <trkpt lat="47.89315" lon="7.1126">
        <ele>1186.5211</ele>
        <time>2014-02-27T12:37:39Z</time>
      </trkpt>
      <trkpt lat="47.89306" lon="7.11261">
        <ele>1187.0796</ele>
        <time>2014-02-27T12:37:44Z</time>
      </trkpt>
      <trkpt lat="47.89301" lon="7.11268">
        <ele>1187.0796</ele>
        <time>2014-02-27T12:37:49Z</time>
      </trkpt>
      <trkpt lat="47.89303" lon="7.11273">
        <ele>1187.7361</ele>
        <time>2014-02-27T12:37:54Z</time>
      </trkpt>
      <trkpt lat="47.89302" lon="7.11273">
        <ele>1187.7361</ele>
        <time>2014-02-27T12:37:59Z</time>
      </trkpt>
      <trkpt lat="47.89302" lon="7.11282">
        <ele>1187.7361</ele>
        <time>2014-02-27T12:38:04Z</time>
      </trkpt>
      <trkpt lat="47.89303" lon="7.11286">
        <ele>1188.6368</ele>
        <time>2014-02-27T12:38:09Z</time>
      </trkpt>
      <trkpt lat="47.89302" lon="7.11298">
        <ele>1188.6368</ele>
        <time>2014-02-27T12:38:14Z</time>
      </trkpt>
      <trkpt lat="47.89302" lon="7.11303">
        <ele>1189.3549</ele>
        <time>2014-02-27T12:38:19Z</time>
      </trkpt>
      <trkpt lat="47.893" lon="7.11316">
        <ele>1189.3549</ele>
        <time>2014-02-27T12:38:24Z</time>
      </trkpt>
      <trkpt lat="47.89299" lon="7.11323">
        <ele>1189.4519</ele>
        <time>2014-02-27T12:38:29Z</time>
      </trkpt>
      <trkpt lat="47.89299" lon="7.11332">
        <ele>1189.4519</ele>
        <time>2014-02-27T12:38:34Z</time>
      </trkpt>
      <trkpt lat="47.893" lon="7.11339">
        <ele>1188.8695</ele>
        <time>2014-02-27T12:38:39Z</time>
      </trkpt>
      <trkpt lat="47.89302" lon="7.11351">
        <ele>1188.8695</ele>
        <time>2014-02-27T12:38:44Z</time>
      </trkpt>
      <trkpt lat="47.89298" lon="7.11361">
        <ele>1187.2964</ele>
        <time>2014-02-27T12:38:49Z</time>
      </trkpt>
      <trkpt lat="47.89296" lon="7.1137">
        <ele>1187.2964</ele>
        <time>2014-02-27T12:38:54Z</time>
      </trkpt>
      <trkpt lat="47.89296" lon="7.11374">
        <ele>1187.2964</ele>
        <time>2014-02-27T12:38:59Z</time>
      </trkpt>
      <trkpt lat="47.89296" lon="7.11382">
        <ele>1184.4178</ele>
        <time>2014-02-27T12:39:04Z</time>
      </trkpt>
      <trkpt lat="47.89295" lon="7.11389">
        <ele>1184.4178</ele>
        <time>2014-02-27T12:39:09Z</time>
      </trkpt>
      <trkpt lat="47.89294" lon="7.11401">
        <ele>1181.1713</ele>
        <time>2014-02-27T12:39:14Z</time>
      </trkpt>
      <trkpt lat="47.89294" lon="7.11407">
        <ele>1181.1713</ele>
        <time>2014-02-27T12:39:19Z</time>
      </trkpt>
      <trkpt lat="47.89291" lon="7.11417">
        <ele>1177.9216</ele>
        <time>2014-02-27T12:39:24Z</time>
      </trkpt>
      <trkpt lat="47.8929" lon="7.11422">
        <ele>1177.9216</ele>
        <time>2014-02-27T12:39:29Z</time>
      </trkpt>
      <trkpt lat="47.89292" lon="7.11432">
        <ele>1174.4166</ele>
        <time>2014-02-27T12:39:34Z</time>
      </trkpt>
      <trkpt lat="47.89287" lon="7.11438">
        <ele>1174.4166</ele>
        <time>2014-02-27T12:39:39Z</time>
      </trkpt>
      <trkpt lat="47.89282" lon="7.11449">
        <ele>1170.7256</ele>
        <time>2014-02-27T12:39:44Z</time>
      </trkpt>
      <trkpt lat="47.8928" lon="7.11454">
        <ele>1170.7256</ele>
        <time>2014-02-27T12:39:49Z</time>
      </trkpt>
      <trkpt lat="47.89279" lon="7.11462">
        <ele>1166.9711</ele>
        <time>2014-02-27T12:39:54Z</time>
      </trkpt>
      <trkpt lat="47.89277" lon="7.11463">
        <ele>1166.9711</ele>
        <time>2014-02-27T12:39:59Z</time>
      </trkpt>
      <trkpt lat="47.89274" lon="7.11466">
        <ele>1166.9711</ele>
        <time>2014-02-27T12:40:04Z</time>
      </trkpt>
      <trkpt lat="47.89269" lon="7.11468">
        <ele>1162.5316</ele>
        <time>2014-02-27T12:40:09Z</time>
      </trkpt>
      <trkpt lat="47.89265" lon="7.11472">
        <ele>1162.5316</ele>
        <time>2014-02-27T12:40:14Z</time>
      </trkpt>
      <trkpt lat="47.89267" lon="7.11474">
        <ele>1162.5316</ele>
        <time>2014-02-27T12:40:19Z</time>
      </trkpt>
      <trkpt lat="47.89267" lon="7.11482">
        <ele>1157.1938</ele>
        <time>2014-02-27T12:40:24Z</time>
      </trkpt>
      <trkpt lat="47.89267" lon="7.11483">
        <ele>1157.1938</ele>
        <time>2014-02-27T12:40:29Z</time>
      </trkpt>
      <trkpt lat="47.89266" lon="7.11483">
        <ele>1157.1938</ele>
        <time>2014-02-27T12:40:34Z</time>
      </trkpt>
      <trkpt lat="47.89265" lon="7.11484">
        <ele>1157.1938</ele>
        <time>2014-02-27T12:40:39Z</time>
      </trkpt>
      <trkpt lat="47.89266" lon="7.11491">
        <ele>1157.1938</ele>
        <time>2014-02-27T12:40:44Z</time>
      </trkpt>
      <trkpt lat="47.89269" lon="7.11494">
        <ele>1150.964</ele>
        <time>2014-02-27T12:40:49Z</time>
      </trkpt>
      <trkpt lat="47.89265" lon="7.11504">
        <ele>1150.964</ele>
        <time>2014-02-27T12:40:54Z</time>
      </trkpt>
      <trkpt lat="47.89264" lon="7.11507">
        <ele>1145.7671</ele>
        <time>2014-02-27T12:40:59Z</time>
      </trkpt>
      <trkpt lat="47.8926" lon="7.11512">
        <ele>1145.7671</ele>
        <time>2014-02-27T12:41:04Z</time>
      </trkpt>
      <trkpt lat="47.8926" lon="7.11518">
        <ele>1145.7671</ele>
        <time>2014-02-27T12:41:09Z</time>
      </trkpt>
      <trkpt lat="47.89257" lon="7.1153">
        <ele>1140.5157</ele>
        <time>2014-02-27T12:41:14Z</time>
      </trkpt>
      <trkpt lat="47.89256" lon="7.11536">
        <ele>1140.5157</ele>
        <time>2014-02-27T12:41:19Z</time>
      </trkpt>
      <trkpt lat="47.89254" lon="7.11548">
        <ele>1135.1537</ele>
        <time>2014-02-27T12:41:24Z</time>
      </trkpt>
      <trkpt lat="47.89253" lon="7.11556">
        <ele>1135.1537</ele>
        <time>2014-02-27T12:41:29Z</time>
      </trkpt>
      <trkpt lat="47.89251" lon="7.11567">
        <ele>1129.8739</ele>
        <time>2014-02-27T12:41:34Z</time>
      </trkpt>
      <trkpt lat="47.89251" lon="7.11574">
        <ele>1129.8739</ele>
        <time>2014-02-27T12:41:39Z</time>
      </trkpt>
      <trkpt lat="47.89249" lon="7.11583">
        <ele>1124.8835</ele>
        <time>2014-02-27T12:41:44Z</time>
      </trkpt>
      <trkpt lat="47.89248" lon="7.11588">
        <ele>1124.8835</ele>
        <time>2014-02-27T12:41:49Z</time>
      </trkpt>
      <trkpt lat="47.89248" lon="7.11603">
        <ele>1120.431</ele>
        <time>2014-02-27T12:41:54Z</time>
      </trkpt>
      <trkpt lat="47.89252" lon="7.11606">
        <ele>1120.431</ele>
        <time>2014-02-27T12:41:59Z</time>
      </trkpt>
      <trkpt lat="47.89253" lon="7.11617">
        <ele>1116.2694</ele>
        <time>2014-02-27T12:42:04Z</time>
      </trkpt>
      <trkpt lat="47.89254" lon="7.11618">
        <ele>1116.2694</ele>
        <time>2014-02-27T12:42:09Z</time>
      </trkpt>
      <trkpt lat="47.89254" lon="7.11619">
        <ele>1116.2694</ele>
        <time>2014-02-27T12:42:14Z</time>
      </trkpt>
      <trkpt lat="47.89255" lon="7.11619">
        <ele>1116.2694</ele>
        <time>2014-02-27T12:42:19Z</time>
      </trkpt>
      <trkpt lat="47.89255" lon="7.11619">
        <ele>1116.2694</ele>
        <time>2014-02-27T12:42:24Z</time>
      </trkpt>
      <trkpt lat="47.89255" lon="7.11619">
        <ele>1116.2694</ele>
        <time>2014-02-27T12:42:29Z</time>
      </trkpt>
      <trkpt lat="47.89255" lon="7.11619">
        <ele>1116.2694</ele>
        <time>2014-02-27T12:42:34Z</time>
      </trkpt>
      <trkpt lat="47.89255" lon="7.11619">
        <ele>1116.2694</ele>
        <time>2014-02-27T12:42:39Z</time>
      </trkpt>
      <trkpt lat="47.89255" lon="7.11619">
        <ele>1116.2694</ele>
        <time>2014-02-27T12:42:44Z</time>
      </trkpt>
      <trkpt lat="47.8925" lon="7.11637">
        <ele>1112.3705</ele>
        <time>2014-02-27T13:55:11Z</time>
      </trkpt>
      <trkpt lat="47.89246" lon="7.11633">
        <ele>1112.3705</ele>
        <time>2014-02-27T13:55:16Z</time>
      </trkpt>
      <trkpt lat="47.89243" lon="7.1163">
        <ele>1109.3412</ele>
        <time>2014-02-27T13:55:21Z</time>
      </trkpt>
      <trkpt lat="47.89237" lon="7.11628">
        <ele>1109.3412</ele>
        <time>2014-02-27T13:55:26Z</time>
      </trkpt>
      <trkpt lat="47.89231" lon="7.11628">
        <ele>1106.992</ele>
        <time>2014-02-27T13:55:31Z</time>
      </trkpt>
      <trkpt lat="47.89223" lon="7.11626">
        <ele>1106.992</ele>
        <time>2014-02-27T13:55:36Z</time>
      </trkpt>
      <trkpt lat="47.89217" lon="7.11629">
        <ele>1105.2887</ele>
        <time>2014-02-27T13:55:41Z</time>
      </trkpt>
      <trkpt lat="47.89213" lon="7.11636">
        <ele>1105.2887</ele>
        <time>2014-02-27T13:55:46Z</time>
      </trkpt>
      <trkpt lat="47.8921" lon="7.11638">
        <ele>1103.9102</ele>
        <time>2014-02-27T13:55:51Z</time>
      </trkpt>
      <trkpt lat="47.8921" lon="7.1164">
        <ele>1103.9102</ele>
        <time>2014-02-27T13:55:56Z</time>
      </trkpt>
      <trkpt lat="47.89208" lon="7.1164">
        <ele>1103.9102</ele>
        <time>2014-02-27T13:56:01Z</time>
      </trkpt>
      <trkpt lat="47.89209" lon="7.1164">
        <ele>1103.9102</ele>
        <time>2014-02-27T13:56:06Z</time>
      </trkpt>
      <trkpt lat="47.8921" lon="7.11641">
        <ele>1103.9102</ele>
        <time>2014-02-27T13:56:11Z</time>
      </trkpt>
      <trkpt lat="47.89205" lon="7.11642">
        <ele>1102.6003</ele>
        <time>2014-02-27T13:56:16Z</time>
      </trkpt>
      <trkpt lat="47.89202" lon="7.11642">
        <ele>1102.6003</ele>
        <time>2014-02-27T13:56:21Z</time>
      </trkpt>
      <trkpt lat="47.89199" lon="7.11647">
        <ele>1102.6003</ele>
        <time>2014-02-27T13:56:26Z</time>
      </trkpt>
      <trkpt lat="47.89197" lon="7.11651">
        <ele>1101.3668</ele>
        <time>2014-02-27T13:56:31Z</time>
      </trkpt>
      <trkpt lat="47.89196" lon="7.1166">
        <ele>1101.3668</ele>
        <time>2014-02-27T13:56:36Z</time>
      </trkpt>
      <trkpt lat="47.89196" lon="7.11667">
        <ele>1100.0433</ele>
        <time>2014-02-27T13:56:41Z</time>
      </trkpt>
      <trkpt lat="47.89195" lon="7.11675">
        <ele>1100.0433</ele>
        <time>2014-02-27T13:56:46Z</time>
      </trkpt>
      <trkpt lat="47.89193" lon="7.11681">
        <ele>1098.9225</ele>
        <time>2014-02-27T13:56:51Z</time>
      </trkpt>
      <trkpt lat="47.89191" lon="7.11687">
        <ele>1098.9225</ele>
        <time>2014-02-27T13:56:56Z</time>
      </trkpt>
      <trkpt lat="47.8919" lon="7.11692">
        <ele>1098.9225</ele>
        <time>2014-02-27T13:57:01Z</time>
      </trkpt>
      <trkpt lat="47.89188" lon="7.11695">
        <ele>1097.6407</ele>
        <time>2014-02-27T13:57:06Z</time>
      </trkpt>
      <trkpt lat="47.89184" lon="7.117">
        <ele>1097.6407</ele>
        <time>2014-02-27T13:57:11Z</time>
      </trkpt>
      <trkpt lat="47.8918" lon="7.11704">
        <ele>1095.9913</ele>
        <time>2014-02-27T13:57:16Z</time>
      </trkpt>
      <trkpt lat="47.89178" lon="7.11709">
        <ele>1095.9913</ele>
        <time>2014-02-27T13:57:21Z</time>
      </trkpt>
      <trkpt lat="47.89175" lon="7.11714">
        <ele>1095.9913</ele>
        <time>2014-02-27T13:57:26Z</time>
      </trkpt>
      <trkpt lat="47.89172" lon="7.1172">
        <ele>1094.0862</ele>
        <time>2014-02-27T13:57:31Z</time>
      </trkpt>
      <trkpt lat="47.89169" lon="7.11727">
        <ele>1094.0862</ele>
        <time>2014-02-27T13:57:36Z</time>
      </trkpt>
      <trkpt lat="47.89166" lon="7.11729">
        <ele>1091.972</ele>
        <time>2014-02-27T13:57:41Z</time>
      </trkpt>
      <trkpt lat="47.89165" lon="7.11738">
        <ele>1091.972</ele>
        <time>2014-02-27T13:57:46Z</time>
      </trkpt>
      <trkpt lat="47.89164" lon="7.11743">
        <ele>1089.8077</ele>
        <time>2014-02-27T13:57:51Z</time>
      </trkpt>
      <trkpt lat="47.89163" lon="7.11749">
        <ele>1089.8077</ele>
        <time>2014-02-27T13:57:56Z</time>
      </trkpt>
      <trkpt lat="47.89158" lon="7.11753">
        <ele>1087.6256</ele>
        <time>2014-02-27T13:58:01Z</time>
      </trkpt>
      <trkpt lat="47.89154" lon="7.11759">
        <ele>1087.6256</ele>
        <time>2014-02-27T13:58:06Z</time>
      </trkpt>
      <trkpt lat="47.8915" lon="7.11765">
        <ele>1085.5419</ele>
        <time>2014-02-27T13:58:11Z</time>
      </trkpt>
      <trkpt lat="47.89145" lon="7.11772">
        <ele>1085.5419</ele>
        <time>2014-02-27T13:58:16Z</time>
      </trkpt>
      <trkpt lat="47.89141" lon="7.11777">
        <ele>1083.5486</ele>
        <time>2014-02-27T13:58:21Z</time>
      </trkpt>
      <trkpt lat="47.89139" lon="7.11782">
        <ele>1083.5486</ele>
        <time>2014-02-27T13:58:26Z</time>
      </trkpt>
      <trkpt lat="47.89137" lon="7.11787">
        <ele>1083.5486</ele>
        <time>2014-02-27T13:58:31Z</time>
      </trkpt>
      <trkpt lat="47.89136" lon="7.11794">
        <ele>1081.4939</ele>
        <time>2014-02-27T13:58:36Z</time>
      </trkpt>
      <trkpt lat="47.89135" lon="7.11793">
        <ele>1081.4939</ele>
        <time>2014-02-27T13:58:41Z</time>
      </trkpt>
      <trkpt lat="47.89132" lon="7.11799">
        <ele>1081.4939</ele>
        <time>2014-02-27T13:58:46Z</time>
      </trkpt>
      <trkpt lat="47.89129" lon="7.11804">
        <ele>1079.8716</ele>
        <time>2014-02-27T13:58:51Z</time>
      </trkpt>
      <trkpt lat="47.89124" lon="7.11812">
        <ele>1079.8716</ele>
        <time>2014-02-27T13:58:56Z</time>
      </trkpt>
      <trkpt lat="47.8912" lon="7.11817">
        <ele>1078.6044</ele>
        <time>2014-02-27T13:59:01Z</time>
      </trkpt>
      <trkpt lat="47.89116" lon="7.11822">
        <ele>1078.6044</ele>
        <time>2014-02-27T13:59:06Z</time>
      </trkpt>
      <trkpt lat="47.89112" lon="7.11828">
        <ele>1077.3171</ele>
        <time>2014-02-27T13:59:11Z</time>
      </trkpt>
      <trkpt lat="47.89112" lon="7.11828">
        <ele>1077.3171</ele>
        <time>2014-02-27T13:59:16Z</time>
      </trkpt>
      <trkpt lat="47.89112" lon="7.11827">
        <ele>1077.3171</ele>
        <time>2014-02-27T13:59:21Z</time>
      </trkpt>
      <trkpt lat="47.89112" lon="7.11827">
        <ele>1077.3171</ele>
        <time>2014-02-27T13:59:26Z</time>
      </trkpt>
      <trkpt lat="47.89112" lon="7.11827">
        <ele>1077.3171</ele>
        <time>2014-02-27T13:59:31Z</time>
      </trkpt>
      <trkpt lat="47.89112" lon="7.11831">
        <ele>1077.3171</ele>
        <time>2014-02-27T13:59:36Z</time>
      </trkpt>
      <trkpt lat="47.8911" lon="7.11836">
        <ele>1077.3171</ele>
        <time>2014-02-27T13:59:41Z</time>
      </trkpt>
      <trkpt lat="47.8911" lon="7.11839">
        <ele>1076.3254</ele>
        <time>2014-02-27T13:59:46Z</time>
      </trkpt>
      <trkpt lat="47.89109" lon="7.11839">
        <ele>1076.3254</ele>
        <time>2014-02-27T13:59:51Z</time>
      </trkpt>
      <trkpt lat="47.89109" lon="7.1184">
        <ele>1076.3254</ele>
        <time>2014-02-27T13:59:56Z</time>
      </trkpt>
      <trkpt lat="47.89109" lon="7.1184">
        <ele>1076.3254</ele>
        <time>2014-02-27T14:00:01Z</time>
      </trkpt>
      <trkpt lat="47.89107" lon="7.11839">
        <ele>1076.3254</ele>
        <time>2014-02-27T14:00:06Z</time>
      </trkpt>
      <trkpt lat="47.8911" lon="7.11836">
        <ele>1076.3254</ele>
        <time>2014-02-27T14:00:11Z</time>
      </trkpt>
      <trkpt lat="47.89111" lon="7.11836">
        <ele>1076.3254</ele>
        <time>2014-02-27T14:00:16Z</time>
      </trkpt>
      <trkpt lat="47.89111" lon="7.11836">
        <ele>1076.3254</ele>
        <time>2014-02-27T14:00:21Z</time>
      </trkpt>
      <trkpt lat="47.89113" lon="7.11834">
        <ele>1075.2144</ele>
        <time>2014-02-27T14:00:26Z</time>
      </trkpt>
      <trkpt lat="47.89116" lon="7.11833">
        <ele>1075.2144</ele>
        <time>2014-02-27T14:00:31Z</time>
      </trkpt>
      <trkpt lat="47.89119" lon="7.1183">
        <ele>1075.2144</ele>
        <time>2014-02-27T14:00:36Z</time>
      </trkpt>
      <trkpt lat="47.8912" lon="7.11826">
        <ele>1074.3639</ele>
        <time>2014-02-27T14:00:41Z</time>
      </trkpt>
      <trkpt lat="47.89125" lon="7.11824">
        <ele>1074.3639</ele>
        <time>2014-02-27T14:00:46Z</time>
      </trkpt>
      <trkpt lat="47.89129" lon="7.11822">
        <ele>1074.4421</ele>
        <time>2014-02-27T14:00:51Z</time>
      </trkpt>
      <trkpt lat="47.89135" lon="7.11817">
        <ele>1074.4421</ele>
        <time>2014-02-27T14:00:56Z</time>
      </trkpt>
      <trkpt lat="47.89138" lon="7.11813">
        <ele>1074.841</ele>
        <time>2014-02-27T14:01:01Z</time>
      </trkpt>
      <trkpt lat="47.89142" lon="7.11809">
        <ele>1074.841</ele>
        <time>2014-02-27T14:01:06Z</time>
      </trkpt>
      <trkpt lat="47.89145" lon="7.11802">
        <ele>1075.8748</ele>
        <time>2014-02-27T14:01:11Z</time>
      </trkpt>
      <trkpt lat="47.89146" lon="7.11795">
        <ele>1075.8748</ele>
        <time>2014-02-27T14:01:16Z</time>
      </trkpt>
      <trkpt lat="47.89148" lon="7.11792">
        <ele>1075.8748</ele>
        <time>2014-02-27T14:01:21Z</time>
      </trkpt>
      <trkpt lat="47.89152" lon="7.11787">
        <ele>1077.1272</ele>
        <time>2014-02-27T14:01:26Z</time>
      </trkpt>
      <trkpt lat="47.89152" lon="7.11781">
        <ele>1077.1272</ele>
        <time>2014-02-27T14:01:31Z</time>
      </trkpt>
      <trkpt lat="47.89156" lon="7.11777">
        <ele>1077.1272</ele>
        <time>2014-02-27T14:01:36Z</time>
      </trkpt>
      <trkpt lat="47.89155" lon="7.11771">
        <ele>1078.9613</ele>
        <time>2014-02-27T14:01:41Z</time>
      </trkpt>
      <trkpt lat="47.89156" lon="7.11766">
        <ele>1078.9613</ele>
        <time>2014-02-27T14:01:46Z</time>
      </trkpt>
      <trkpt lat="47.89158" lon="7.11761">
        <ele>1078.9613</ele>
        <time>2014-02-27T14:01:51Z</time>
      </trkpt>
      <trkpt lat="47.89159" lon="7.11754">
        <ele>1080.6456</ele>
        <time>2014-02-27T14:01:56Z</time>
      </trkpt>
      <trkpt lat="47.8916" lon="7.11749">
        <ele>1080.6456</ele>
        <time>2014-02-27T14:02:01Z</time>
      </trkpt>
      <trkpt lat="47.89162" lon="7.11743">
        <ele>1080.6456</ele>
        <time>2014-02-27T14:02:06Z</time>
      </trkpt>
      <trkpt lat="47.89166" lon="7.11741">
        <ele>1082.6989</ele>
        <time>2014-02-27T14:02:11Z</time>
      </trkpt>
      <trkpt lat="47.89168" lon="7.11736">
        <ele>1082.6989</ele>
        <time>2014-02-27T14:02:16Z</time>
      </trkpt>
      <trkpt lat="47.8917" lon="7.11732">
        <ele>1082.6989</ele>
        <time>2014-02-27T14:02:21Z</time>
      </trkpt>
      <trkpt lat="47.89174" lon="7.11727">
        <ele>1084.8229</ele>
        <time>2014-02-27T14:02:26Z</time>
      </trkpt>
      <trkpt lat="47.89176" lon="7.11723">
        <ele>1084.8229</ele>
        <time>2014-02-27T14:02:31Z</time>
      </trkpt>
      <trkpt lat="47.89175" lon="7.11717">
        <ele>1084.8229</ele>
        <time>2014-02-27T14:02:36Z</time>
      </trkpt>
      <trkpt lat="47.89176" lon="7.11715">
        <ele>1084.8229</ele>
        <time>2014-02-27T14:02:41Z</time>
      </trkpt>
      <trkpt lat="47.89176" lon="7.11713">
        <ele>1086.842</ele>
        <time>2014-02-27T14:02:46Z</time>
      </trkpt>
      <trkpt lat="47.89177" lon="7.1171">
        <ele>1086.842</ele>
        <time>2014-02-27T14:02:51Z</time>
      </trkpt>
      <trkpt lat="47.89177" lon="7.11709">
        <ele>1086.842</ele>
        <time>2014-02-27T14:02:56Z</time>
      </trkpt>
      <trkpt lat="47.89179" lon="7.11705">
        <ele>1086.842</ele>
        <time>2014-02-27T14:03:01Z</time>
      </trkpt>
      <trkpt lat="47.89182" lon="7.11704">
        <ele>1089.5886</ele>
        <time>2014-02-27T14:03:06Z</time>
      </trkpt>
      <trkpt lat="47.89184" lon="7.11701">
        <ele>1089.5886</ele>
        <time>2014-02-27T14:03:11Z</time>
      </trkpt>
      <trkpt lat="47.89187" lon="7.11697">
        <ele>1089.5886</ele>
        <time>2014-02-27T14:03:16Z</time>
      </trkpt>
      <trkpt lat="47.89189" lon="7.11695">
        <ele>1092.4772</ele>
        <time>2014-02-27T14:03:21Z</time>
      </trkpt>
      <trkpt lat="47.89192" lon="7.11693">
        <ele>1092.4772</ele>
        <time>2014-02-27T14:03:26Z</time>
      </trkpt>
      <trkpt lat="47.89192" lon="7.11691">
        <ele>1092.4772</ele>
        <time>2014-02-27T14:03:31Z</time>
      </trkpt>
      <trkpt lat="47.89194" lon="7.11686">
        <ele>1092.4772</ele>
        <time>2014-02-27T14:03:36Z</time>
      </trkpt>
      <trkpt lat="47.89193" lon="7.11684">
        <ele>1094.9652</ele>
        <time>2014-02-27T14:03:41Z</time>
      </trkpt>
      <trkpt lat="47.89197" lon="7.11678">
        <ele>1094.9652</ele>
        <time>2014-02-27T14:03:46Z</time>
      </trkpt>
      <trkpt lat="47.89198" lon="7.11674">
        <ele>1094.9652</ele>
        <time>2014-02-27T14:03:51Z</time>
      </trkpt>
      <trkpt lat="47.89198" lon="7.1167">
        <ele>1097.9349</ele>
        <time>2014-02-27T14:03:56Z</time>
      </trkpt>
      <trkpt lat="47.89198" lon="7.11666">
        <ele>1097.9349</ele>
        <time>2014-02-27T14:04:01Z</time>
      </trkpt>
      <trkpt lat="47.89199" lon="7.11659">
        <ele>1097.9349</ele>
        <time>2014-02-27T14:04:06Z</time>
      </trkpt>
      <trkpt lat="47.89198" lon="7.11654">
        <ele>1100.8912</ele>
        <time>2014-02-27T14:04:11Z</time>
      </trkpt>
      <trkpt lat="47.89199" lon="7.11649">
        <ele>1100.8912</ele>
        <time>2014-02-27T14:04:16Z</time>
      </trkpt>
      <trkpt lat="47.892" lon="7.11647">
        <ele>1100.8912</ele>
        <time>2014-02-27T14:04:21Z</time>
      </trkpt>
      <trkpt lat="47.89199" lon="7.1165">
        <ele>1100.8912</ele>
        <time>2014-02-27T14:04:26Z</time>
      </trkpt>
      <trkpt lat="47.89201" lon="7.11647">
        <ele>1103.9666</ele>
        <time>2014-02-27T14:04:31Z</time>
      </trkpt>
      <trkpt lat="47.89202" lon="7.11648">
        <ele>1103.9666</ele>
        <time>2014-02-27T14:04:36Z</time>
      </trkpt>
      <trkpt lat="47.89202" lon="7.11648">
        <ele>1103.9666</ele>
        <time>2014-02-27T14:04:41Z</time>
      </trkpt>
      <trkpt lat="47.89203" lon="7.11646">
        <ele>1103.9666</ele>
        <time>2014-02-27T14:04:46Z</time>
      </trkpt>
      <trkpt lat="47.89206" lon="7.11645">
        <ele>1103.9666</ele>
        <time>2014-02-27T14:04:51Z</time>
      </trkpt>
      <trkpt lat="47.89209" lon="7.11644">
        <ele>1107.053</ele>
        <time>2014-02-27T14:04:56Z</time>
      </trkpt>
      <trkpt lat="47.89216" lon="7.1164">
        <ele>1107.053</ele>
        <time>2014-02-27T14:05:01Z</time>
      </trkpt>
      <trkpt lat="47.8922" lon="7.11634">
        <ele>1109.6764</ele>
        <time>2014-02-27T14:05:06Z</time>
      </trkpt>
      <trkpt lat="47.89223" lon="7.11633">
        <ele>1109.6764</ele>
        <time>2014-02-27T14:05:11Z</time>
      </trkpt>
      <trkpt lat="47.89224" lon="7.11632">
        <ele>1109.6764</ele>
        <time>2014-02-27T14:05:16Z</time>
      </trkpt>
      <trkpt lat="47.89229" lon="7.11634">
        <ele>1109.6764</ele>
        <time>2014-02-27T14:05:21Z</time>
      </trkpt>
      <trkpt lat="47.89232" lon="7.11637">
        <ele>1112.0762</ele>
        <time>2014-02-27T14:05:26Z</time>
      </trkpt>
      <trkpt lat="47.89238" lon="7.11636">
        <ele>1112.0762</ele>
        <time>2014-02-27T14:05:31Z</time>
      </trkpt>
      <trkpt lat="47.89242" lon="7.11636">
        <ele>1114.1293</ele>
        <time>2014-02-27T14:05:36Z</time>
      </trkpt>
      <trkpt lat="47.89247" lon="7.11638">
        <ele>1114.1293</ele>
        <time>2014-02-27T14:05:41Z</time>
      </trkpt>
      <trkpt lat="47.8925" lon="7.1164">
        <ele>1114.1293</ele>
        <time>2014-02-27T14:05:46Z</time>
      </trkpt>
      <trkpt lat="47.89254" lon="7.11643">
        <ele>1115.8672</ele>
        <time>2014-02-27T14:05:51Z</time>
      </trkpt>
      <trkpt lat="47.89259" lon="7.11642">
        <ele>1115.8672</ele>
        <time>2014-02-27T14:05:56Z</time>
      </trkpt>
      <trkpt lat="47.89264" lon="7.11644">
        <ele>1117.4933</ele>
        <time>2014-02-27T14:06:01Z</time>
      </trkpt>
      <trkpt lat="47.89269" lon="7.11646">
        <ele>1117.4933</ele>
        <time>2014-02-27T14:06:06Z</time>
      </trkpt>
      <trkpt lat="47.89273" lon="7.11646">
        <ele>1119.038</ele>
        <time>2014-02-27T14:06:11Z</time>
      </trkpt>
      <trkpt lat="47.89277" lon="7.11651">
        <ele>1119.038</ele>
        <time>2014-02-27T14:06:16Z</time>
      </trkpt>
      <trkpt lat="47.89282" lon="7.11652">
        <ele>1120.6167</ele>
        <time>2014-02-27T14:06:21Z</time>
      </trkpt>
      <trkpt lat="47.89284" lon="7.11653">
        <ele>1120.6167</ele>
        <time>2014-02-27T14:06:26Z</time>
      </trkpt>
      <trkpt lat="47.89284" lon="7.11651">
        <ele>1120.6167</ele>
        <time>2014-02-27T14:06:31Z</time>
      </trkpt>
      <trkpt lat="47.89281" lon="7.11648">
        <ele>1120.6167</ele>
        <time>2014-02-27T14:06:36Z</time>
      </trkpt>
      <trkpt lat="47.89277" lon="7.11645">
        <ele>1122.5094</ele>
        <time>2014-02-27T14:06:41Z</time>
      </trkpt>
      <trkpt lat="47.89273" lon="7.11644">
        <ele>1122.5094</ele>
        <time>2014-02-27T14:06:46Z</time>
      </trkpt>
      <trkpt lat="47.8927" lon="7.11642">
        <ele>1122.5094</ele>
        <time>2014-02-27T14:06:51Z</time>
      </trkpt>
      <trkpt lat="47.89265" lon="7.1164">
        <ele>1124.384</ele>
        <time>2014-02-27T14:06:56Z</time>
      </trkpt>
      <trkpt lat="47.89262" lon="7.11634">
        <ele>1124.384</ele>
        <time>2014-02-27T14:07:01Z</time>
      </trkpt>
      <trkpt lat="47.8926" lon="7.11628">
        <ele>1125.7894</ele>
        <time>2014-02-27T14:07:06Z</time>
      </trkpt>
      <trkpt lat="47.89256" lon="7.11632">
        <ele>1125.7894</ele>
        <time>2014-02-27T14:07:11Z</time>
      </trkpt>
      <trkpt lat="47.89253" lon="7.11631">
        <ele>1125.7894</ele>
        <time>2014-02-27T14:07:16Z</time>
      </trkpt>
      <trkpt lat="47.89253" lon="7.11631">
        <ele>1125.7894</ele>
        <time>2014-02-27T14:07:21Z</time>
      </trkpt>
      <trkpt lat="47.89253" lon="7.11632">
        <ele>1125.7894</ele>
        <time>2014-02-27T14:07:26Z</time>
      </trkpt>
      <trkpt lat="47.89253" lon="7.11628">
        <ele>1126.4819</ele>
        <time>2014-02-27T14:07:31Z</time>
      </trkpt>
      <trkpt lat="47.89252" lon="7.11631">
        <ele>1126.4819</ele>
        <time>2014-02-27T14:07:36Z</time>
      </trkpt>
      <trkpt lat="47.89252" lon="7.1163">
        <ele>1126.4819</ele>
        <time>2014-02-27T14:07:41Z</time>
      </trkpt>
      <trkpt lat="47.8925" lon="7.1163">
        <ele>1126.4819</ele>
        <time>2014-02-27T14:07:46Z</time>
      </trkpt>
      <trkpt lat="47.8925" lon="7.1163">
        <ele>1126.4819</ele>
        <time>2014-02-27T14:07:51Z</time>
      </trkpt>
      <trkpt lat="47.89249" lon="7.11631">
        <ele>1126.4819</ele>
        <time>2014-02-27T14:07:56Z</time>
      </trkpt>
      <trkpt lat="47.89251" lon="7.11631">
        <ele>1126.4819</ele>
        <time>2014-02-27T14:08:01Z</time>
      </trkpt>
      <trkpt lat="47.89254" lon="7.11629">
        <ele>1127.218</ele>
        <time>2014-02-27T14:08:06Z</time>
      </trkpt>
      <trkpt lat="47.89255" lon="7.11631">
        <ele>1127.218</ele>
        <time>2014-02-27T14:08:11Z</time>
      </trkpt>
      <trkpt lat="47.89254" lon="7.11631">
        <ele>1127.218</ele>
        <time>2014-02-27T14:08:16Z</time>
      </trkpt>
      <trkpt lat="47.89255" lon="7.11631">
        <ele>1127.218</ele>
        <time>2014-02-27T14:08:21Z</time>
      </trkpt>
      <trkpt lat="47.89255" lon="7.11631">
        <ele>1127.218</ele>
        <time>2014-02-27T14:08:26Z</time>
      </trkpt>
      <trkpt lat="47.89255" lon="7.11631">
        <ele>1127.218</ele>
        <time>2014-02-27T14:08:31Z</time>
      </trkpt>
      <trkpt lat="47.89255" lon="7.11631">
        <ele>1127.218</ele>
        <time>2014-02-27T14:08:36Z</time>
      </trkpt>
      <trkpt lat="47.89254" lon="7.11632">
        <ele>1127.218</ele>
        <time>2014-02-27T14:08:41Z</time>
      </trkpt>
      <trkpt lat="47.89254" lon="7.11634">
        <ele>1127.218</ele>
        <time>2014-02-27T14:08:46Z</time>
      </trkpt>
      <trkpt lat="47.89255" lon="7.11633">
        <ele>1127.218</ele>
        <time>2014-02-27T14:08:51Z</time>
      </trkpt>
      <trkpt lat="47.89258" lon="7.11635">
        <ele>1127.218</ele>
        <time>2014-02-27T14:08:56Z</time>
      </trkpt>
      <trkpt lat="47.89259" lon="7.11634">
        <ele>1127.218</ele>
        <time>2014-02-27T14:09:01Z</time>
      </trkpt>
      <trkpt lat="47.89261" lon="7.11636">
        <ele>1127.7333</ele>
        <time>2014-02-27T14:09:06Z</time>
      </trkpt>
      <trkpt lat="47.8926" lon="7.11639">
        <ele>1127.7333</ele>
        <time>2014-02-27T14:09:11Z</time>
      </trkpt>
      <trkpt lat="47.8926" lon="7.1164">
        <ele>1127.7333</ele>
        <time>2014-02-27T14:09:16Z</time>
      </trkpt>
      <trkpt lat="47.8926" lon="7.1164">
        <ele>1127.7333</ele>
        <time>2014-02-27T14:09:21Z</time>
      </trkpt>
      <trkpt lat="47.8926" lon="7.1164">
        <ele>1127.7333</ele>
        <time>2014-02-27T14:09:26Z</time>
      </trkpt>
      <trkpt lat="47.8926" lon="7.1164">
        <ele>1127.7333</ele>
        <time>2014-02-27T14:09:31Z</time>
      </trkpt>
      <trkpt lat="47.8926" lon="7.1164">
        <ele>1127.7333</ele>
        <time>2014-02-27T14:09:36Z</time>
      </trkpt>
      <trkpt lat="47.89262" lon="7.11644">
        <ele>1127.7333</ele>
        <time>2014-02-27T14:09:41Z</time>
      </trkpt>
      <trkpt lat="47.89266" lon="7.11638">
        <ele>1128.2015</ele>
        <time>2014-02-27T14:09:46Z</time>
      </trkpt>
      <trkpt lat="47.89267" lon="7.11636">
        <ele>1128.2015</ele>
        <time>2014-02-27T14:09:51Z</time>
      </trkpt>
    </trkseg>
  </trk>
</gpx>